[[{"header":{"parameterUnit":"m.s-1","parameterCategory":1,"la1":31.0,"la2":29.5877,"lo1":-88.7671,"lo2":-86.6584,"dy":0.0162,"dx":0.0185,"nx":115,"ny":88,"refTime":"2025-12-10T12:00:00:Z","depth":0,"parameterNumber":2,"parameterNumberName":"U-component_of_WINDS"},"data":[0.0,0.0,0.0,0.0,0.0,0.0,0.0,0.0,0.0,0.0,0.0,0.0,0.0,0.0,0.0,0.0,0.0,0.0,0.0,0.0,0.0,0.0,0.0,0.0,0.0,0.0,0.0,0.0,0.0,0.0,0.0,0.0,0.0,0.0,0.0,0.0,0.0,0.0,0.0,0.0,0.0,0.0,0.0,0.0,0.0,0.0,0.0,0.0,0.0,0.0,0.0,0.0,0.0,0.0,0.0,0.0,0.0,0.0,0.0,0.0,0.0,0.0,0.0,0.0,0.0,0.0,0.0,0.0,0.0,0.0,0.0,0.0,0.0,0.0,0.0,0.0,0.0,0.0,0.0,0.0,0.0,0.0,0.0,0.0,0.0,0.0,0.0,0.0,0.0,0.0,0.0,0.0,0.0,0.0,0.0,0.0,0.0,0.0,0.0,0.0,0.0,0.0,0.0,0.0,0.0,0.0,0.0,0.0,0.0,0.0,0.0,0.0,0.0,0.0,0.0,0.0,0.0,0.0,0.0,0.0,0.0,0.0,0.0,0.0,0.0,0.0,0.0,0.0,0.0,0.0,0.0,0.0,0.0,0.0,0.0,0.0,0.0,0.0,0.0,0.0,0.0,0.0,0.0,0.0,0.0,0.0,0.0,0.0,0.0,0.0,0.0,0.0,0.0,0.0,0.0,0.0,0.0,0.0,0.0,0.0,0.0,0.0,0.0,0.0,0.0,0.0,0.0,0.0,0.0,0.0,0.0,0.0,0.0,0.0,0.0,0.0,0.0,0.0,0.0,0.0,0.0,0.0,0.0,0.0,0.0,0.0,0.0,0.0,0.0,0.0,0.0,0.0,0.0,0.0,0.0,0.0,0.0,0.0,0.0,0.0,0.0,0.0,0.0,0.0,0.0,0.0,0.0,0.0,0.0,0.0,0.0,0.0,0.0,0.0,0.0,0.0,0.0,0.0,0.0,0.0,0.0,0.0,0.0,0.0,0.0,0.0,0.0,0.0,0.0,0.0,0.0,0.0,0.0,0.0,0.0,0.0,0.0,0.0,0.0,0.0,0.0,0.0,0.0,0.0,0.0,0.0,0.0,0.0,0.0,0.0,0.0,0.0,0.0,0.0,0.0,0.0,0.0,0.0,0.0,0.0,0.0,0.0,0.0,0.0,0.0,0.0,0.0,0.0,0.0,0.0,0.0,0.0,0.0,0.0,0.0,0.0,0.0,0.0,0.0,0.0,0.0,0.0,0.0,0.0,0.0,0.0,0.0,0.0,0.0,0.0,0.0,0.0,0.0,0.0,0.0,0.0,0.0,0.0,0.0,0.0,0.0,0.0,0.0,0.0,0.0,0.0,0.0,0.0,0.0,0.0,0.0,0.0,0.0,0.0,0.0,0.0,0.0,0.0,0.0,0.0,0.0,0.0,0.0,0.0,0.0,0.0,0.0,0.0,0.0,0.0,0.0,0.0,0.0,0.0,0.0,0.0,0.0,0.0,0.0,0.0,0.0,0.0,0.0,0.0,0.0,0.0,0.0,0.0,0.0,0.0,0.0,0.0,0.0,0.0,0.0,0.0,0.0,0.0,0.0,0.0,0.0,0.0,0.0,0.0,0.0,0.0,0.0,0.0,0.0,0.0,0.0,0.0,0.0,0.0,0.0,0.0,0.0,0.0,0.0,0.0,0.0,0.0,0.0,0.0,0.0,0.0,0.0,0.0,0.0,0.0,0.0,0.0,0.0,0.0,0.0,0.0,0.0,0.0,0.0,0.0,0.0,0.0,0.0,0.0,0.0,0.0,0.0,0.0,0.0,0.0,0.0,0.0,0.0,0.0,0.0,0.0,0.0,0.0,0.0,0.0,0.0,0.0,0.0,0.0,0.0,0.0,0.0,0.0,0.0,0.0,0.0,0.0,0.0,0.0,0.0,0.0,0.0,0.0,0.0,0.0,0.0,0.0,0.0,0.0,0.0,0.0,0.0,0.0,0.0,0.0,0.0,0.0,0.0,0.0,0.0,0.0,0.0,0.0,0.0,0.0,0.0,0.0,0.0,0.0,0.0,0.0,0.0,0.0,0.0,0.0,0.0,0.0,0.0,0.0,0.0,0.0,0.0,0.0,0.0,0.0,0.0,0.0,0.0,0.0,0.0,0.0,0.0,0.0,0.0,0.0,0.0,0.0,0.0,0.0,0.0,0.0,0.0,0.0,0.0,0.0,0.0,0.0,0.0,0.0,0.0,0.0,0.0,0.0,0.0,0.0,0.0,0.0,0.0,0.0,0.0,0.0,0.0,0.0,0.0,0.0,0.0,0.0,0.0,0.0,0.0,0.0,0.0,0.0,0.0,0.0,0.0,0.0,0.0,0.0,0.0,0.0,0.0,0.0,0.0,0.0,0.0,0.0,0.0,0.0,0.0,0.0,0.0,0.0,0.0,0.0,0.0,0.0,0.0,0.0,0.0,0.0,0.0,0.0,0.0,0.0,0.0,0.0,0.0,0.0,0.0,0.0,0.0,0.0,0.0,0.0,0.0,0.0,0.0,0.0,0.0,0.0,0.0,0.0,0.0,0.0,0.0,0.0,0.0,0.0,0.0,0.0,0.0,0.0,0.0,0.0,0.0,0.0,0.0,0.0,0.0,0.0,0.0,0.0,0.0,0.0,0.0,0.0,0.0,0.0,0.0,0.0,0.0,0.0,0.0,0.0,0.0,0.0,0.0,0.0,0.0,0.0,0.0,0.0,0.0,0.0,0.0,0.0,0.0,0.0,0.0,0.0,0.0,0.0,0.0,0.0,0.0,0.0,0.0,0.0,0.0,0.0,0.0,0.0,0.0,0.0,0.0,0.0,0.0,0.0,0.0,0.0,0.0,0.0,0.0,0.0,0.0,0.0,0.0,0.0,0.0,0.0,0.0,0.0,0.0,0.0,0.0,0.0,0.0,0.0,0.0,0.0,0.0,0.0,0.0,0.0,0.0,0.0,0.0,0.0,0.0,0.0,0.0,0.0,0.0,0.0,0.0,0.0,0.0,0.0,0.0,0.0,0.0,0.0,0.0,0.0,0.0,0.0,0.0,0.0,0.0,0.0,0.0,0.0,0.0,0.0,0.0,0.0,0.0,0.0,0.0,0.0,0.0,0.0,0.0,0.0,0.0,0.0,0.0,0.0,0.0,0.0,0.0,0.0,0.0,0.0,0.0,0.0,0.0,0.0,0.0,0.0,0.0,0.0,0.0,0.0,0.0,0.0,0.0,0.0,0.0,0.0,0.0,0.0,0.0,0.0,0.0,0.0,0.0,0.0,0.0,0.0,0.0,0.0,0.0,0.0,0.0,0.0,0.0,0.0,0.0,0.0,0.0,0.0,0.0,0.0,0.0,0.0,0.0,0.0,0.0,0.0,0.0,0.0,0.0,0.0,0.0,0.0,0.0,0.0,0.0,0.0,0.0,0.0,0.0,0.0,0.0,0.0,0.0,0.0,0.0,0.0,0.0,0.0,0.0,0.0,0.0,0.0,0.0,0.0,0.0,0.0,0.0,0.0,0.0,0.0,0.0,0.0,0.0,0.0,0.0,0.0,0.0,0.0,0.0,0.0,0.0,0.0,0.0,0.0,0.0,0.0,0.0,0.0,0.0,0.0,0.0,0.0,0.0,0.0,0.0,0.0,0.0,0.0,0.0,0.0,0.0,0.0,0.0,0.0,0.0,0.0,0.0,0.0,0.0,0.0,0.0,0.0,0.0,0.0,0.0,0.0,0.0,0.0,0.0,0.0,0.0,0.0,0.0,0.0,0.0,0.0,0.0,0.0,0.0,0.0,0.0,0.0,0.0,0.0,0.0,0.0,0.0,0.0,0.0,0.0,0.0,0.0,0.0,0.0,0.0,0.0,0.0,0.0,0.0,0.0,0.0,0.0,0.0,0.0,0.0,0.0,0.0,0.0,0.0,0.0,0.0,0.0,0.0,0.0,0.0,0.0,0.0,0.0,0.0,0.0,0.0,0.0,0.0,0.0,0.0,0.0,0.0,0.0,0.0,0.0,0.0,0.0,0.0,0.0,0.0,0.0,0.0,0.0,0.0,0.0,0.0,0.0,0.0,0.0,0.0,0.0,0.0,0.0,0.0,0.0,0.0,0.0,0.0,0.0,0.0,0.0,0.0,0.0,0.0,0.0,0.0,0.0,0.0,0.0,0.0,0.0,0.0,0.0,0.0,0.0,0.0,0.0,0.0,0.0,0.0,0.0,0.0,0.0,0.0,0.0,0.0,0.0,0.0,0.0,0.0,0.0,1.4183,0.0,0.0,0.0,0.0,0.0,0.0,0.0,0.0,0.0,0.0,0.0,0.0,0.0,0.0,0.0,0.0,0.0,0.0,0.0,0.0,0.0,0.0,0.0,0.0,0.0,0.0,0.0,0.0,0.0,0.0,0.0,0.0,0.0,0.0,0.0,0.0,0.0,0.0,0.0,0.0,0.0,0.0,0.0,0.0,0.0,0.0,0.0,0.0,0.0,0.0,0.0,0.0,0.0,0.0,0.0,0.0,0.0,0.0,0.0,0.0,0.0,0.0,0.0,0.0,0.0,0.0,0.0,0.0,0.0,0.0,0.0,0.0,0.0,0.0,0.0,0.0,0.0,0.0,0.0,0.0,0.0,0.0,0.0,0.0,0.0,0.0,0.0,0.0,0.0,0.0,0.0,0.0,0.0,0.0,0.0,0.0,0.0,0.0,0.0,0.0,0.0,0.0,0.0,0.0,0.0,0.0,0.0,0.0,0.0,0.0,1.4158,1.4165,1.4296,1.4362,1.4365,0.0,0.0,0.0,0.0,0.0,0.0,0.0,0.0,0.0,0.0,0.0,0.0,0.0,0.0,0.0,0.0,0.0,0.0,0.0,0.0,0.0,0.0,0.0,0.0,0.0,0.0,0.0,0.0,0.0,0.0,0.0,0.0,0.0,0.0,0.0,0.0,0.0,0.0,0.0,0.0,0.0,0.0,0.0,0.0,0.0,0.0,0.0,0.0,0.0,0.0,0.0,0.0,0.0,0.0,0.0,0.0,0.0,0.0,0.0,0.0,0.0,0.0,0.0,0.0,0.0,0.0,0.0,0.0,0.0,0.0,0.0,0.0,0.0,0.0,0.0,0.0,0.0,0.0,0.0,0.0,0.0,0.0,0.0,0.0,0.0,0.0,0.0,0.0,0.0,0.0,0.0,0.0,0.0,0.0,0.0,0.0,0.0,0.0,0.0,0.0,0.0,0.0,0.0,0.0,0.0,0.0,0.0,0.0,0.0,0.0,0.0,0.0,1.4681,1.4807,1.4818,0.0,0.0,0.0,0.0,0.0,0.0,0.0,0.0,0.0,0.0,0.0,0.0,0.0,0.0,0.0,0.0,0.0,0.0,0.0,0.0,0.0,0.0,0.0,0.0,0.0,0.0,0.0,0.0,0.0,0.0,0.0,0.0,0.0,0.0,0.0,0.0,0.0,0.0,0.0,0.0,0.0,0.0,0.0,0.0,0.0,0.0,0.0,0.0,0.0,0.0,0.0,0.0,0.0,0.0,0.0,0.0,0.0,0.0,0.0,0.0,0.0,0.0,0.0,0.0,0.0,0.0,0.0,0.0,0.0,0.0,0.0,0.0,0.0,0.0,0.0,0.0,0.0,0.0,0.0,0.0,0.0,0.0,0.0,0.0,0.0,0.0,0.0,0.0,0.0,0.0,0.0,0.0,0.0,0.0,0.0,0.0,0.0,0.0,0.0,0.0,0.0,0.0,0.0,0.0,0.0,0.0,0.0,0.0,0.0,0.0,1.4542,1.5262,1.5538,0.0,1.5776,0.0,0.0,0.0,0.0,0.0,0.0,0.0,0.0,0.0,0.0,0.0,0.0,0.0,0.0,0.0,0.0,0.0,0.0,0.0,0.0,0.0,0.0,0.0,0.0,0.0,0.0,0.0,0.0,0.0,0.0,0.0,0.0,0.0,0.0,0.0,0.0,0.0,0.0,0.0,0.0,0.0,0.0,0.0,0.0,0.0,0.0,0.0,0.0,0.0,0.0,0.0,0.0,0.0,0.0,0.0,0.0,0.0,0.0,0.0,0.0,0.0,0.0,0.0,0.0,0.0,0.0,0.0,0.0,0.0,0.0,0.0,0.0,0.0,0.0,0.0,0.0,0.0,0.0,0.0,0.0,0.0,0.0,0.0,0.0,0.0,0.0,0.0,0.0,0.0,0.0,0.0,0.0,0.0,0.0,0.0,0.0,0.0,0.0,0.0,0.0,0.0,0.0,0.0,0.0,0.0,0.0,0.0,0.0,0.0,0.0,0.0,1.5517,1.5279,1.5162,0.0,0.0,0.0,0.0,0.0,0.0,0.0,0.0,0.0,0.0,0.0,0.0,0.0,0.0,0.0,0.0,0.0,0.0,0.0,0.0,0.0,0.0,0.0,0.0,0.0,0.0,0.0,0.0,0.0,0.0,0.0,0.0,0.0,0.0,0.0,0.0,0.0,0.0,0.0,0.0,0.0,0.0,0.0,0.0,0.0,0.0,0.0,0.0,0.0,0.0,0.0,0.0,0.0,0.0,0.0,0.0,0.0,0.0,0.0,0.0,0.0,0.0,0.0,0.0,0.0,0.0,0.0,0.0,0.0,0.0,0.0,0.0,0.0,0.0,0.0,0.0,0.0,0.0,0.0,0.0,0.0,0.0,0.0,0.0,0.0,0.0,0.0,0.0,0.0,0.0,0.0,0.0,0.0,0.0,0.0,0.0,0.0,0.0,0.0,0.0,0.0,0.0,0.0,0.0,0.0,0.0,0.0,0.0,0.0,0.0,1.5206,0.0,1.5663,1.5477,1.5054,1.4386,0.0,0.0,0.0,0.0,0.0,0.0,0.0,0.0,0.0,0.0,0.0,0.0,0.0,0.0,0.0,0.0,0.0,0.0,0.0,0.0,0.0,0.0,0.0,0.0,0.0,0.0,0.0,0.0,0.0,0.0,0.0,0.0,0.0,0.0,0.0,0.0,0.0,0.0,0.0,0.0,0.0,0.0,0.0,0.0,0.0,0.0,0.0,0.0,0.0,0.0,0.0,0.0,0.0,0.0,0.0,0.0,0.0,0.0,0.0,0.0,0.0,0.0,0.0,0.0,0.0,0.0,0.0,0.0,0.0,0.0,0.0,0.0,0.0,0.0,0.0,0.0,0.0,0.0,0.0,0.0,0.0,0.0,0.0,0.0,0.0,0.0,0.0,0.0,0.0,0.0,0.0,0.0,0.0,0.0,0.0,0.0,0.0,0.0,0.0,0.0,0.0,0.0,0.0,0.0,0.0,0.0,0.0,0.0,0.0,1.5132,1.4918,1.5885,1.6583,1.5908,0.0,0.0,0.0,0.0,0.0,0.0,0.0,0.0,0.0,0.0,0.0,0.0,0.0,0.0,0.0,0.0,0.0,0.0,0.0,0.0,0.0,0.0,0.0,0.0,0.0,0.0,0.0,0.0,0.0,0.0,0.0,0.0,0.0,0.0,0.0,0.0,0.0,0.0,0.0,0.0,0.0,0.0,0.0,0.0,0.0,0.0,0.0,0.0,0.0,0.0,0.0,0.0,0.0,0.0,0.0,0.0,0.0,0.0,0.0,0.0,0.0,0.0,0.0,0.0,0.0,0.0,0.0,0.0,0.0,0.0,0.0,0.0,0.0,0.0,0.0,0.0,0.0,0.0,0.0,0.0,0.0,0.0,0.0,0.0,0.0,0.0,0.0,0.0,0.0,0.0,0.0,0.0,0.0,0.0,0.0,0.0,0.0,0.0,0.0,0.0,0.0,0.0,0.0,0.0,0.0,0.0,0.0,0.0,0.0,1.351,1.363,1.4699,1.664,1.4971,1.4082,0.0,0.0,0.0,0.0,0.0,0.0,0.0,0.0,0.0,0.0,0.0,0.0,0.0,0.0,0.0,0.0,0.0,0.0,0.0,0.0,0.0,0.0,0.0,0.0,0.0,0.0,0.0,0.0,0.0,0.0,0.0,0.0,0.0,0.0,0.0,0.0,0.0,0.0,0.0,0.0,0.0,0.0,0.0,0.0,0.0,0.0,0.0,0.0,0.0,0.0,0.0,0.0,0.0,0.0,0.0,0.0,0.0,0.0,0.0,0.0,0.0,0.0,0.0,0.0,0.0,0.0,0.0,0.0,0.0,0.0,0.0,0.0,0.0,0.0,0.0,0.0,0.0,0.0,0.0,0.0,0.0,0.0,0.0,0.0,0.0,0.0,0.0,0.0,0.0,0.0,0.0,0.0,0.0,0.0,0.0,0.0,0.0,0.0,0.0,0.0,0.0,0.0,0.0,0.0,0.0,0.0,0.0,0.0,0.0,1.2789,0.0,1.5235,0.0,1.4275,1.3128,0.0,0.0,0.0,0.0,0.0,0.0,0.0,0.0,0.0,0.0,0.0,0.0,0.0,0.0,0.0,0.0,0.0,0.0,0.0,0.0,0.0,0.0,0.0,0.0,0.0,0.0,0.0,0.0,0.0,0.0,0.0,0.0,0.0,0.0,0.0,0.0,0.0,0.0,0.0,0.0,0.0,0.0,0.0,0.0,0.0,0.0,0.0,0.0,0.0,0.0,0.0,0.0,0.0,0.0,0.0,0.0,0.0,0.0,0.0,0.0,0.0,0.0,0.0,0.0,0.0,0.0,0.0,0.0,0.0,0.0,0.0,0.0,0.0,0.0,0.0,0.0,0.0,0.0,0.0,0.0,0.0,0.0,0.0,0.0,0.0,0.0,0.0,0.0,0.0,0.0,0.0,0.0,0.0,0.0,0.0,0.0,0.0,0.0,0.0,0.0,0.0,0.0,0.0,0.0,0.0,0.0,0.0,0.0,1.2087,1.4636,1.6262,1.6371,1.5018,1.475,1.3258,0.0,0.0,0.0,0.0,0.0,0.0,0.0,0.0,0.0,0.0,0.0,0.0,0.0,0.0,0.0,0.0,0.0,0.0,0.0,0.0,0.0,0.0,0.0,0.0,0.0,0.0,0.0,0.0,0.0,0.0,0.0,0.0,0.0,0.0,0.0,0.0,0.0,0.0,0.0,0.0,0.0,0.0,0.0,0.0,0.0,0.0,0.0,0.0,0.0,0.0,0.0,0.0,0.0,0.0,0.0,0.0,0.0,0.0,0.0,0.0,0.0,0.0,0.0,0.0,0.0,0.0,0.0,0.0,0.0,0.0,0.0,0.0,0.0,0.0,0.0,0.0,0.0,0.0,0.0,0.0,0.0,0.0,0.0,0.0,0.0,0.0,0.0,0.0,0.0,0.0,0.0,0.0,0.0,0.0,0.0,0.0,0.0,0.0,0.0,0.0,0.0,0.0,0.0,0.0,0.0,0.0,0.0,0.0,0.0,1.3121,1.4259,1.5497,1.6587,1.3873,1.299,0.0,0.0,0.0,0.0,0.0,0.0,0.0,0.0,0.0,0.0,0.0,0.0,0.0,0.0,0.0,0.0,0.0,0.0,0.0,0.0,0.0,0.0,0.0,0.0,0.0,0.0,0.0,0.0,0.0,0.0,0.0,0.0,0.0,0.0,0.0,0.0,0.0,0.0,0.0,0.0,0.0,0.0,0.0,0.0,0.0,0.0,0.0,0.0,0.0,0.0,0.0,0.0,0.0,0.0,0.0,0.0,0.0,0.0,0.0,0.0,0.0,0.0,0.0,0.0,0.0,0.0,0.0,0.0,0.0,0.0,0.0,0.0,0.0,0.0,0.0,0.0,0.0,0.0,0.0,0.0,0.0,0.0,0.0,0.0,0.0,0.0,0.0,0.0,0.0,0.0,0.0,0.0,0.0,0.0,0.0,0.0,0.0,0.0,0.0,0.0,0.0,0.0,0.0,0.0,0.0,0.0,0.0,0.0,0.0,1.3875,1.4724,1.5687,1.6682,1.3771,1.3074,1.4866,0.0,0.0,0.0,0.0,0.0,0.0,0.0,0.0,0.0,0.0,0.0,0.0,0.0,0.0,0.0,0.0,0.0,0.0,0.0,0.0,0.0,0.0,0.0,0.0,0.0,0.0,0.0,0.0,0.0,0.0,0.0,0.0,0.0,0.0,0.0,0.0,0.0,0.0,0.0,0.0,0.0,0.0,0.0,0.0,0.0,0.0,0.0,0.0,0.0,0.0,0.0,0.0,0.0,0.0,0.0,0.0,0.0,0.0,0.0,0.0,0.0,0.0,0.0,0.0,0.0,0.0,0.0,0.0,0.0,0.0,0.0,0.0,0.0,0.0,0.0,0.0,0.0,0.0,0.0,0.0,0.0,0.0,0.0,0.0,0.0,0.0,0.0,0.0,0.0,0.0,0.0,0.0,0.0,0.0,0.0,0.0,0.0,0.0,0.0,0.0,0.0,0.0,0.0,0.0,0.0,0.0,0.0,0.0,1.6365,1.723,1.6972,1.553,1.4511,1.3638,0.0,0.0,0.0,0.0,0.0,0.0,0.0,0.0,0.0,0.0,0.0,0.0,0.0,0.0,0.0,0.0,0.0,0.0,0.0,0.0,0.0,0.0,0.0,0.0,0.0,0.0,0.0,0.0,0.0,0.0,0.0,0.0,0.0,0.0,0.0,0.0,0.0,0.0,0.0,0.0,0.0,0.0,0.0,0.0,0.0,0.0,0.0,0.0,0.0,0.0,0.0,0.0,0.0,0.0,0.0,0.0,0.0,0.0,0.0,0.0,0.0,0.0,0.0,0.0,0.0,0.0,0.0,0.0,0.0,0.0,0.0,0.0,0.0,0.0,0.0,0.0,0.0,0.0,0.0,0.0,0.0,0.0,0.0,0.0,0.0,0.0,0.0,0.0,0.0,0.0,0.0,0.0,0.0,0.0,0.0,0.0,0.0,0.0,0.0,0.0,0.0,0.0,0.0,0.0,0.0,0.0,0.0,0.0,0.0,1.7428,1.8256,1.8499,1.8051,1.6035,1.5134,0.0,0.0,0.0,0.0,0.0,0.0,0.0,0.0,0.0,0.0,0.0,0.0,0.0,0.0,0.0,0.0,0.0,0.0,0.0,0.0,0.0,0.0,0.0,0.0,0.0,0.0,0.0,0.0,0.0,0.0,0.0,0.0,0.0,0.0,0.0,0.0,0.0,0.0,0.0,0.0,0.0,0.0,0.0,0.0,0.0,0.0,0.0,0.0,0.0,0.0,0.0,0.0,0.0,0.0,0.0,0.0,0.0,0.0,0.0,0.0,0.0,0.0,0.0,0.0,0.0,0.0,0.0,0.0,0.0,0.0,0.0,0.0,0.0,0.0,0.0,0.0,0.0,0.0,0.0,0.0,0.0,0.0,0.0,0.0,0.0,0.0,0.0,0.0,0.0,0.0,0.0,0.0,0.0,0.0,0.0,0.0,0.0,0.0,0.0,0.0,0.0,0.0,0.0,0.0,0.0,0.0,0.0,0.0,1.7468,1.8333,1.8498,1.8595,1.8587,1.7168,1.6281,0.0,0.0,0.0,0.0,0.0,0.0,0.0,0.0,0.0,0.0,0.0,0.0,0.0,0.0,0.0,0.0,0.0,0.0,0.0,0.0,0.0,0.0,0.0,0.0,0.0,0.0,0.0,0.0,0.0,0.0,0.0,0.0,0.0,0.0,0.0,0.0,0.0,0.0,0.0,0.0,0.0,0.0,0.0,0.0,0.0,0.0,0.0,0.0,0.0,0.0,0.0,0.0,0.0,0.0,0.0,0.0,0.0,0.0,0.0,0.0,0.0,0.0,0.0,0.0,0.0,0.0,0.0,0.0,0.0,0.0,0.0,0.0,0.0,0.0,0.0,0.0,0.0,0.0,0.0,0.0,0.0,0.0,0.0,0.0,0.0,0.0,0.0,0.0,0.0,0.0,0.0,0.0,0.0,0.0,0.0,0.0,0.0,0.0,0.0,0.0,0.0,0.0,0.0,0.0,0.0,0.0,0.0,0.0,1.7417,1.8927,1.8455,1.8085,1.7913,1.7983,1.7246,0.0,0.0,0.0,0.0,0.0,0.0,0.0,0.0,0.0,0.0,0.0,0.0,0.0,0.0,0.0,0.0,0.0,0.0,0.0,0.0,0.0,0.0,0.0,0.0,0.0,0.0,0.0,0.0,0.0,0.0,0.0,0.0,0.0,0.0,0.0,0.0,0.0,0.0,0.0,0.0,0.0,0.0,0.0,0.0,0.0,0.0,0.0,0.0,0.0,0.0,0.0,0.0,0.0,0.0,0.0,0.0,0.0,0.0,0.0,0.0,0.0,0.0,0.0,0.0,0.0,0.0,0.0,0.0,0.0,0.0,0.0,0.0,0.0,0.0,0.0,0.0,0.0,0.0,0.0,0.0,0.0,0.0,0.0,0.0,0.0,0.0,0.0,0.0,0.0,0.0,0.0,0.0,0.0,0.0,0.0,0.0,0.0,0.0,0.0,0.0,0.0,0.0,0.0,0.0,0.0,0.0,0.0,0.0,1.8328,1.81,1.9288,1.9291,1.7952,1.8574,1.8114,0.0,0.0,0.0,0.0,0.0,0.0,0.0,0.0,0.0,0.0,0.0,0.0,0.0,0.0,0.0,0.0,0.0,0.0,0.0,0.0,0.0,0.0,0.0,0.0,0.0,0.0,0.0,0.0,0.0,0.0,0.0,0.0,0.0,0.0,0.0,0.0,0.0,0.0,0.0,0.0,0.0,0.0,0.0,0.0,0.0,0.0,0.0,0.0,1.138,0.0,0.0,0.0,0.0,0.0,0.0,0.0,0.0,0.0,0.0,0.0,0.0,0.0,0.0,0.0,0.0,0.0,0.0,0.0,0.0,0.0,0.0,0.0,0.0,0.0,0.0,0.0,0.0,0.0,0.0,0.0,0.0,0.0,0.0,0.0,0.0,0.0,0.0,0.0,0.0,0.0,0.0,0.0,0.0,0.0,0.0,0.0,0.0,0.0,0.0,0.0,0.0,0.0,0.0,0.0,0.0,0.0,0.0,0.0,1.9084,1.9099,1.9951,1.9594,1.7966,1.8649,1.8279,0.0,0.0,0.0,0.0,0.0,0.0,0.0,0.0,0.0,0.0,0.0,0.0,0.0,0.0,0.0,0.0,0.0,0.0,0.0,0.0,0.0,0.0,0.0,0.0,0.0,0.0,0.0,0.0,0.0,0.0,0.0,0.0,0.0,0.0,0.0,0.0,0.0,0.0,0.0,0.0,0.0,0.0,0.0,0.0,0.0,0.0,0.0,0.0,0.0,0.0,0.0,0.0,0.0,0.0,0.0,0.0,0.0,0.0,0.0,0.0,0.0,0.0,0.0,0.0,0.0,0.0,0.0,0.0,0.0,0.0,0.0,0.0,0.0,0.0,0.0,0.0,0.0,0.0,0.0,0.0,0.0,0.0,0.0,0.0,0.0,0.0,0.0,0.0,0.0,0.0,0.0,0.0,0.0,0.0,0.0,0.0,0.0,0.0,0.0,0.0,0.0,0.0,0.0,0.0,0.0,0.0,0.0,1.8696,1.9536,2.0225,2.0295,1.9481,1.7851,1.8476,1.8089,1.65,0.0,0.0,0.0,0.0,0.0,0.0,0.0,0.0,0.0,0.0,0.0,0.0,0.0,0.0,0.0,0.0,0.0,0.0,0.0,0.0,0.0,0.0,0.0,0.0,0.0,0.0,0.0,0.0,0.0,0.0,0.0,0.0,0.0,0.0,0.0,0.0,0.0,0.0,0.938,1.1116,0.0,0.0,0.0,0.0,0.0,0.0,0.0,0.0,1.2354,0.0,0.0,0.0,0.0,0.0,0.0,0.0,0.0,0.0,0.0,0.0,0.0,0.0,0.0,0.0,0.0,0.0,0.0,0.0,0.0,0.0,0.0,0.0,0.0,0.0,0.0,0.0,0.0,0.0,0.0,0.0,0.0,0.0,0.0,0.0,0.0,0.0,0.0,0.0,0.0,0.0,0.0,0.0,0.0,0.0,0.0,0.0,0.0,0.0,0.0,0.0,0.0,0.0,0.0,0.0,0.0,1.7821,1.8748,1.9217,1.9248,1.9938,1.9443,1.7738,1.8298,1.7881,1.6241,0.0,0.0,0.0,0.0,0.0,0.0,0.0,0.0,0.0,0.0,0.0,0.0,0.0,0.0,0.0,0.0,0.0,0.0,0.0,0.0,0.0,0.0,0.0,0.0,0.0,0.0,0.0,0.0,0.0,0.0,0.0,0.0,0.0,0.0,0.0,0.0,0.0,0.0,0.0,1.3878,1.5342,0.0,0.0,0.0,0.0,0.0,0.0,0.0,0.0,1.2643,0.0,0.0,0.0,0.0,0.0,0.0,0.0,0.0,0.0,0.0,0.0,0.0,0.0,0.0,0.0,0.0,0.0,0.0,0.0,0.0,0.0,0.0,0.0,0.0,0.0,0.0,0.0,0.0,0.0,0.0,0.0,0.0,0.0,0.0,0.0,0.0,0.0,0.0,0.0,0.0,0.0,0.0,0.0,0.0,0.0,0.0,0.0,0.0,0.0,0.0,0.0,0.0,0.0,0.0,0.0,1.7803,1.8725,1.9318,1.9661,1.991,1.9229,1.7565,1.7701,1.7052,0.0,0.0,0.0,0.0,0.0,0.0,0.0,0.0,0.0,0.0,0.0,0.0,0.0,0.0,0.0,0.0,0.0,0.0,0.0,0.0,0.0,0.0,0.0,0.0,0.0,0.0,0.0,0.0,0.0,0.0,0.0,0.0,0.0,0.0,0.0,0.0,0.0,0.0,0.0,0.0,1.4316,1.5048,1.421,0.0,0.0,0.0,0.0,0.0,0.0,1.3994,1.2988,0.0,0.0,0.0,0.0,0.0,0.0,0.0,0.0,0.0,0.0,0.0,0.0,0.0,0.0,0.0,0.0,0.0,0.0,0.0,0.0,0.0,0.0,0.0,0.0,0.0,0.0,0.0,0.0,0.0,0.0,0.0,0.0,0.0,0.0,0.0,0.0,0.0,0.0,0.0,0.0,0.0,0.0,0.0,0.0,0.0,0.0,0.0,0.0,0.0,0.0,0.0,0.0,0.0,0.0,0.0,1.8033,1.8533,1.9232,2.013,1.9755,1.8817,1.7377,1.7303,1.6433,0.0,0.0,0.0,0.0,0.0,0.0,0.0,0.0,0.0,0.0,0.0,0.0,0.0,0.0,0.0,0.0,0.0,0.0,0.0,0.0,0.0,0.0,0.0,0.0,0.0,0.0,0.0,0.0,0.0,0.0,0.0,0.0,0.0,0.0,0.0,0.0,0.0,0.0,0.0,0.0,0.0,1.4902,1.4216,1.5146,0.0,0.0,0.0,0.0,1.6458,1.5101,0.0,0.0,0.0,0.0,0.0,0.0,0.0,0.0,0.0,0.0,0.0,0.0,0.0,0.0,0.0,0.0,0.0,0.0,0.0,0.0,0.0,0.0,0.0,0.0,0.0,0.0,0.0,0.0,0.0,0.0,0.0,0.0,0.0,0.0,0.0,0.0,0.0,0.0,0.0,0.0,0.0,0.0,0.0,0.0,0.0,0.0,0.0,0.0,0.0,0.0,0.0,0.0,0.0,0.0,0.0,0.0,1.8662,1.8031,1.8341,1.9719,1.9017,1.8081,1.7099,1.7656,1.6803,0.0,0.0,0.0,0.0,0.0,0.0,0.0,0.0,0.0,0.0,0.0,0.0,0.0,0.0,0.0,0.0,0.0,0.0,0.0,0.0,0.0,0.0,0.0,0.0,0.0,0.0,0.0,0.0,0.0,0.0,0.0,0.0,0.0,0.0,0.0,0.0,0.0,0.0,0.0,0.0,0.0,1.7573,1.4522,1.6155,1.7363,0.0,0.0,1.6357,1.6513,1.691,0.0,0.0,0.0,0.0,0.0,0.0,0.0,0.0,0.0,0.0,0.0,0.0,0.0,0.0,0.0,0.0,0.0,0.0,0.0,0.0,0.0,0.0,0.0,0.0,0.0,0.0,0.0,0.0,0.0,0.0,0.0,0.0,0.0,0.0,0.0,0.0,0.0,0.0,0.0,0.0,0.0,0.0,0.0,0.0,0.0,0.0,0.0,0.0,0.0,0.0,0.0,0.0,0.0,0.0,0.0,1.4724,1.8631,1.7861,1.8087,1.9588,1.8732,1.782,1.6968,1.7183,1.611,0.0,0.0,0.0,0.0,0.0,0.0,0.0,0.0,0.0,0.0,0.0,0.0,0.0,0.0,0.0,0.0,0.0,0.0,0.0,0.0,0.0,0.0,0.0,0.0,0.0,0.0,0.0,0.0,0.0,0.0,0.0,0.0,0.0,0.0,0.0,0.0,0.0,0.0,0.0,0.0,0.0,0.0,1.6899,1.7475,0.0,0.0,0.0,1.8218,1.8659,0.0,0.0,0.0,0.0,0.0,0.0,0.0,0.0,0.0,0.0,0.0,0.0,0.0,0.0,0.0,0.0,0.0,0.0,0.0,0.0,0.0,0.0,0.0,0.0,0.0,0.0,0.0,0.0,0.0,0.0,0.0,0.0,0.0,0.0,0.0,0.0,0.0,0.0,0.0,0.0,0.0,0.0,0.0,0.0,0.0,0.0,0.0,0.0,0.0,0.0,0.0,0.0,0.0,0.0,0.0,0.0,0.0,1.8846,1.7802,1.7947,1.9441,1.835,1.7449,1.6857,1.6379,0.0,0.0,0.0,0.0,0.0,0.0,0.0,0.0,0.0,0.0,0.0,0.0,0.0,0.0,0.0,0.0,0.0,0.0,0.0,0.0,0.0,0.0,0.0,0.0,0.0,0.0,0.0,0.6007,0.0,0.0,0.0,0.0,0.0,0.0,0.0,0.0,0.0,0.0,0.0,0.0,0.0,0.0,1.7424,1.8765,1.8902,1.9212,0.0,0.0,1.9925,2.0305,1.9267,1.7859,0.0,0.0,0.0,0.0,0.0,0.0,0.0,0.0,0.0,0.0,0.0,0.0,0.0,0.0,0.0,0.0,0.0,0.0,0.0,0.0,0.0,0.0,0.0,0.0,0.0,0.0,0.0,0.0,0.0,0.0,0.0,0.0,0.0,0.0,0.0,0.0,0.0,0.0,0.0,0.0,0.0,0.0,0.0,0.0,0.0,0.0,0.0,0.0,0.0,0.0,0.0,0.0,0.0,0.0,0.0,1.9469,1.7884,1.7718,1.9213,1.7668,1.678,1.6687,1.5265,1.4253,0.0,0.0,0.0,0.0,0.0,0.0,0.0,0.0,0.0,0.0,0.0,0.0,0.0,0.0,0.0,0.0,0.0,0.0,0.0,0.0,0.0,0.0,0.0,0.0,0.0,0.0,0.0,0.0,0.0,0.0,0.0,0.0,0.0,0.0,0.0,0.0,0.0,0.0,0.0,0.0,0.0,1.813,1.897,2.0448,2.1169,0.0,0.0,2.1188,2.0421,2.0214,1.8794,1.4835,0.0,0.0,0.0,0.0,0.0,0.0,0.0,0.0,0.0,0.0,0.0,0.0,0.0,0.0,0.0,0.0,0.0,0.0,0.0,0.0,0.0,0.0,0.0,0.0,0.0,0.0,0.0,0.0,0.0,0.0,0.0,0.0,0.0,0.0,0.0,0.0,0.0,0.0,0.0,0.0,0.0,0.0,0.0,0.0,0.0,0.0,0.0,0.0,0.0,0.0,0.0,0.0,0.0,1.448,1.8707,1.7538,1.7638,1.9038,1.7482,1.6577,1.6584,1.5375,1.4182,0.0,0.0,0.0,0.0,0.0,0.0,0.0,0.0,0.0,0.0,0.0,0.0,0.0,0.0,0.0,0.0,0.0,0.0,0.0,0.0,0.0,0.0,0.0,0.0,0.0,0.0,0.0,0.0,0.8974,0.9648,1.0515,0.0,0.0,0.0,0.0,0.0,0.0,0.0,0.0,0.0,0.0,1.9503,1.9858,2.0895,0.0,0.0,2.1719,2.1657,2.1828,2.0515,1.8936,1.7327,1.6314,0.0,0.0,0.0,0.0,0.0,0.0,0.0,0.0,0.0,0.0,0.0,0.0,0.0,0.0,0.0,0.0,0.0,0.0,0.0,0.0,0.0,0.0,0.0,0.0,0.0,0.0,0.0,0.0,0.0,0.0,0.0,0.0,0.0,0.0,0.0,0.0,0.0,0.0,0.0,0.0,0.0,0.0,0.0,0.0,0.0,0.0,0.0,0.0,0.0,0.0,0.0,0.0,1.4186,1.8112,1.7238,1.7467,1.8987,1.7501,1.6629,1.6357,1.5256,1.3957,0.0,0.0,0.0,0.0,0.0,0.0,0.0,0.0,0.0,0.0,0.0,0.0,0.0,0.0,0.0,0.0,0.0,0.0,0.0,0.0,0.0,0.0,0.0,0.0,0.0,0.0,0.0,0.0,1.0068,1.0415,1.0781,0.0,0.0,0.0,0.0,0.0,0.0,0.0,0.0,0.0,0.0,2.0154,2.0771,2.1497,2.209,2.2514,2.244,2.2454,2.2753,2.1293,1.9802,1.878,0.0,0.0,0.0,0.0,0.0,0.0,0.0,0.0,0.0,0.0,0.0,0.0,0.0,0.0,0.0,0.0,0.0,0.0,0.0,0.0,0.0,0.0,0.0,0.0,0.0,0.0,0.0,0.0,0.0,0.0,1.0209,0.0,0.0,0.0,0.0,0.0,0.0,0.0,0.0,0.0,0.0,0.0,0.0,0.0,0.0,0.0,0.0,0.0,0.0,0.0,0.0,0.0,0.0,0.0,1.801,1.7001,1.7213,1.8721,1.7799,1.6905,1.6096,1.4642,1.3409,1.2517,0.0,0.0,0.0,0.0,0.0,0.0,0.0,0.0,0.0,0.0,0.0,0.0,0.0,0.0,0.0,0.0,0.0,0.0,0.0,0.0,0.0,0.0,0.0,0.0,0.0,0.0,1.1518,1.0703,0.9959,0.0,0.0,0.0,0.0,0.0,0.0,0.0,0.0,0.0,0.0,1.9569,1.9773,2.166,2.2437,2.2659,2.2163,2.3179,2.3744,2.2937,2.2706,2.1591,0.0,0.0,0.0,0.0,0.0,0.0,0.0,0.0,0.0,0.0,0.0,0.0,0.0,0.0,0.0,0.0,0.0,0.0,0.0,0.0,0.0,0.0,0.0,0.0,0.0,0.0,0.0,1.3001,1.2688,0.0,0.0,0.0,0.0,0.0,0.0,0.0,0.0,0.0,0.0,0.0,1.7497,1.7748,0.0,0.0,0.0,0.0,0.0,0.0,0.0,0.0,0.0,0.0,0.0,0.0,1.4832,1.7117,1.7223,1.771,1.8726,1.7707,1.6725,1.5975,1.4864,1.3666,1.2414,0.0,0.0,0.0,0.0,0.0,0.0,0.0,0.0,0.0,0.0,0.0,0.0,0.0,0.0,0.0,0.0,0.0,0.0,0.0,0.0,0.0,0.0,0.0,0.0,0.0,1.2709,0.0,0.0,0.0,0.0,0.0,0.0,0.0,0.0,0.0,0.0,0.0,1.8698,2.0129,2.1514,2.2035,2.1024,2.294,2.4389,0.0,0.0,0.0,0.0,0.0,0.0,0.0,0.0,0.0,0.0,0.0,0.0,0.0,0.0,2.1708,1.9081,1.7611,1.6502,1.566,0.0,0.0,0.0,0.0,0.0,0.0,0.0,0.0,0.0,0.0,0.0,0.0,0.0,0.0,1.4574,0.0,1.361,0.0,0.0,0.0,0.0,0.0,0.0,0.0,0.0,1.7359,1.8117,1.8545,1.8516,1.8443,0.0,1.7232,1.6447,0.0,0.0,0.0,0.0,0.0,0.0,0.0,0.0,1.5197,1.6993,1.7247,1.7804,1.8616,1.7769,1.6959,1.6277,1.4885,1.3557,1.2336,1.1796,1.1282,0.0,0.0,0.0,0.0,0.0,0.0,0.0,0.0,0.0,0.0,0.0,0.0,0.0,0.0,0.0,0.0,0.0,0.0,0.0,0.0,0.0,0.0,0.0,1.3271,0.0,0.0,0.0,0.0,0.0,0.0,0.0,0.0,0.0,1.6037,1.8049,1.9881,2.1023,2.2591,2.3035,2.1407,0.0,0.0,0.0,0.0,0.0,0.0,0.0,2.2458,2.3434,2.2293,2.1218,2.1076,2.2199,2.2839,2.2004,0.0,0.0,2.0867,1.9471,1.8411,1.7756,1.8141,1.8118,1.6747,1.7443,1.8244,0.0,0.0,0.0,0.0,0.0,0.0,0.0,0.0,1.6146,1.5846,0.0,1.4734,0.0,0.0,0.0,0.0,0.0,0.0,0.0,0.0,1.784,1.8466,1.846,1.8456,1.8392,1.8407,1.9841,1.9708,1.7998,1.4205,0.0,0.0,0.0,0.0,0.0,0.0,1.5333,1.7504,1.7214,1.7489,1.8456,1.8065,1.7572,1.6976,1.4721,1.3133,1.2406,1.2318,1.1626,1.0199,1.1633,0.0,0.0,0.0,0.0,0.0,0.0,0.0,0.0,0.0,0.0,0.0,0.0,0.0,0.0,0.0,0.0,0.0,0.0,0.0,0.0,1.4097,0.0,0.0,0.0,0.0,0.0,0.0,0.0,0.0,0.0,0.0,1.7936,1.9424,2.1052,2.2716,0.0,0.0,0.0,0.0,2.6415,2.9267,2.8475,2.7151,2.6157,2.5967,2.539,2.394,0.0,0.0,2.1502,2.2986,2.388,2.2242,2.2547,2.3082,2.3773,2.2407,2.1242,2.0949,2.0243,1.9691,1.9443,1.9634,2.0027,2.1394,0.0,0.0,0.0,0.0,1.9908,2.0231,2.1236,1.9473,1.8819,1.8938,1.7267,0.0,0.0,0.0,0.0,0.0,0.0,1.935,2.0181,2.0682,2.0828,2.0717,2.0675,2.0627,2.0533,1.9884,1.9603,1.9544,1.6796,1.4939,1.4139,0.0,0.0,0.0,0.0,1.714,1.7794,1.8102,1.8387,1.8691,1.8435,1.7953,1.7228,1.5387,1.4055,1.3329,1.2757,1.2253,1.1811,1.1441,0.0,0.0,0.0,0.0,0.0,0.0,0.0,0.0,0.0,0.0,0.0,0.0,0.0,0.0,0.0,0.0,0.0,0.0,0.0,1.3961,1.4101,1.4331,0.0,0.0,0.0,0.0,0.0,0.0,0.0,0.0,0.0,2.0443,2.1978,2.363,0.0,0.0,2.607,2.5653,2.6275,2.6947,2.7329,0.0,0.0,0.0,2.4584,2.4388,2.4998,2.4981,2.4902,2.4977,2.4993,2.4876,2.4505,2.4225,2.3981,2.3696,2.2312,2.1087,2.0741,2.0825,2.0873,2.0679,2.1102,2.1429,2.4051,2.2277,2.162,2.1852,2.2547,2.1609,2.197,2.3112,2.135,2.0918,2.1412,1.9693,1.8757,1.8512,1.8125,0.0,0.0,0.0,2.065,2.1287,2.1575,2.1715,2.1607,2.1471,2.1388,2.1288,2.0268,1.9987,2.0441,1.9324,1.7967,1.6472,0.0,0.0,1.5851,1.7113,1.7958,1.8256,1.8538,1.8718,1.879,1.869,1.8235,1.7444,1.6351,1.5329,1.4375,1.3782,1.3238,1.2677,1.2275,1.2086,0.0,0.0,0.0,0.0,0.0,0.0,0.0,0.0,0.0,0.0,0.0,1.0512,0.0,0.0,0.0,0.0,1.2127,1.3597,1.4978,1.5713,0.0,0.0,0.0,0.0,0.0,0.0,0.0,1.979,2.1033,2.2019,2.2899,2.4109,2.5189,2.5924,2.6307,2.6709,2.7186,0.0,2.6924,2.6896,2.6897,2.6673,2.6067,2.552,2.5254,2.5438,2.5406,2.5276,2.5339,2.5098,2.4846,2.4541,2.4134,2.3631,2.318,2.2151,2.1383,2.1213,2.149,2.1667,2.1446,2.164,2.1726,2.6198,2.5332,2.3793,2.3553,2.41,2.3256,2.3311,2.3834,2.221,2.2294,2.3528,2.1797,2.1405,2.2016,2.1109,0.0,0.0,2.0996,2.128,2.0581,2.1313,2.1628,2.1619,2.1395,2.1252,2.1259,2.0939,2.0793,2.084,2.1481,2.1108,1.9712,1.8028,1.7493,1.8063,1.7948,1.8235,1.8957,1.8781,1.8704,1.8822,1.8807,1.8461,1.775,1.74,1.664,1.5464,1.5079,1.4332,1.3107,1.3663,1.3136,1.1296,0.0,0.0,0.0,0.0,0.0,0.0,0.0,0.0,0.0,0.0,0.0,0.0,0.0,0.0,0.0,1.3961,0.0,1.643,1.8013,0.0,0.0,0.0,1.7985,1.8173,1.8812,1.986,2.1567,0.0,0.0,0.0,0.0,2.5904,2.5163,2.5072,2.5792,2.7751,2.6929,2.6505,2.7283,2.7752,2.7895,2.7185,2.7092,2.6481,2.5236,2.5035,2.4637,2.3992,2.4123,2.4005,2.3396,2.2886,2.2683,2.2302,2.2178,2.2116,2.1995,2.2029,2.2022,2.1752,2.1501,2.123,2.7263,2.6922,2.6435,2.5736,2.4913,2.4595,2.4571,2.4623,2.3543,2.3232,2.3465,2.2337,2.1838,2.1854,2.151,2.1578,2.1963,2.2075,2.2357,2.2729,2.2731,2.2728,2.2711,2.2642,2.2629,2.2591,2.1944,2.1626,2.1607,2.1401,2.14,2.1617,2.1396,2.0834,1.9996,2.0167,2.0345,2.0485,2.007,1.9588,1.9065,1.9044,1.8925,1.872,1.7401,1.654,1.6194,1.4991,1.4161,1.3837,1.3612,1.3552,1.3682,1.2368,0.0,0.0,0.0,0.0,0.0,0.0,0.0,0.0,0.0,1.2767,1.1312,0.0,1.2984,0.0,1.4645,1.5477,1.5674,1.6607,0.0,0.0,1.9071,1.9537,2.139,2.1222,2.1585,2.3102,2.4161,2.4839,2.493,2.5556,2.5674,2.4926,2.5863,2.6845,2.7342,2.6504,2.5887,2.6087,2.5699,2.519,2.5205,2.4798,2.4525,2.4035,2.3718,2.3548,2.3913,2.3955,2.3986,2.4033,2.363,2.3064,2.2411,2.1917,2.1442,2.1214,2.1347,2.1501,2.1425,2.1151,2.0738,2.7846,2.7399,2.7305,2.6786,2.6024,2.5627,2.5447,2.5371,2.4424,2.3967,2.3849,2.318,2.2831,2.2675,2.2588,2.2718,2.3007,2.2865,2.2962,2.3233,2.314,2.31,2.31,2.2964,2.2917,2.2867,2.2349,2.2116,2.2182,2.1951,2.2101,2.2672,2.2785,2.265,2.2223,2.2278,2.227,2.2243,2.1315,2.0278,1.9158,1.9113,1.9113,1.9078,1.8171,1.7489,1.7122,1.6253,1.5643,1.5338,1.4691,1.4591,1.5117,1.3943,1.3293,0.0,0.0,0.0,0.0,0.0,0.0,0.0,0.0,0.0,0.0,0.0,1.39,0.0,1.6054,0.0,1.7605,1.8731,1.9822,2.0826,2.1156,2.1719,2.2696,2.274,2.3129,2.4236,2.4751,2.4958,2.4828,2.5064,2.5092,2.456,2.5286,2.5882,2.5827,2.5365,2.5125,2.5392,2.5,2.4695,2.4832,2.4024,2.346,2.3609,2.3473,2.3293,2.3076,2.3235,2.3313,2.2938,2.2524,2.2145,2.1722,2.1181,2.069,2.0558,2.0374,2.0408,2.0674,2.0366,1.9814,2.8268,2.7568,2.7497,2.7472,2.7352,2.6615,2.6219,2.6062,2.5179,2.4725,2.4607,2.429,2.413,2.408,2.4006,2.3804,2.3515,2.3472,2.3259,2.2931,2.295,2.2968,2.3001,2.2733,2.2608,2.2571,2.2405,2.2424,2.2616,2.2738,2.2945,2.3274,2.3331,2.371,2.4399,2.4217,2.3994,2.3768,2.2283,2.081,1.9437,1.9403,1.9422,1.9395,1.9221,1.8794,1.8123,1.7884,1.7514,1.6931,1.6202,1.5836,1.5897,1.58,1.5423,0.0,1.5429,0.0,0.0,0.0,0.0,0.0,0.0,0.0,0.0,1.4636,1.5521,1.6913,1.7931,1.9088,2.0549,2.1939,2.2538,2.204,2.3226,2.3841,2.3235,2.3784,2.4436,2.5017,2.4968,2.4818,2.4642,2.4523,2.4403,2.4229,2.4265,2.4339,2.419,2.4209,2.4437,2.4976,2.4987,2.4796,2.4924,2.3931,2.3076,2.3426,2.3339,2.3005,2.1733,2.2042,2.2157,2.1129,2.0866,2.0777,2.0704,2.0343,1.9942,1.9753,1.9207,1.8986,1.9589,1.936,1.8738,2.9298,2.8987,2.8984,2.8995,2.8988,2.8138,2.7391,2.6811,2.6498,2.616,2.5773,2.5651,2.5544,2.5503,2.5503,2.5103,2.4503,2.4056,2.3587,2.3035,2.2465,2.2318,2.2525,2.2245,2.2252,2.2415,2.2417,2.2517,2.279,2.307,2.3574,2.4289,2.4506,2.4994,2.5712,0.0,0.0,0.0,2.228,2.1342,2.1062,2.1052,2.105,2.1025,1.9887,0.0,1.9011,1.784,1.7115,1.6984,1.6929,0.0,0.0,0.0,0.0,0.0,0.0,0.0,0.0,0.0,0.0,0.0,1.7281,1.6386,1.5263,1.7637,1.915,1.8875,2.0251,2.1257,2.1523,2.1765,2.2377,2.3509,2.3923,2.4283,2.4736,2.4877,2.4939,2.4917,2.4813,2.4626,2.4356,2.4257,2.4201,2.4083,2.4045,2.3969,2.3852,2.3965,2.41,2.4206,2.395,2.3672,2.3587,2.292,2.2318,2.2141,2.1895,2.1469,2.0714,2.0571,2.0747,2.0434,2.0489,2.0378,2.0069,1.9711,1.9219,1.8479,1.774,1.7518,1.8551,1.8412,1.7792,2.9491,0.0,2.9388,2.9409,0.0,2.8873,2.8403,2.7979,2.7013,2.6357,2.5891,2.5841,2.5792,2.5793,2.5768,2.5502,2.5034,2.4778,2.4398,2.3968,2.363,2.3554,2.3684,2.3156,2.2969,2.3038,2.272,2.2678,2.291,2.3144,2.354,2.4096,2.428,2.4523,2.4855,2.4892,2.454,2.3804,2.3037,2.226,2.1543,2.1161,2.0962,2.0925,0.0,0.0,0.0,0.0,0.0,0.0,0.0,0.0,0.0,0.0,0.0,1.6772,1.6843,1.6961,1.7087,1.7529,1.8164,1.9078,1.9578,1.9099,1.7349,1.9637,2.0973,2.0611,2.1691,2.2594,2.2987,2.2944,2.3385,2.4575,2.4658,2.4772,2.5105,2.5091,2.4955,2.4804,2.467,2.4458,2.4229,2.4144,2.4209,2.4372,2.4297,2.4271,2.4409,2.4114,2.3792,2.3598,2.3233,2.2925,2.2669,2.2275,2.1849,2.1562,2.1303,2.0952,2.0383,2.034,2.0404,2.0328,2.0136,1.9925,1.974,1.922,1.8508,1.7594,1.6904,1.636,1.6481,1.6503,1.6365,2.9388,2.9388,2.9388,2.9388,2.9377,2.9209,2.9108,2.892,0.0,0.0,0.0,2.5994,2.6012,2.6092,2.6021,2.5826,2.5542,2.5504,2.5316,2.4991,2.4976,2.4991,2.5003,2.4365,2.395,2.3727,2.3171,2.294,2.3045,2.316,2.3345,2.3548,2.3603,2.3611,2.3598,2.3643,2.3703,2.3804,2.3798,2.3184,2.193,2.1352,2.0981,2.0832,2.0203,1.9799,1.9636,1.8897,1.8525,1.8615,1.7975,1.7873,1.8508,1.8648,1.9026,1.9686,1.9912,1.9846,1.9497,1.9609,1.9735,1.9876,2.1354,2.1577,2.0008,2.1328,2.2245,2.2245,2.2971,2.3731,2.4437,2.4377,2.4572,2.5278,2.5174,2.507,2.5049,2.4945,2.4804,2.4664,2.4472,2.4282,2.4125,2.4085,2.4227,2.4612,2.4564,2.462,2.497,2.4465,2.3806,2.3391,2.3015,2.2651,2.2338,2.1862,2.1557,2.1372,2.1131,2.0775,2.0387,2.0301,2.0224,1.9864,1.958,1.9386,1.9198,1.8586,1.7733,1.6755,1.615,1.5499,1.439,1.4376,1.4545,2.9388,2.9388,2.9388,2.9388,2.9398,2.9356,2.9134,2.8725,2.824,2.7852,2.7591,2.7452,2.7452,2.76,2.7591,2.7181,2.6507,2.6315,2.5898,0.0,2.4966,2.4913,2.5068,2.4789,2.4394,2.3899,2.3779,2.3552,2.3219,2.325,2.3336,2.3415,2.3448,2.3485,2.3594,2.3562,2.3616,2.3804,2.3804,2.3705,2.3469,2.354,2.3229,2.248,2.1896,2.1302,2.0628,1.9939,1.9592,1.9595,1.9531,1.9249,1.8732,1.88,1.8897,1.912,1.9203,1.9851,2.1198,2.1386,2.1759,2.2525,2.3475,2.361,2.2689,2.3408,2.3938,2.3976,2.4616,2.5162,2.5248,2.5143,2.5091,2.519,2.505,2.4942,2.5014,2.4893,2.4776,2.4575,2.4319,2.4171,2.4009,2.4167,2.4393,2.439,2.4711,2.4824,2.484,2.4749,2.4365,2.3736,2.3143,2.2787,2.2501,2.1756,2.1265,2.1439,2.1008,2.0356,1.9344,1.9253,1.9146,1.8799,1.8715,1.8462,1.8051,1.7545,1.6809,1.5807,1.5062,1.4312,1.3531,1.2929,1.2439,2.9388,2.9388,2.9388,2.9388,2.9386,2.9156,2.8782,2.8318,2.8182,2.8051,2.7888,2.7748,2.7739,2.7786,2.7795,2.7572,2.7236,2.7143,2.6953,2.6638,2.6457,2.6408,2.6461,2.5999,2.5617,2.5352,2.4927,2.4382,2.3837,2.3876,2.3671,2.333,2.3295,2.3365,2.353,2.3603,2.3707,2.3905,2.3917,2.3933,2.3964,2.3758,2.3477,2.3056,2.2505,2.2004,2.1615,2.086,2.0446,2.0446,2.0552,2.0432,2.0111,2.0636,2.1005,2.1052,2.1164,2.1559,2.2343,2.2915,2.3371,2.3799,2.4577,2.4894,2.4488,2.4799,2.4973,2.495,2.5282,2.5626,2.6035,2.5909,2.5962,2.6421,2.6238,2.6108,2.6092,2.5972,2.5808,2.5616,2.5479,2.5221,2.478,2.4816,2.498,2.5125,2.5354,2.5288,2.485,2.4607,2.4308,2.3787,2.2965,2.2431,2.2291,2.1506,2.0912,2.078,2.0441,1.9763,1.8757,1.8596,1.8495,1.806,1.7803,1.7537,1.7198,1.6956,1.6211,1.517,1.4231,1.3456,1.2559,1.1366,1.0555,2.9388,2.9388,2.9388,2.9386,2.9314,2.8924,2.8518,2.8081,2.8014,2.7929,2.7842,2.7739,2.7701,2.7701,2.7701,2.7701,2.7701,2.7701,2.7701,2.7701,2.7701,2.7701,2.7657,2.7084,2.6752,2.6558,2.5962,2.5295,2.4646,2.4619,2.423,2.3525,2.3435,2.3493,2.3567,2.3646,2.3807,2.4056,2.4096,2.413,2.4142,2.3775,2.3477,2.3279,2.2824,2.2483,2.2285,2.1668,2.1327,2.1327,2.1478,2.1556,2.1594,2.2374,2.2936,2.3115,2.3255,2.3418,2.3637,2.4271,2.4695,2.47,2.5253,2.5673,2.5843,2.5862,2.5826,2.5774,2.59,2.6226,2.6718,2.663,2.6763,2.7395,2.7219,2.6941,2.6971,2.6907,2.6751,2.6527,2.6344,2.5982,2.563,2.5416,2.5466,2.5722,2.5751,2.5314,2.476,2.4246,2.3792,2.3348,2.2562,2.1961,2.1804,2.1075,2.037,1.9973,1.9653,1.9038,1.8226,1.8025,1.7924,1.7396,1.7031,1.6613,1.6404,1.6017,1.5325,1.4222,1.3159,1.2181,1.0817,0.976,0.8903,2.9388,2.9388,2.9388,2.9283,2.9098,2.8825,2.8543,2.8246,2.8032,2.7824,2.7739,2.7701,2.7701,2.7701,2.7701,2.7701,2.7701,2.7701,2.7701,2.7701,2.7701,2.7701,2.7701,2.7622,2.7271,2.669,2.6542,2.607,2.5331,2.5279,2.4928,2.4294,2.4201,2.4037,2.3748,2.371,2.389,2.4266,2.4401,2.4392,2.4312,2.4353,2.4062,2.3301,2.3373,2.3027,2.245,2.2281,2.2267,2.2291,2.2536,2.2649,2.2698,2.2879,2.3345,2.4094,2.4237,2.461,2.5339,2.5525,2.5562,2.5571,2.5606,2.5949,2.6604,2.6653,2.6617,2.6687,2.7084,2.7335,2.7491,2.7246,2.7142,2.7342,2.7176,2.6869,2.6814,2.6652,2.6515,2.6166,2.6095,2.5595,2.5531,2.5446,2.5447,2.5447,2.4814,2.432,2.4066,2.3381,2.2737,2.241,2.196,2.1571,2.1108,2.0448,1.9714,1.9309,1.8906,1.8154,1.741,1.7004,1.6885,1.627,1.6234,1.5823,1.492,1.446,1.3976,1.2891,1.1636,1.0348,0.8664,0.7876,0.7787,2.9388,2.9388,2.9388,2.9218,2.891,2.8644,2.8362,2.8109,2.7975,2.7833,2.7701,2.7701,2.7701,2.7701,2.7701,2.7701,2.7701,2.7701,2.7701,2.7701,2.7701,2.7701,2.7701,2.7701,2.7508,2.7271,2.7256,2.6862,2.6137,2.5647,2.5306,2.5203,2.5186,2.4978,2.4623,2.4702,2.4661,2.4356,2.4538,2.4578,2.4547,2.4578,2.4467,2.4192,2.4176,2.4123,2.3883,2.3859,2.3916,2.3986,2.4167,2.4265,2.4274,2.4406,2.4657,2.5103,2.5158,2.532,2.5674,2.5697,2.5898,2.6363,2.6357,2.6653,2.7447,2.7874,2.8092,2.7985,2.7771,2.7771,2.824,2.8029,2.795,2.8288,2.827,2.8111,2.7944,2.7894,2.7742,2.7288,2.7112,2.6748,2.6164,2.5495,2.5032,2.4713,2.3964,2.331,2.2922,2.2136,2.15,2.0935,2.0361,1.9966,1.9866,1.9472,1.8748,1.8082,1.7681,1.7208,1.6337,1.6011,1.5718,1.4845,1.4728,1.4168,1.2874,1.2631,1.2269,1.1236,1.0176,0.889,0.7384,0.6864,0.6629,2.9388,2.9398,2.9344,2.9112,2.8767,2.8492,2.821,2.7986,2.7871,2.7786,2.7701,2.7701,2.7701,2.7701,2.7701,2.7701,2.7701,2.7701,2.7701,2.7701,2.7701,2.7701,2.7701,2.7701,2.7701,2.7701,2.7683,2.7441,2.6981,2.648,2.6206,2.626,2.6272,2.606,2.5693,2.5798,2.5523,2.4922,2.4998,2.4951,2.4745,2.4682,2.4682,2.4698,2.4734,2.479,2.4902,2.4959,2.5063,2.513,2.5274,2.537,2.537,2.5482,2.558,2.5678,2.5693,2.5693,2.5702,2.59,2.6274,2.6825,2.7007,2.7481,2.8218,2.878,2.9091,2.9193,2.857,2.8459,2.8831,2.8714,2.8733,2.9101,2.9056,2.8924,2.8731,2.8633,2.8332,2.7991,2.7405,2.7141,2.6265,2.5163,2.4296,2.3998,2.2996,2.2037,2.1438,2.0703,1.9953,1.927,1.8513,1.8389,1.8702,1.8389,1.7643,1.6818,1.6378,1.5855,1.504,1.4805,1.436,1.333,1.3053,1.2492,1.141,1.0971,1.0398,0.9475,0.8543,0.7526,0.6177,0.5717,0.5124,2.9388,2.9384,2.9197,2.8934,2.8678,2.8423,2.8136,2.7926,2.7786,2.7701,2.7701,2.7701,2.7701,2.7701,2.7701,2.7701,2.7701,2.7701,2.7701,2.7701,2.7701,2.7701,2.7701,2.7701,2.7701,2.7751,2.7722,2.7785,2.794,2.7933,2.7776,2.7436,2.7431,2.7189,2.6783,2.6747,2.6479,2.597,2.5928,2.5596,2.4867,2.4754,2.4754,2.48,2.4828,2.4879,2.4942,2.5149,2.5283,2.5303,2.5405,2.5505,2.5559,2.5594,2.5632,2.5702,2.5723,2.573,2.5832,2.6435,2.6926,2.7057,2.7619,2.8278,2.8994,2.9075,2.9297,2.9951,2.9536,2.9345,2.9231,2.9059,2.8933,2.8841,2.8821,2.8709,2.8509,2.8246,2.7971,2.7568,2.6738,2.5898,2.5105,2.4138,2.3603,2.312,2.1965,2.07,2.0073,1.9227,1.8341,1.7577,1.7147,1.7158,1.7671,1.7252,1.6481,1.5641,1.4876,1.4278,1.3653,1.307,1.2369,1.1858,1.1673,1.1107,0.9983,0.9096,0.8385,0.767,0.7152,0.6165,0.4977,0.4434,0.3887,3.0578,2.9898,2.92,2.8758,2.8492,2.821,2.8025,2.7897,2.7748,2.7701,2.7701,2.771,2.7701,2.7701,2.7701,2.7701,2.7701,2.7701,2.7701,2.7701,2.7701,2.7701,2.7701,2.7701,2.78,2.7934,2.7867,2.797,2.8192,2.8133,2.823,2.8443,2.8458,2.8234,2.7848,2.7793,2.7474,2.6857,2.6763,2.659,2.623,2.5797,2.5557,2.5561,2.5139,2.4943,2.5012,2.5216,2.5346,2.5433,2.5485,2.553,2.5582,2.5644,2.5682,2.5746,2.6172,2.645,2.652,2.72,2.789,2.8347,2.8597,2.9042,2.9625,2.9723,2.9727,2.9732,2.956,2.929,2.9073,2.9048,2.8957,2.8694,2.8585,2.8422,2.8083,2.7858,2.753,2.6714,2.5814,2.5004,2.4115,2.3237,2.2474,2.1716,2.0369,1.9407,1.8925,1.8132,1.7258,1.6813,1.6012,1.538,1.5558,1.5496,1.4988,1.4173,1.3403,1.2765,1.2108,1.1607,1.1034,1.0421,1.0229,0.9588,0.8522,0.7358,0.6586,0.5928,0.541,0.4935,0.385,0.3347,0.2729,3.1316,3.0621,2.9785,2.9294,2.9089,2.8827,2.8659,2.8608,2.8521,2.8473,2.8465,2.8473,2.8473,2.8482,2.8482,2.8307,2.8061,2.7833,2.7701,2.7701,2.7701,2.7701,2.7701,2.7701,2.784,2.8066,2.8093,2.8228,2.8491,2.8452,2.8682,2.9135,2.9165,2.9034,2.8793,2.8783,2.8398,2.7731,2.7589,2.7473,2.7188,2.6717,2.6475,2.646,2.6049,2.5583,2.5219,2.5292,2.5397,2.5492,2.5511,2.5656,2.5965,2.6071,2.6213,2.6533,2.6985,2.7261,2.7326,2.8016,2.8676,2.9089,2.9373,2.9682,3.0009,2.9973,2.9815,2.9598,2.9367,2.9095,2.8883,2.8773,2.8608,2.8326,2.8237,2.8055,2.7595,2.7277,2.6615,2.5652,2.4863,2.4055,2.3223,2.2306,2.1377,2.0401,1.9107,1.8323,1.7803,1.6874,1.5955,1.5653,1.4559,1.3797,1.3541,1.3228,1.3288,1.259,1.1793,1.1103,1.0662,1.0216,0.9651,0.9099,0.853,0.7882,0.6976,0.5806,0.4949,0.4287,0.396,0.3571,0.2782,0.2196,0.158,3.1523,3.1393,3.0903,3.0498,3.0335,3.0083,3.0096,2.993,2.9948,2.9843,2.979,2.9966,2.9834,2.9966,2.9825,2.9579,2.8886,2.8254,2.785,2.771,2.7701,2.7701,2.7701,2.7722,2.7897,2.8183,2.8367,2.8646,2.8924,2.8934,2.9091,2.9403,2.9463,2.9475,2.9645,2.9542,2.9223,2.8585,2.8425,2.8087,2.7343,2.7384,2.7419,2.7452,2.7518,2.6908,2.5524,2.5568,2.5724,2.5675,2.5685,2.5993,2.6773,2.692,2.7267,2.7855,2.8085,2.8118,2.8184,2.8821,2.9201,2.9246,2.9688,2.9942,2.9861,2.9742,2.9626,2.9542,2.9291,2.9021,2.8773,2.8378,2.8,2.776,2.7742,2.7573,2.7147,2.6471,2.5566,2.456,2.3876,2.3194,2.2342,2.1349,2.0325,1.9325,1.8288,1.744,1.6715,1.557,1.4291,1.3429,1.283,1.235,1.1611,1.0992,1.111,1.1048,1.017,0.9479,0.9285,0.8837,0.8195,0.763,0.7098,0.6449,0.5593,0.4482,0.3812,0.3136,0.2748,0.2318,0.1602,0.1019,0.0497,3.2107,3.171,3.0989,3.054,3.0344,3.022,3.0152,3.0097,3.0106,3.0106,3.0106,3.0106,3.0106,3.0115,3.0106,2.9983,2.9702,2.943,2.8789,2.7885,2.7727,2.7719,2.7769,2.7897,2.8165,2.8498,2.8731,2.8924,2.9035,2.903,2.9154,2.9403,2.9521,2.9579,2.9626,2.9664,2.9523,2.9345,2.9288,2.9194,2.9005,2.8537,2.8374,2.8508,2.8085,2.7527,2.7199,2.7214,2.7232,2.7194,2.727,2.746,2.7723,2.7797,2.7893,2.8135,2.8695,2.8955,2.8956,2.948,2.9845,2.9786,2.9894,2.9864,2.9724,2.9635,2.9542,2.9443,2.9115,2.8872,2.8709,2.8183,2.7762,2.7701,2.7483,2.7204,2.6724,2.5883,2.4879,2.3903,2.3113,2.2296,2.1301,2.0187,1.9129,1.8293,1.7113,1.6061,1.5766,1.4625,1.3059,1.1714,1.1265,1.0874,1.0179,0.9479,0.9157,0.9148,0.8583,0.814,0.7887,0.7495,0.6787,0.6197,0.5666,0.4938,0.4015,0.3214,0.2477,0.1928,0.1505,0.0968,0.0319,-0.0251,-0.08,3.2644,3.229,3.1634,3.124,3.1053,3.1029,3.1005,3.0957,3.0957,3.0966,3.0966,3.0966,3.0957,3.0957,3.0957,3.0782,3.0536,3.051,2.9816,2.8667,2.8228,2.814,2.8159,2.82,2.8455,2.8815,2.9035,2.9156,2.9209,2.9185,2.9242,2.9423,2.955,2.9607,2.9626,2.9664,2.9692,2.9692,2.9683,2.9758,2.9793,2.9462,2.9327,2.9448,2.9071,2.8908,2.8963,2.8982,2.8672,2.8189,2.8099,2.8296,2.8627,2.8673,2.8753,2.91,2.9467,2.9786,2.9747,2.9994,3.0144,3.0042,2.9883,2.9716,2.957,2.9522,2.9453,2.9274,2.9003,2.8707,2.8456,2.7934,2.7504,2.7321,2.7132,2.6733,2.6079,2.5035,2.4055,2.315,2.231,2.126,2.006,1.9147,1.7915,1.7074,1.5896,1.5067,1.4796,1.3579,1.1781,1.0355,0.9895,0.9418,0.8857,0.8089,0.7253,0.7118,0.692,0.6789,0.6724,0.6127,0.554,0.4874,0.4344,0.3473,0.2546,0.1674,0.0937,0.0596,0.0328,-0.0194,-0.0766,-0.1448,-0.1988,3.3077,3.3033,3.263,3.2393,3.2341,3.2299,3.2221,3.2327,3.2309,3.2248,3.2274,3.2177,3.2256,3.2327,3.221,3.1892,3.1428,3.1403,3.1076,3.03,2.9647,2.92,2.9003,2.8837,2.8877,2.9035,2.9262,2.9368,2.9347,2.9372,2.9423,2.9483,2.9579,2.9626,2.9664,2.9692,2.9692,2.9692,2.9692,2.9758,2.9917,3.0003,3.0104,3.025,3.0337,3.0366,3.0337,3.0306,2.9753,2.8534,2.8534,2.89,2.9404,2.9505,2.9786,3.0327,3.0559,3.0492,3.0432,3.0239,3.0103,2.9943,2.9723,2.9532,2.942,2.9358,2.9274,2.9026,2.8797,2.8453,2.7922,2.7461,2.7019,2.6624,2.6522,2.6104,2.5083,2.4142,2.3223,2.2296,2.1342,2.0206,1.8861,1.8095,1.6946,1.5771,1.4718,1.4161,1.3796,1.2371,1.0236,0.9142,0.8511,0.8009,0.7505,0.7109,0.6264,0.5328,0.52,0.5269,0.5203,0.4674,0.3875,0.3278,0.2879,0.201,0.1207,0.0469,-0.0067,-0.0334,-0.066,-0.1168,-0.1729,-0.2343,-0.284,3.2939,3.2657,3.2523,3.2473,3.2422,3.2397,3.2406,3.2414,3.2406,3.244,3.2406,3.2414,3.2431,3.244,3.263,3.2559,3.2414,3.2568,3.2682,3.2379,3.1669,3.073,3.0022,2.9783,2.9577,2.9363,2.9439,2.9398,2.9407,2.9451,2.9472,2.9512,2.9608,2.9664,2.9692,2.9692,2.9692,2.9692,2.9692,2.9823,3.0,3.0085,3.0231,3.0511,3.0578,3.0607,3.0606,3.0642,3.0564,3.0188,3.0053,3.0118,3.0291,3.0273,3.0347,3.054,3.0607,3.0569,3.046,3.0231,3.0047,2.9943,2.9653,2.9364,2.9188,2.916,2.8962,2.8606,2.8316,2.7834,2.7063,2.6776,2.6344,2.555,2.5566,2.5562,2.4978,2.3927,2.2579,2.1383,2.0408,1.9304,1.8126,1.6863,1.5736,1.4632,1.3446,1.2532,1.2426,1.1231,0.909,0.7924,0.7156,0.6717,0.6268,0.5935,0.5203,0.3867,0.347,0.3472,0.3405,0.3139,0.214,0.1139,0.1206,0.0604,0.0067,-0.0537,-0.0873,-0.121,-0.152,-0.1948,-0.2454,-0.3011,-0.3392,3.2737,3.2507,3.2473,3.2422,3.2431,3.2523,3.2532,3.2516,3.2681,3.2657,3.2557,3.2696,3.2713,3.269,3.2885,3.3032,3.3014,3.3214,3.3264,3.3239,3.2937,3.2045,3.1026,3.0684,3.0429,2.9962,2.9918,2.9714,2.9483,2.9471,2.9502,2.9521,2.9636,2.9692,2.9692,2.9692,2.9692,2.9711,2.9756,2.9877,3.0085,3.0165,3.0338,3.0559,3.0607,3.0617,3.0635,3.068,3.0719,3.0727,3.0748,3.0747,3.0699,3.0673,3.0627,3.0607,3.0607,3.0569,3.043,3.0193,3.0018,2.9871,2.9533,2.9282,2.9119,2.9016,2.8755,2.8264,2.8056,2.7368,2.6277,2.5715,2.5192,2.4697,2.4441,2.4439,2.4488,2.3006,2.1677,2.054,1.9515,1.8293,1.7041,1.5678,1.45,1.3301,1.2028,1.1586,1.1323,0.9676,0.8066,0.6633,0.5982,0.5665,0.4937,0.4472,0.38,0.2535,0.1401,0.147,0.1537,0.1403,0.087,0.0067,-0.0269,-0.0672,-0.1075,-0.1477,-0.1747,-0.2072,-0.2371,-0.2753,-0.3269,-0.3708,-0.4096,3.2539,3.2456,3.2431,3.2414,3.2466,3.2645,3.2621,3.2606,3.2943,3.2975,3.2784,3.3081,3.309,3.3019,3.3232,3.335,3.3332,3.3447,3.3447,3.3523,3.3506,3.3013,3.2004,3.1673,3.1279,3.0816,3.0705,3.0401,3.0088,2.99,2.9744,2.982,2.987,2.9767,2.973,2.9692,2.9692,2.9719,2.9771,2.9926,3.0103,3.0204,3.0381,3.0569,3.0607,3.0627,3.0665,3.0703,3.0711,3.07,3.0806,3.0794,3.0717,3.0704,3.0656,3.0607,3.0607,3.055,3.0399,3.0235,3.0039,2.9829,2.9475,2.9175,2.9071,2.891,2.8533,2.7908,2.7864,2.6869,2.5504,2.4297,2.3764,2.3549,2.3062,2.2893,2.279,2.1676,2.0403,1.9681,1.8376,1.6935,1.5606,1.4446,1.3365,1.1428,1.0349,0.9923,0.9461,0.8252,0.6517,0.4865,0.4606,0.474,0.3808,0.2875,0.2137,0.1202,-0.0401,-0.0802,-0.0535,-0.0535,-0.0469,-0.0806,-0.1609,-0.1945,-0.2013,-0.2349,-0.2685,-0.2948,-0.3253,-0.3727,-0.4205,-0.4572,-0.4954,3.2464,3.2422,3.2397,3.2414,3.2431,3.2523,3.2557,3.2532,3.2696,3.2848,3.2912,3.3028,3.3151,3.3262,3.355,3.3671,3.3689,3.3876,3.4005,3.403,3.4065,3.4003,3.341,3.2923,3.2247,3.1708,3.1522,3.1402,3.1278,3.1147,3.108,3.054,3.0545,3.033,2.9814,2.9805,2.9701,2.9701,2.9754,2.9881,3.0095,3.02,3.0362,3.0579,3.0607,3.0607,3.0636,3.0723,3.0759,3.0732,3.0728,3.0744,3.0709,3.0656,3.0627,3.0607,3.0598,3.053,3.0398,3.0253,3.0103,2.9928,2.9561,2.9249,2.8961,2.8749,2.8264,2.7552,2.6865,2.5979,2.445,2.332,2.2577,2.2117,2.1567,2.1249,2.114,2.0302,1.897,1.7384,1.639,1.5308,1.3973,1.2704,1.1363,0.9629,0.8782,0.819,0.7475,0.6686,0.5277,0.3613,0.3745,0.3675,0.2069,0.1068,0.0133,-0.0467,-0.1738,-0.2811,-0.2474,-0.2209,-0.2011,-0.2414,-0.315,-0.3218,-0.3016,-0.335,-0.3686,-0.3951,-0.415,-0.4483,-0.4883,-0.5347,-0.5609,3.2457,3.2406,3.2414,3.2414,3.2431,3.2581,3.2606,3.259,3.2816,3.2975,3.3077,3.325,3.3446,3.3615,3.385,3.3989,3.4023,3.4124,3.4206,3.4206,3.4206,3.4206,3.416,3.3751,3.3148,3.247,3.2349,3.22,3.1957,3.1949,3.1706,3.136,3.1416,3.1044,3.0377,3.0246,3.0086,2.9863,2.9862,2.9988,3.018,3.0324,3.0439,3.0579,3.0617,3.0606,3.0664,3.0749,3.0763,3.0745,3.0722,3.0688,3.0645,3.0607,3.0607,3.0607,3.0607,3.051,3.0371,3.0289,3.0152,2.9907,2.9532,2.9251,2.8883,2.8565,2.789,2.7173,2.6482,2.5596,2.3857,2.2157,2.1314,2.0721,2.0092,1.9859,1.9825,1.9149,1.7466,1.5457,1.4452,1.3538,1.2369,1.0967,0.9337,0.7648,0.7332,0.6793,0.6017,0.5223,0.4213,0.3147,0.3146,0.2474,0.0468,-0.0869,-0.1869,-0.2472,-0.3076,-0.3946,-0.414,-0.3814,-0.3556,-0.3888,-0.4086,-0.402,-0.3886,-0.4287,-0.4618,-0.4749,-0.4948,-0.5216,-0.5679,-0.6207,-0.6276,3.2439,3.2414,3.2414,3.2414,3.2457,3.2663,3.2654,3.259,3.2988,3.3111,3.3229,3.3606,3.3725,3.3947,3.409,3.4197,3.4206,3.4206,3.4206,3.4206,3.4206,3.4206,3.4169,3.4048,3.3798,3.3222,3.3175,3.2823,3.2497,3.2284,3.2499,3.225,3.2259,3.187,3.126,3.1053,3.0782,3.0266,3.0282,3.024,3.0298,3.0423,3.0528,3.0598,3.0617,3.0636,3.0697,3.0767,3.0813,3.0797,3.0723,3.0656,3.0588,3.0424,3.053,3.053,3.0433,3.0296,3.0314,3.0278,3.0142,2.9779,2.9435,2.9095,2.8795,2.8289,2.7634,2.6794,2.6004,2.4846,2.3316,2.144,2.0092,1.9395,1.8625,1.8288,1.8143,1.7555,1.535,1.3188,1.2389,1.1745,1.045,0.9024,0.7378,0.604,0.5718,0.5264,0.4551,0.3824,0.2882,0.1806,0.1605,0.06,-0.1336,-0.2469,-0.3539,-0.3876,-0.4417,-0.488,-0.5411,-0.515,-0.4821,-0.4687,-0.4752,-0.4687,-0.4753,-0.5019,-0.5284,-0.5481,-0.5679,-0.5879,-0.6408,-0.7068,-0.7003,3.2397,3.2414,3.2414,3.2414,3.244,3.2489,3.2523,3.2541,3.2672,3.2948,3.3332,3.3419,3.3734,3.4065,3.4182,3.4206,3.4206,3.4206,3.4206,3.4206,3.4206,3.4206,3.4206,3.4206,3.4076,3.4058,3.3937,3.3761,3.3752,3.3915,3.3471,3.3147,3.313,3.2752,3.2133,3.1851,3.1572,3.1003,3.0985,3.0868,3.0662,3.065,3.0766,3.0869,3.0946,3.0933,3.0862,3.0877,3.0838,3.073,3.0704,3.0713,3.0627,3.0144,3.0134,3.0434,3.0279,3.0245,3.0337,3.0339,3.0044,2.9653,2.9316,2.8966,2.8554,2.8057,2.7313,2.6173,2.4665,2.2983,2.1077,1.9869,1.873,1.7716,1.6733,1.5763,1.4519,1.3673,1.2625,1.0404,1.005,0.9784,0.8252,0.6903,0.5423,0.4393,0.4004,0.3608,0.2949,0.235,0.1679,0.067,-0.0334,-0.167,-0.3277,-0.4139,-0.5008,-0.5008,-0.5413,-0.5747,-0.6147,-0.615,-0.6018,-0.6007,-0.5743,-0.5617,-0.5749,-0.5883,-0.6079,-0.6272,-0.6408,-0.6541,-0.7129,-0.7717,-0.7847,3.2431,3.2406,3.2414,3.2414,3.2406,3.2422,3.2448,3.2448,3.2507,3.2816,3.3232,3.337,3.368,3.4099,3.4206,3.4206,3.4206,3.4206,3.4206,3.4206,3.4206,3.4206,3.4206,3.4206,3.4206,3.4197,3.4197,3.4206,3.4231,3.4312,3.4162,3.3988,3.3955,3.3597,3.2978,3.2771,3.2411,3.198,3.1867,3.1862,3.1672,3.1738,3.1813,3.1874,3.1942,3.2045,3.2055,3.2139,3.216,3.2109,3.2069,3.1952,3.1572,3.1117,3.0721,3.1068,3.1033,3.0839,3.0734,3.0636,3.0326,2.9483,2.9107,2.8786,2.8297,2.7683,2.6674,2.5122,2.3298,2.1518,2.0399,1.8607,1.7148,1.5997,1.4892,1.3228,1.1671,1.0867,0.9331,0.7739,0.7602,0.7076,0.5935,0.4575,0.3398,0.2743,0.2347,0.188,0.1344,0.0873,0.0403,-0.0736,-0.1871,-0.314,-0.4411,-0.5274,-0.5939,-0.6009,-0.6272,-0.6673,-0.6872,-0.6937,-0.726,-0.7447,-0.7123,-0.6734,-0.6605,-0.6669,-0.6868,-0.7129,-0.7386,-0.7644,-0.7969,-0.8296,-0.8613,3.2457,3.2414,3.2414,3.2414,3.2414,3.2414,3.2406,3.2414,3.2406,3.2737,3.3252,3.3332,3.3643,3.4074,3.4206,3.4206,3.4206,3.4206,3.4206,3.4206,3.4158,3.4158,3.4197,3.4148,3.4133,3.4206,3.4206,3.4206,3.4231,3.4349,3.4395,3.4357,3.4502,3.4329,3.3766,3.3635,3.3299,3.2982,3.285,3.2983,3.3062,3.3112,3.3121,3.314,3.3238,3.3222,3.3118,3.3144,3.3152,3.3108,3.31,3.3066,3.2842,3.2398,3.2135,3.2177,3.2383,3.1905,3.1533,3.0882,3.0434,2.9638,2.8891,2.8551,2.7986,2.6951,2.5436,2.3548,2.1589,1.9902,1.8792,1.68,1.5201,1.4055,1.2623,1.0985,0.9412,0.8076,0.6569,0.5519,0.5267,0.4617,0.365,0.3132,0.2075,0.1539,0.114,0.0536,-0.0,-0.0469,-0.1138,-0.2206,-0.334,-0.4476,-0.5479,-0.6073,-0.6537,-0.6669,-0.6994,-0.7388,-0.7584,-0.7714,-0.8034,-0.8353,-0.8293,-0.7902,-0.7712,-0.7517,-0.7649,-0.7907,-0.8358,-0.874,-0.9055,-0.9558,-0.9996,3.2457,3.2414,3.2414,3.2414,3.2414,3.2414,3.2414,3.2414,3.244,3.2746,3.3282,3.3341,3.3652,3.4099,3.4206,3.4206,3.4206,3.4206,3.4206,3.4182,3.4074,3.4083,3.4158,3.4002,3.4102,3.4182,3.4206,3.4206,3.4231,3.4326,3.4395,3.4418,3.4517,3.4508,3.4339,3.4264,3.4155,3.3691,3.3684,3.3594,3.3302,3.3285,3.3314,3.3352,3.3432,3.3548,3.3683,3.3715,3.3635,3.3492,3.3247,3.3063,3.2987,3.3369,3.3503,3.3102,3.239,3.1512,3.1817,3.1334,3.0537,2.9825,2.9023,2.8431,2.7446,2.5893,2.3879,2.1219,1.9579,1.8105,1.6648,1.4359,1.2829,1.1602,1.0322,0.8748,0.7216,0.5661,0.4101,0.2983,0.2581,0.2256,0.1667,0.1406,0.1008,0.047,-0.0134,-0.0738,-0.1407,-0.1939,-0.3065,-0.4264,-0.4861,-0.5868,-0.64,-0.7062,-0.7258,-0.7391,-0.7649,-0.8102,-0.8482,-0.8672,-0.8675,-0.893,-0.9061,-0.9311,-0.9113,-0.8921,-0.8613,-0.8807,-0.9247,-0.9752,-1.0192,-1.0693,-1.1187,3.2491,3.2414,3.2414,3.2414,3.2414,3.2414,3.2414,3.2414,3.259,3.2862,3.3282,3.3522,3.3823,3.4148,3.4206,3.4206,3.4206,3.4206,3.4206,3.4206,3.409,3.4108,3.4158,3.4127,3.4142,3.4167,3.4206,3.4206,3.4255,3.4302,3.434,3.4418,3.4486,3.4561,3.4592,3.4602,3.4553,3.4515,3.4653,3.4728,3.4607,3.4552,3.4562,3.46,3.464,3.4668,3.4711,3.4804,3.4788,3.4709,3.4586,3.4443,3.4374,3.4485,3.4582,3.4309,3.3523,3.2908,3.2598,3.189,3.0941,2.9746,2.8792,2.7851,2.6539,2.4516,2.2622,2.0761,1.8521,1.6539,1.4716,1.2731,1.1227,0.9776,0.7979,0.6626,0.5053,0.3382,0.1926,0.0867,-0.0067,-0.02,-0.0334,-0.0668,-0.1004,-0.1406,-0.1807,-0.2275,-0.3008,-0.3671,-0.4992,-0.6582,-0.6915,-0.7183,-0.7512,-0.7972,-0.8034,-0.8099,-0.8164,-0.8675,-0.9436,-0.9755,-0.9815,-1.0378,-1.1006,-1.1006,-1.0627,-1.0199,-0.9831,-0.9952,-1.0199,-1.0763,-1.1384,-1.1629,-1.2062,3.2457,3.2414,3.2414,3.2414,3.2414,3.2414,3.2414,3.2431,3.2669,3.2992,3.3332,3.3689,3.4014,3.4173,3.4206,3.4206,3.4188,3.4139,3.4133,3.4117,3.4083,3.4058,3.4067,3.4102,3.4129,3.4206,3.4206,3.4206,3.4231,3.4255,3.4302,3.4372,3.4463,3.4527,3.457,3.4614,3.4675,3.4948,3.528,3.5469,3.5539,3.5588,3.5597,3.566,3.5766,3.583,3.588,3.5801,3.5755,3.5647,3.5508,3.5274,3.5163,3.4968,3.4856,3.4517,3.3792,3.3089,3.2579,3.1878,3.1011,2.9689,2.7879,2.6389,2.4485,2.2505,2.0416,1.8855,1.6764,1.4505,1.251,1.0606,0.887,0.7176,0.5628,0.4377,0.3008,0.1265,0.0133,-0.0533,-0.1471,-0.2341,-0.2541,-0.2808,-0.3077,-0.3347,-0.3613,-0.3877,-0.4603,-0.546,-0.6449,-0.7904,-0.7969,-0.8034,-0.8229,-0.8487,-0.8681,-0.8994,-0.9058,-0.9561,-1.0571,-1.1073,-1.1194,-1.1885,-1.2634,-1.2262,-1.1567,-1.1278,-1.1108,-1.1274,-1.1509,-1.2077,-1.2516,-1.2757,-1.2944,3.2439,3.2414,3.2414,3.2414,3.2414,3.2414,3.2414,3.2431,3.2693,3.3023,3.3428,3.3876,3.4139,3.4188,3.4197,3.4188,3.4179,3.3998,3.3957,3.3897,3.3762,3.3824,3.3913,3.3994,3.405,3.4176,3.4206,3.4206,3.4206,3.4231,3.4255,3.4335,3.4427,3.4482,3.4549,3.4635,3.4793,3.5083,3.5432,3.5644,3.5694,3.5713,3.5723,3.5776,3.5791,3.5816,3.5885,3.5842,3.5799,3.5724,3.563,3.5424,3.5247,3.4998,3.4812,3.4433,3.364,3.2862,3.221,3.1358,3.0466,2.9202,2.7142,2.4492,2.2658,2.0661,1.8439,1.6024,1.4224,1.1626,0.9405,0.7469,0.6044,0.4228,0.2825,0.1841,0.0473,-0.0933,-0.1934,-0.2139,-0.3006,-0.42,-0.4858,-0.5116,-0.4532,-0.4671,-0.5196,-0.5458,-0.6576,-0.7435,-0.776,-0.849,-0.8554,-0.8619,-0.8678,-0.9061,-0.9697,-1.0259,-1.0571,-1.1197,-1.2012,-1.2324,-1.232,-1.2801,-1.3235,-1.2875,-1.2634,-1.263,-1.2626,-1.2569,-1.2757,-1.3009,-1.3325,-1.3571,-1.3821,3.2422,3.2414,3.2414,3.2414,3.2414,3.2414,3.2414,3.2457,3.2784,3.3223,3.3689,3.4039,3.4206,3.4206,3.4197,3.4132,3.4018,3.3926,3.3896,3.3835,3.3744,3.3798,3.393,3.397,3.4018,3.4173,3.4206,3.4206,3.4206,3.4206,3.4221,3.4269,3.4358,3.4418,3.4508,3.47,3.4917,3.5107,3.5383,3.5594,3.5704,3.5704,3.5733,3.5793,3.5799,3.586,3.5926,3.5847,3.5795,3.5745,3.566,3.5434,3.5139,3.489,3.4643,3.4325,3.3419,3.2609,3.1542,3.0574,2.9509,2.7569,2.5185,2.2713,2.0894,1.8956,1.6783,1.4375,1.1585,0.873,0.6684,0.4963,0.3407,0.1354,-0.0,-0.0836,-0.1985,-0.3306,-0.4191,-0.4453,-0.5568,-0.6757,-0.7212,-0.7469,-0.6633,-0.599,-0.658,-0.7233,-0.8342,-0.9128,-0.9381,-0.9633,-0.9764,-0.9955,-1.0075,-1.0521,-1.0965,-1.1399,-1.1958,-1.2455,-1.3013,-1.3074,-1.3187,-1.3601,-1.4016,-1.4021,-1.408,-1.414,-1.3965,-1.3429,-1.3377,-1.3567,-1.3941,-1.4323,-1.4446,3.1712,3.1739,3.1949,3.2186,3.2388,3.2414,3.2414,3.2457,3.2761,3.3291,3.3877,3.4049,3.4148,3.4163,3.4114,3.4046,3.3873,3.3732,3.368,3.3613,3.3613,3.3753,3.391,3.4059,3.4083,3.4188,3.4206,3.4206,3.4206,3.4206,3.4206,3.4221,3.4245,3.433,3.4476,3.4772,3.5018,3.5159,3.5321,3.5499,3.5625,3.5651,3.5701,3.5764,3.5799,3.5841,3.5905,3.586,3.5785,3.5756,3.567,3.5424,3.5094,3.4764,3.4463,3.3939,3.3232,3.2335,3.0933,2.9446,2.7763,2.5303,2.2972,2.084,1.887,1.6191,1.3252,1.1459,0.8636,0.5884,0.3744,0.2328,0.0595,-0.1318,-0.2034,-0.2875,-0.4169,-0.545,-0.6232,-0.6894,-0.7867,-0.8559,-0.8631,-0.8818,-0.8876,-0.8302,-0.8893,-0.947,-1.0113,-1.064,-1.077,-1.0961,-1.1153,-1.1406,-1.1663,-1.1714,-1.1768,-1.2332,-1.2826,-1.3256,-1.3631,-1.3748,-1.4103,-1.4569,-1.4986,-1.5289,-1.5284,-1.5099,-1.4574,-1.3992,-1.3997,-1.4121,-1.4134,-1.4451,-1.4616,3.022,3.0255,3.0966,3.1695,3.23,3.2388,3.2414,3.2422,3.2711,3.3184,3.3707,3.3833,3.3989,3.4065,3.3963,3.3845,3.371,3.3373,3.3241,3.3295,3.3384,3.3493,3.3716,3.3911,3.409,3.4154,3.4176,3.4154,3.4206,3.4158,3.4182,3.4206,3.4231,3.4236,3.4349,3.4711,3.499,3.5165,3.5249,3.5364,3.5488,3.5528,3.5613,3.5736,3.5799,3.5838,3.5879,3.5877,3.5796,3.5722,3.5699,3.5387,3.4874,3.4636,3.4149,3.3332,3.2116,3.082,2.9309,2.7556,2.5094,2.2624,2.0329,1.7868,1.4698,1.1784,0.9432,0.8,0.4863,0.2372,0.0771,-0.0617,-0.2505,-0.3831,-0.462,-0.5493,-0.6812,-0.7545,-0.8328,-0.9229,-0.9558,-0.9806,-0.9825,-1.0027,-1.0534,-1.0795,-1.1333,-1.1655,-1.183,-1.183,-1.1772,-1.1776,-1.19,-1.2328,-1.2455,-1.2451,-1.2634,-1.3199,-1.3692,-1.4112,-1.4474,-1.4706,-1.5118,-1.5589,-1.5763,-1.5874,-1.5879,-1.5821,-1.523,-1.4706,-1.4611,-1.4616,-1.457,-1.4625,-1.4902,3.0106,3.0176,3.0896,3.1344,3.1668,3.2177,3.2414,3.2466,3.2687,3.3001,3.333,3.3494,3.3643,3.3734,3.3698,3.3597,3.3337,3.3286,3.3109,3.3069,3.316,3.33,3.3521,3.3781,3.3996,3.4011,3.4013,3.409,3.4206,3.4099,3.4124,3.4182,3.4206,3.4255,3.4353,3.4609,3.4841,3.4944,3.5055,3.5189,3.5407,3.544,3.5538,3.5713,3.5772,3.5834,3.5889,3.5869,3.58,3.5683,3.5637,3.5251,3.468,3.4366,3.3817,3.2907,3.1699,2.9677,2.6793,2.4034,2.1875,1.9674,1.7798,1.4961,1.1417,0.9583,0.7133,0.44,0.1609,-0.0694,-0.231,-0.4689,-0.6563,-0.7522,-0.8286,-0.8817,-0.9707,-0.9883,-1.0408,-1.1454,-1.2123,-1.251,-1.2679,-1.2249,-1.2554,-1.2513,-1.2854,-1.2504,-1.2557,-1.2381,-1.2266,-1.2266,-1.2451,-1.2935,-1.3239,-1.342,-1.3833,-1.4506,-1.4701,-1.4829,-1.5186,-1.5478,-1.5826,-1.6109,-1.6223,-1.64,-1.6343,-1.6233,-1.5879,-1.5536,-1.5483,-1.5313,-1.5254,-1.5366,-1.5531,2.9263,2.936,3.008,3.0396,3.0624,3.1826,3.2414,3.2422,3.2588,3.2798,3.2988,3.3193,3.3359,3.3444,3.3415,3.3312,3.3048,3.2925,3.2907,3.2889,3.3015,3.316,3.3345,3.3621,3.3771,3.3817,3.3817,3.3872,3.3965,3.393,3.3972,3.4074,3.4158,3.4148,3.426,3.4413,3.4681,3.4803,3.4943,3.508,3.5264,3.5398,3.5521,3.5676,3.5771,3.5836,3.5869,3.5869,3.5811,3.5639,3.5395,3.5038,3.4466,3.3904,3.2974,3.1479,2.905,2.6938,2.4103,1.9221,1.6631,1.3902,1.4051,1.2024,0.8173,0.5708,0.3548,0.0983,-0.1614,-0.3537,-0.553,-0.8085,-0.9138,-1.0024,-1.0639,-1.1147,-1.1539,-1.1681,-1.2338,-1.3453,-1.4396,-1.4921,-1.5298,-1.4951,-1.4695,-1.4528,-1.43,-1.3879,-1.3455,-1.3347,-1.3352,-1.3408,-1.3532,-1.4136,-1.4442,-1.4451,-1.4982,-1.5753,-1.5705,-1.5425,-1.5773,-1.6004,-1.6348,-1.6632,-1.6745,-1.6807,-1.6812,-1.6643,-1.6457,-1.6394,-1.64,-1.6223,-1.5989,-1.5926,-1.5984,2.7719,2.7815,2.857,2.8974,2.9325,3.1273,3.2256,3.2371,3.2412,3.2526,3.2813,3.2934,3.3059,3.3172,3.3068,3.297,3.2916,3.2654,3.2632,3.2674,3.2866,3.2975,3.316,3.3415,3.3539,3.3586,3.3565,3.3544,3.3633,3.3724,3.383,3.393,3.4035,3.4026,3.4092,3.4212,3.448,3.4632,3.4813,3.4955,3.5131,3.5358,3.5506,3.5643,3.5757,3.5814,3.5859,3.5879,3.5714,3.5487,3.5227,3.4698,3.4116,3.3496,3.0796,2.7413,2.4014,2.1415,1.9509,1.4097,1.0143,0.7639,0.9175,0.7194,0.4401,0.144,-0.044,-0.2636,-0.5005,-0.6684,-0.8458,-0.952,-1.0585,-1.1326,-1.1995,-1.2494,-1.302,-1.3488,-1.4189,-1.5119,-1.6066,-1.6663,-1.6947,-1.6845,-1.6224,-1.6218,-1.598,-1.5871,-1.5458,-1.4904,-1.4963,-1.5075,-1.526,-1.5512,-1.558,-1.5279,-1.5575,-1.6156,-1.5879,-1.5715,-1.6119,-1.6467,-1.6637,-1.6864,-1.715,-1.7262,-1.7256,-1.7312,-1.7318,-1.7256,-1.729,-1.6786,-1.6492,-1.6156,-1.6098,2.7701,2.778,2.857,2.8904,2.9088,3.0238,3.137,3.2256,3.1869,3.1925,3.2588,3.2623,3.2639,3.2775,3.2743,3.2669,3.2612,3.2548,3.2507,3.2566,3.2654,3.2719,3.2876,3.3118,3.3246,3.3217,3.3176,3.3206,3.3379,3.3488,3.3607,3.3698,3.3771,3.3799,3.3879,3.3989,3.4203,3.4416,3.4614,3.4822,3.5019,3.5251,3.5428,3.5587,3.5691,3.5758,3.5817,3.5895,3.5762,3.5596,3.5,3.4427,3.3973,3.1008,2.7043,1.9831,1.5045,1.1053,1.0582,0.6501,0.2327,-0.0,-0.0068,-0.0761,-0.2348,-0.2875,-0.4419,-0.6229,-0.7797,-0.914,-1.0685,-1.1811,-1.2627,-1.3274,-1.4022,-1.4624,-1.5099,-1.5624,-1.6276,-1.6758,-1.7739,-1.7834,-1.8162,-1.7918,-1.7418,-1.7595,-1.765,-1.7484,-1.7207,-1.659,-1.6234,-1.6399,-1.6358,-1.642,-1.6026,-1.5733,-1.6088,-1.6384,-1.6327,-1.6389,-1.6797,-1.7083,-1.7032,-1.72,-1.7534,-1.7695,-1.7683,-1.7744,-1.786,-1.8061,-1.8044,-1.7496,-1.6944,-1.6662,-1.6384,2.7701,2.7754,2.8128,2.8482,2.8762,2.9057,3.0045,3.1203,3.0957,3.1105,3.1533,3.1705,3.1913,3.2058,3.221,3.2283,3.2258,3.2232,3.2214,3.2232,3.2394,3.2497,3.2642,3.2697,3.2728,3.2702,3.2692,3.2707,3.293,3.3145,3.3291,3.3339,3.3412,3.3515,3.3577,3.3662,3.3815,3.4126,3.4414,3.4699,3.4902,3.5117,3.5359,3.5472,3.5563,3.5592,3.5741,3.5835,3.5762,3.5615,3.498,3.2249,2.875,2.2426,1.8311,1.1407,0.66,0.3271,0.1559,-0.2481,-0.5095,-0.6686,-0.8425,-0.8248,-0.7648,-0.765,-0.8319,-0.9268,-1.0216,-1.1359,-1.288,-1.4267,-1.489,-1.5585,-1.6306,-1.6966,-1.7442,-1.7798,-1.8222,-1.8594,-1.8799,-1.8765,-1.8774,-1.8589,-1.8441,-1.8375,-1.8261,-1.8147,-1.799,-1.771,-1.733,-1.7241,-1.7158,-1.7013,-1.6682,-1.6518,-1.6978,-1.7379,-1.7424,-1.7545,-1.7738,-1.7744,-1.7744,-1.7854,-1.8024,-1.8121,-1.817,-1.8219,-1.8327,-1.8536,-1.8643,-1.8104,-1.7617,-1.729,-1.7016,2.7633,2.7612,2.7465,2.7788,2.8271,2.7914,2.8522,2.9779,2.9756,2.9945,3.0176,3.0533,3.0846,3.1219,3.1515,3.1764,3.186,3.1912,3.1903,3.1867,3.1913,3.2029,3.2162,3.2244,3.2168,3.2127,3.2153,3.2196,3.2301,3.2506,3.2719,3.2921,3.2987,3.3024,3.2979,3.3166,3.3343,3.3505,3.4087,3.4554,3.4671,3.4945,3.5245,3.5276,3.5247,3.5235,3.5514,3.5614,3.5585,3.5495,3.2774,2.8605,1.8454,1.0818,0.6727,0.334,-0.1207,-0.3654,-0.6049,-0.936,-1.1505,-1.2691,-1.3533,-1.2656,-1.1712,-1.1248,-1.1615,-1.1762,-1.2646,-1.3624,-1.5011,-1.5638,-1.6183,-1.6946,-1.768,-1.8214,-1.8601,-1.9036,-1.9375,-1.9552,-1.9409,-1.9449,-1.9312,-1.9174,-1.9016,-1.8969,-1.8916,-1.8798,-1.8744,-1.8643,-1.8465,-1.818,-1.7769,-1.7633,-1.7688,-1.7693,-1.8093,-1.8369,-1.8309,-1.8315,-1.823,-1.8338,-1.8554,-1.8446,-1.8338,-1.8548,-1.8655,-1.8709,-1.8762,-1.8922,-1.8922,-1.8661,-1.8284,-1.7952,-1.7623,2.7166,2.7166,2.7094,2.7231,2.7334,2.7227,2.7379,2.7741,2.7741,2.8537,2.958,2.9713,2.997,3.0471,3.064,3.0945,3.1442,3.1316,3.1545,3.1533,3.1516,3.1435,3.1585,3.1578,3.1485,3.1536,3.1601,3.1576,3.1657,3.1821,3.1956,3.1994,3.2118,3.2179,3.2264,3.2506,3.28,3.2693,3.3332,3.385,3.4002,3.4273,3.4542,3.4656,3.4664,3.4555,3.4815,3.5154,3.5475,3.5243,2.7331,1.773,0.5429,0.0639,-0.2546,-0.4933,-0.7983,-0.9912,-1.1504,-1.3504,-1.4932,-1.493,-1.4822,-1.4832,-1.4662,-1.4517,-1.444,-1.4568,-1.5001,-1.5971,-1.6624,-1.6954,-1.7303,-1.8115,-1.8955,-1.936,-1.9767,-2.0156,-2.0488,-2.0342,-2.0096,-1.9977,-1.9918,-1.9753,-1.9643,-1.9592,-1.9585,-1.9527,-1.9579,-1.954,-1.9463,-1.9093,-1.8363,-1.8159,-1.8369,-1.8525,-1.8804,-1.8703,-1.853,-1.8596,-1.8721,-1.8768,-1.8869,-1.8703,-1.859,-1.8863,-1.9081,-1.9139,-1.9245,-1.935,-1.9297,-1.9081,-1.8928,-1.8655,-1.8321,2.7006,2.7006,2.7006,2.6899,2.6767,2.6866,2.6891,2.6866,2.6767,2.7148,2.7945,2.8379,2.8883,2.9404,2.9572,3.0031,3.0586,3.0482,3.0749,3.0934,3.0851,3.0778,3.0799,3.0867,3.0556,3.0559,3.0518,3.0526,3.0793,3.0872,3.0912,3.0991,3.1086,3.127,3.1408,3.1783,3.1917,3.1524,3.2278,3.2576,3.2905,3.3342,3.3989,3.4165,3.3835,3.3395,3.2889,3.2718,3.0772,2.4515,1.3837,0.7399,-0.1951,-0.7158,-1.0342,-1.1697,-1.3241,-1.4752,-1.5564,-1.6341,-1.7144,-1.6927,-1.7084,-1.7533,-1.7379,-1.7164,-1.6571,-1.6587,-1.6475,-1.7249,-1.736,-1.7613,-1.7781,-1.8315,-1.9578,-2.0507,-2.113,-2.1731,-2.1661,-2.1369,-2.1121,-2.0907,-2.0661,-2.0169,-2.0156,-2.0484,-2.0434,-2.0283,-2.0339,-2.0258,-2.0246,-2.0079,-1.9316,-1.8975,-1.9127,-1.9226,-1.9233,-1.9075,-1.891,-1.9075,-1.9291,-1.9233,-1.918,-1.9069,-1.9115,-1.9331,-1.9494,-1.95,-1.9552,-1.9598,-1.9604,-1.9506,-1.9402,-1.9297,-1.9115,2.6883,2.6916,2.6866,2.6666,2.6375,2.6547,2.6615,2.6521,2.6297,2.598,2.5856,2.6841,2.7419,2.786,2.8191,2.8862,2.9198,2.9132,2.9601,2.9905,2.9846,2.9827,2.9972,3.0143,2.9792,2.9504,2.9387,2.9557,2.9735,2.9846,2.9956,2.9991,3.0118,3.0328,3.0402,3.0738,3.0985,3.0526,3.0668,3.0731,3.1361,3.2191,3.2853,3.2927,3.2185,3.0557,3.0115,2.8003,2.4643,1.5635,0.3773,-0.3994,-0.8968,-1.399,-1.5466,-1.7061,-1.6593,-1.7699,-1.8536,-1.8959,-1.9337,-1.9556,-1.995,-1.9847,-1.9559,-1.9217,-1.8589,-1.8342,-1.82,-1.8178,-1.8278,-1.8319,-1.8529,-1.8894,-2.0283,-2.144,-2.2156,-2.2688,-2.2362,-2.2017,-2.1757,-2.1491,-2.1114,-2.0594,-2.0651,-2.1015,-2.1159,-2.1114,-2.1022,-2.0858,-2.0762,-2.0695,-2.029,-2.0074,-1.9965,-1.9862,-1.9798,-1.9811,-1.9747,-1.9805,-1.9811,-1.9598,-1.954,-1.9643,-1.9695,-1.9747,-1.9747,-1.9701,-1.9798,-1.9901,-1.9753,-1.9708,-1.9656,-1.965,-1.9901,2.6364,2.6337,2.6241,2.6154,2.6066,2.5985,2.5913,2.584,2.5535,2.5269,2.5216,2.5092,2.5481,2.6062,2.6125,2.6716,2.7572,2.764,2.7917,2.8218,2.8633,2.8778,2.8834,2.8887,2.8849,2.874,2.8623,2.8779,2.8623,2.8849,2.9034,2.8973,2.9217,2.9292,2.9268,2.9531,2.9467,2.9151,2.8963,2.8974,2.9416,3.0154,3.0815,3.0202,2.8828,2.7975,2.6618,2.2904,1.9979,1.2889,0.1425,-0.9502,-1.5446,-1.8839,-1.9766,-1.9641,-1.9264,-1.9473,-2.0085,-2.0057,-2.0057,-2.0309,-2.0408,-2.0244,-2.0134,-2.0225,-1.9835,-1.9768,-1.9643,-1.9556,-1.961,-1.9584,-1.9717,-2.0076,-2.1027,-2.1619,-2.2272,-2.2185,-2.1878,-2.1642,-2.1413,-2.1262,-2.1082,-2.0755,-2.0642,-2.0922,-2.0901,-2.0884,-2.1008,-2.1076,-2.1188,-2.122,-2.11,-2.0815,-2.049,-2.0453,-2.0403,-2.0466,-2.0472,-2.0403,-2.0194,-1.985,-1.985,-2.0093,-1.9991,-1.994,-1.9895,-2.0144,-2.0048,-2.0093,-1.9901,-1.9798,-1.985,-2.0048,-2.0346]},{"header":{"parameterUnit":"m.s-1","parameterCategory":1,"la1":31.0,"la2":29.5877,"lo1":-88.7671,"lo2":-86.6584,"dy":0.0162,"dx":0.0185,"nx":115,"ny":88,"refTime":"2025-12-10T12:00:00:Z","depth":0,"parameterNumber":3,"parameterNumberName":"V-component_of_WINDS"},"data":[0.0,0.0,0.0,0.0,0.0,0.0,0.0,0.0,0.0,0.0,0.0,0.0,0.0,0.0,0.0,0.0,0.0,0.0,0.0,0.0,0.0,0.0,0.0,0.0,0.0,0.0,0.0,0.0,0.0,0.0,0.0,0.0,0.0,0.0,0.0,0.0,0.0,0.0,0.0,0.0,0.0,0.0,0.0,0.0,0.0,0.0,0.0,0.0,0.0,0.0,0.0,0.0,0.0,0.0,0.0,0.0,0.0,0.0,0.0,0.0,0.0,0.0,0.0,0.0,0.0,0.0,0.0,0.0,0.0,0.0,0.0,0.0,0.0,0.0,0.0,0.0,0.0,0.0,0.0,0.0,0.0,0.0,0.0,0.0,0.0,0.0,0.0,0.0,0.0,0.0,0.0,0.0,0.0,0.0,0.0,0.0,0.0,0.0,0.0,0.0,0.0,0.0,0.0,0.0,0.0,0.0,0.0,0.0,0.0,0.0,0.0,0.0,0.0,0.0,0.0,0.0,0.0,0.0,0.0,0.0,0.0,0.0,0.0,0.0,0.0,0.0,0.0,0.0,0.0,0.0,0.0,0.0,0.0,0.0,0.0,0.0,0.0,0.0,0.0,0.0,0.0,0.0,0.0,0.0,0.0,0.0,0.0,0.0,0.0,0.0,0.0,0.0,0.0,0.0,0.0,0.0,0.0,0.0,0.0,0.0,0.0,0.0,0.0,0.0,0.0,0.0,0.0,0.0,0.0,0.0,0.0,0.0,0.0,0.0,0.0,0.0,0.0,0.0,0.0,0.0,0.0,0.0,0.0,0.0,0.0,0.0,0.0,0.0,0.0,0.0,0.0,0.0,0.0,0.0,0.0,0.0,0.0,0.0,0.0,0.0,0.0,0.0,0.0,0.0,0.0,0.0,0.0,0.0,0.0,0.0,0.0,0.0,0.0,0.0,0.0,0.0,0.0,0.0,0.0,0.0,0.0,0.0,0.0,0.0,0.0,0.0,0.0,0.0,0.0,0.0,0.0,0.0,0.0,0.0,0.0,0.0,0.0,0.0,0.0,0.0,0.0,0.0,0.0,0.0,0.0,0.0,0.0,0.0,0.0,0.0,0.0,0.0,0.0,0.0,0.0,0.0,0.0,0.0,0.0,0.0,0.0,0.0,0.0,0.0,0.0,0.0,0.0,0.0,0.0,0.0,0.0,0.0,0.0,0.0,0.0,0.0,0.0,0.0,0.0,0.0,0.0,0.0,0.0,0.0,0.0,0.0,0.0,0.0,0.0,0.0,0.0,0.0,0.0,0.0,0.0,0.0,0.0,0.0,0.0,0.0,0.0,0.0,0.0,0.0,0.0,0.0,0.0,0.0,0.0,0.0,0.0,0.0,0.0,0.0,0.0,0.0,0.0,0.0,0.0,0.0,0.0,0.0,0.0,0.0,0.0,0.0,0.0,0.0,0.0,0.0,0.0,0.0,0.0,0.0,0.0,0.0,0.0,0.0,0.0,0.0,0.0,0.0,0.0,0.0,0.0,0.0,0.0,0.0,0.0,0.0,0.0,0.0,0.0,0.0,0.0,0.0,0.0,0.0,0.0,0.0,0.0,0.0,0.0,0.0,0.0,0.0,0.0,0.0,0.0,0.0,0.0,0.0,0.0,0.0,0.0,0.0,0.0,0.0,0.0,0.0,0.0,0.0,0.0,0.0,0.0,0.0,0.0,0.0,0.0,0.0,0.0,0.0,0.0,0.0,0.0,0.0,0.0,0.0,0.0,0.0,0.0,0.0,0.0,0.0,0.0,0.0,0.0,0.0,0.0,0.0,0.0,0.0,0.0,0.0,0.0,0.0,0.0,0.0,0.0,0.0,0.0,0.0,0.0,0.0,0.0,0.0,0.0,0.0,0.0,0.0,0.0,0.0,0.0,0.0,0.0,0.0,0.0,0.0,0.0,0.0,0.0,0.0,0.0,0.0,0.0,0.0,0.0,0.0,0.0,0.0,0.0,0.0,0.0,0.0,0.0,0.0,0.0,0.0,0.0,0.0,0.0,0.0,0.0,0.0,0.0,0.0,0.0,0.0,0.0,0.0,0.0,0.0,0.0,0.0,0.0,0.0,0.0,0.0,0.0,0.0,0.0,0.0,0.0,0.0,0.0,0.0,0.0,0.0,0.0,0.0,0.0,0.0,0.0,0.0,0.0,0.0,0.0,0.0,0.0,0.0,0.0,0.0,0.0,0.0,0.0,0.0,0.0,0.0,0.0,0.0,0.0,0.0,0.0,0.0,0.0,0.0,0.0,0.0,0.0,0.0,0.0,0.0,0.0,0.0,0.0,0.0,0.0,0.0,0.0,0.0,0.0,0.0,0.0,0.0,0.0,0.0,0.0,0.0,0.0,0.0,0.0,0.0,0.0,0.0,0.0,0.0,0.0,0.0,0.0,0.0,0.0,0.0,0.0,0.0,0.0,0.0,0.0,0.0,0.0,0.0,0.0,0.0,0.0,0.0,0.0,0.0,0.0,0.0,0.0,0.0,0.0,0.0,0.0,0.0,0.0,0.0,0.0,0.0,0.0,0.0,0.0,0.0,0.0,0.0,0.0,0.0,0.0,0.0,0.0,0.0,0.0,0.0,0.0,0.0,0.0,0.0,0.0,0.0,0.0,0.0,0.0,0.0,0.0,0.0,0.0,0.0,0.0,0.0,0.0,0.0,0.0,0.0,0.0,0.0,0.0,0.0,0.0,0.0,0.0,0.0,0.0,0.0,0.0,0.0,0.0,0.0,0.0,0.0,0.0,0.0,0.0,0.0,0.0,0.0,0.0,0.0,0.0,0.0,0.0,0.0,0.0,0.0,0.0,0.0,0.0,0.0,0.0,0.0,0.0,0.0,0.0,0.0,0.0,0.0,0.0,0.0,0.0,0.0,0.0,0.0,0.0,0.0,0.0,0.0,0.0,0.0,0.0,0.0,0.0,0.0,0.0,0.0,0.0,0.0,0.0,0.0,0.0,0.0,0.0,0.0,0.0,0.0,0.0,0.0,0.0,0.0,0.0,0.0,0.0,0.0,0.0,0.0,0.0,0.0,0.0,0.0,0.0,0.0,0.0,0.0,0.0,0.0,0.0,0.0,0.0,0.0,0.0,0.0,0.0,0.0,0.0,0.0,0.0,0.0,0.0,0.0,0.0,0.0,0.0,0.0,0.0,0.0,0.0,0.0,0.0,0.0,0.0,0.0,0.0,0.0,0.0,0.0,0.0,0.0,0.0,0.0,0.0,0.0,0.0,0.0,0.0,0.0,0.0,0.0,0.0,0.0,0.0,0.0,0.0,0.0,0.0,0.0,0.0,0.0,0.0,0.0,0.0,0.0,0.0,0.0,0.0,0.0,0.0,0.0,0.0,0.0,0.0,0.0,0.0,0.0,0.0,0.0,0.0,0.0,0.0,0.0,0.0,0.0,0.0,0.0,0.0,0.0,0.0,0.0,0.0,0.0,0.0,0.0,0.0,0.0,0.0,0.0,0.0,0.0,0.0,0.0,0.0,0.0,0.0,0.0,0.0,0.0,0.0,0.0,0.0,0.0,0.0,0.0,0.0,0.0,0.0,0.0,0.0,0.0,0.0,0.0,0.0,0.0,0.0,0.0,0.0,0.0,0.0,0.0,0.0,0.0,0.0,0.0,0.0,0.0,0.0,0.0,0.0,0.0,0.0,0.0,0.0,0.0,0.0,0.0,0.0,0.0,0.0,0.0,0.0,0.0,0.0,0.0,0.0,0.0,0.0,0.0,0.0,0.0,0.0,0.0,0.0,0.0,0.0,0.0,0.0,0.0,0.0,0.0,0.0,0.0,0.0,0.0,0.0,0.0,0.0,0.0,0.0,0.0,0.0,0.0,0.0,0.0,0.0,0.0,0.0,0.0,0.0,0.0,0.0,0.0,0.0,0.0,0.0,0.0,0.0,0.0,0.0,0.0,0.0,0.0,0.0,0.0,0.0,0.0,0.0,0.0,0.0,0.0,0.0,0.0,0.0,0.0,0.0,0.0,0.0,0.0,0.0,0.0,0.0,0.0,0.0,0.0,0.0,0.0,0.0,0.0,0.0,0.0,0.0,0.0,0.0,0.0,0.0,0.0,0.0,0.0,0.0,0.0,0.0,0.0,0.0,0.0,0.0,0.0,0.0,0.0,0.0,0.0,0.0,0.0,0.0,0.0,0.0,0.0,0.0,0.0,0.0,0.0,0.0,0.0,0.0,0.0,0.0,0.0,0.0,0.0,0.0,0.0,0.0,0.0,-0.5875,0.0,0.0,0.0,0.0,0.0,0.0,0.0,0.0,0.0,0.0,0.0,0.0,0.0,0.0,0.0,0.0,0.0,0.0,0.0,0.0,0.0,0.0,0.0,0.0,0.0,0.0,0.0,0.0,0.0,0.0,0.0,0.0,0.0,0.0,0.0,0.0,0.0,0.0,0.0,0.0,0.0,0.0,0.0,0.0,0.0,0.0,0.0,0.0,0.0,0.0,0.0,0.0,0.0,0.0,0.0,0.0,0.0,0.0,0.0,0.0,0.0,0.0,0.0,0.0,0.0,0.0,0.0,0.0,0.0,0.0,0.0,0.0,0.0,0.0,0.0,0.0,0.0,0.0,0.0,0.0,0.0,0.0,0.0,0.0,0.0,0.0,0.0,0.0,0.0,0.0,0.0,0.0,0.0,0.0,0.0,0.0,0.0,0.0,0.0,0.0,0.0,0.0,0.0,0.0,0.0,0.0,0.0,0.0,0.0,0.0,-0.601,-0.5867,-0.5595,-0.5477,-0.5442,0.0,0.0,0.0,0.0,0.0,0.0,0.0,0.0,0.0,0.0,0.0,0.0,0.0,0.0,0.0,0.0,0.0,0.0,0.0,0.0,0.0,0.0,0.0,0.0,0.0,0.0,0.0,0.0,0.0,0.0,0.0,0.0,0.0,0.0,0.0,0.0,0.0,0.0,0.0,0.0,0.0,0.0,0.0,0.0,0.0,0.0,0.0,0.0,0.0,0.0,0.0,0.0,0.0,0.0,0.0,0.0,0.0,0.0,0.0,0.0,0.0,0.0,0.0,0.0,0.0,0.0,0.0,0.0,0.0,0.0,0.0,0.0,0.0,0.0,0.0,0.0,0.0,0.0,0.0,0.0,0.0,0.0,0.0,0.0,0.0,0.0,0.0,0.0,0.0,0.0,0.0,0.0,0.0,0.0,0.0,0.0,0.0,0.0,0.0,0.0,0.0,0.0,0.0,0.0,0.0,0.0,0.0,0.0,0.0,0.0,0.0,0.0,-0.5235,-0.5171,-0.5138,0.0,0.0,0.0,0.0,0.0,0.0,0.0,0.0,0.0,0.0,0.0,0.0,0.0,0.0,0.0,0.0,0.0,0.0,0.0,0.0,0.0,0.0,0.0,0.0,0.0,0.0,0.0,0.0,0.0,0.0,0.0,0.0,0.0,0.0,0.0,0.0,0.0,0.0,0.0,0.0,0.0,0.0,0.0,0.0,0.0,0.0,0.0,0.0,0.0,0.0,0.0,0.0,0.0,0.0,0.0,0.0,0.0,0.0,0.0,0.0,0.0,0.0,0.0,0.0,0.0,0.0,0.0,0.0,0.0,0.0,0.0,0.0,0.0,0.0,0.0,0.0,0.0,0.0,0.0,0.0,0.0,0.0,0.0,0.0,0.0,0.0,0.0,0.0,0.0,0.0,0.0,0.0,0.0,0.0,0.0,0.0,0.0,0.0,0.0,0.0,0.0,0.0,0.0,0.0,0.0,0.0,0.0,0.0,0.0,0.0,-0.5582,-0.4886,-0.5237,0.0,-0.5202,0.0,0.0,0.0,0.0,0.0,0.0,0.0,0.0,0.0,0.0,0.0,0.0,0.0,0.0,0.0,0.0,0.0,0.0,0.0,0.0,0.0,0.0,0.0,0.0,0.0,0.0,0.0,0.0,0.0,0.0,0.0,0.0,0.0,0.0,0.0,0.0,0.0,0.0,0.0,0.0,0.0,0.0,0.0,0.0,0.0,0.0,0.0,0.0,0.0,0.0,0.0,0.0,0.0,0.0,0.0,0.0,0.0,0.0,0.0,0.0,0.0,0.0,0.0,0.0,0.0,0.0,0.0,0.0,0.0,0.0,0.0,0.0,0.0,0.0,0.0,0.0,0.0,0.0,0.0,0.0,0.0,0.0,0.0,0.0,0.0,0.0,0.0,0.0,0.0,0.0,0.0,0.0,0.0,0.0,0.0,0.0,0.0,0.0,0.0,0.0,0.0,0.0,0.0,0.0,0.0,0.0,0.0,0.0,0.0,0.0,0.0,-0.5267,-0.5149,-0.5036,0.0,0.0,0.0,0.0,0.0,0.0,0.0,0.0,0.0,0.0,0.0,0.0,0.0,0.0,0.0,0.0,0.0,0.0,0.0,0.0,0.0,0.0,0.0,0.0,0.0,0.0,0.0,0.0,0.0,0.0,0.0,0.0,0.0,0.0,0.0,0.0,0.0,0.0,0.0,0.0,0.0,0.0,0.0,0.0,0.0,0.0,0.0,0.0,0.0,0.0,0.0,0.0,0.0,0.0,0.0,0.0,0.0,0.0,0.0,0.0,0.0,0.0,0.0,0.0,0.0,0.0,0.0,0.0,0.0,0.0,0.0,0.0,0.0,0.0,0.0,0.0,0.0,0.0,0.0,0.0,0.0,0.0,0.0,0.0,0.0,0.0,0.0,0.0,0.0,0.0,0.0,0.0,0.0,0.0,0.0,0.0,0.0,0.0,0.0,0.0,0.0,0.0,0.0,0.0,0.0,0.0,0.0,0.0,0.0,0.0,-0.5534,0.0,-0.5355,-0.5141,-0.4928,-0.4709,0.0,0.0,0.0,0.0,0.0,0.0,0.0,0.0,0.0,0.0,0.0,0.0,0.0,0.0,0.0,0.0,0.0,0.0,0.0,0.0,0.0,0.0,0.0,0.0,0.0,0.0,0.0,0.0,0.0,0.0,0.0,0.0,0.0,0.0,0.0,0.0,0.0,0.0,0.0,0.0,0.0,0.0,0.0,0.0,0.0,0.0,0.0,0.0,0.0,0.0,0.0,0.0,0.0,0.0,0.0,0.0,0.0,0.0,0.0,0.0,0.0,0.0,0.0,0.0,0.0,0.0,0.0,0.0,0.0,0.0,0.0,0.0,0.0,0.0,0.0,0.0,0.0,0.0,0.0,0.0,0.0,0.0,0.0,0.0,0.0,0.0,0.0,0.0,0.0,0.0,0.0,0.0,0.0,0.0,0.0,0.0,0.0,0.0,0.0,0.0,0.0,0.0,0.0,0.0,0.0,0.0,0.0,0.0,0.0,-0.5247,-0.5028,-0.4857,-0.5308,-0.5207,0.0,0.0,0.0,0.0,0.0,0.0,0.0,0.0,0.0,0.0,0.0,0.0,0.0,0.0,0.0,0.0,0.0,0.0,0.0,0.0,0.0,0.0,0.0,0.0,0.0,0.0,0.0,0.0,0.0,0.0,0.0,0.0,0.0,0.0,0.0,0.0,0.0,0.0,0.0,0.0,0.0,0.0,0.0,0.0,0.0,0.0,0.0,0.0,0.0,0.0,0.0,0.0,0.0,0.0,0.0,0.0,0.0,0.0,0.0,0.0,0.0,0.0,0.0,0.0,0.0,0.0,0.0,0.0,0.0,0.0,0.0,0.0,0.0,0.0,0.0,0.0,0.0,0.0,0.0,0.0,0.0,0.0,0.0,0.0,0.0,0.0,0.0,0.0,0.0,0.0,0.0,0.0,0.0,0.0,0.0,0.0,0.0,0.0,0.0,0.0,0.0,0.0,0.0,0.0,0.0,0.0,0.0,0.0,0.0,-0.4884,-0.466,-0.4494,-0.442,-0.4506,-0.4474,0.0,0.0,0.0,0.0,0.0,0.0,0.0,0.0,0.0,0.0,0.0,0.0,0.0,0.0,0.0,0.0,0.0,0.0,0.0,0.0,0.0,0.0,0.0,0.0,0.0,0.0,0.0,0.0,0.0,0.0,0.0,0.0,0.0,0.0,0.0,0.0,0.0,0.0,0.0,0.0,0.0,0.0,0.0,0.0,0.0,0.0,0.0,0.0,0.0,0.0,0.0,0.0,0.0,0.0,0.0,0.0,0.0,0.0,0.0,0.0,0.0,0.0,0.0,0.0,0.0,0.0,0.0,0.0,0.0,0.0,0.0,0.0,0.0,0.0,0.0,0.0,0.0,0.0,0.0,0.0,0.0,0.0,0.0,0.0,0.0,0.0,0.0,0.0,0.0,0.0,0.0,0.0,0.0,0.0,0.0,0.0,0.0,0.0,0.0,0.0,0.0,0.0,0.0,0.0,0.0,0.0,0.0,0.0,0.0,-0.4279,0.0,-0.4118,0.0,-0.3925,-0.392,0.0,0.0,0.0,0.0,0.0,0.0,0.0,0.0,0.0,0.0,0.0,0.0,0.0,0.0,0.0,0.0,0.0,0.0,0.0,0.0,0.0,0.0,0.0,0.0,0.0,0.0,0.0,0.0,0.0,0.0,0.0,0.0,0.0,0.0,0.0,0.0,0.0,0.0,0.0,0.0,0.0,0.0,0.0,0.0,0.0,0.0,0.0,0.0,0.0,0.0,0.0,0.0,0.0,0.0,0.0,0.0,0.0,0.0,0.0,0.0,0.0,0.0,0.0,0.0,0.0,0.0,0.0,0.0,0.0,0.0,0.0,0.0,0.0,0.0,0.0,0.0,0.0,0.0,0.0,0.0,0.0,0.0,0.0,0.0,0.0,0.0,0.0,0.0,0.0,0.0,0.0,0.0,0.0,0.0,0.0,0.0,0.0,0.0,0.0,0.0,0.0,0.0,0.0,0.0,0.0,0.0,0.0,0.0,-0.428,-0.3785,-0.4281,-0.393,-0.2614,-0.3609,-0.3646,0.0,0.0,0.0,0.0,0.0,0.0,0.0,0.0,0.0,0.0,0.0,0.0,0.0,0.0,0.0,0.0,0.0,0.0,0.0,0.0,0.0,0.0,0.0,0.0,0.0,0.0,0.0,0.0,0.0,0.0,0.0,0.0,0.0,0.0,0.0,0.0,0.0,0.0,0.0,0.0,0.0,0.0,0.0,0.0,0.0,0.0,0.0,0.0,0.0,0.0,0.0,0.0,0.0,0.0,0.0,0.0,0.0,0.0,0.0,0.0,0.0,0.0,0.0,0.0,0.0,0.0,0.0,0.0,0.0,0.0,0.0,0.0,0.0,0.0,0.0,0.0,0.0,0.0,0.0,0.0,0.0,0.0,0.0,0.0,0.0,0.0,0.0,0.0,0.0,0.0,0.0,0.0,0.0,0.0,0.0,0.0,0.0,0.0,0.0,0.0,0.0,0.0,0.0,0.0,0.0,0.0,0.0,0.0,0.0,-0.4808,-0.4055,-0.3507,-0.3262,-0.3203,-0.3119,0.0,0.0,0.0,0.0,0.0,0.0,0.0,0.0,0.0,0.0,0.0,0.0,0.0,0.0,0.0,0.0,0.0,0.0,0.0,0.0,0.0,0.0,0.0,0.0,0.0,0.0,0.0,0.0,0.0,0.0,0.0,0.0,0.0,0.0,0.0,0.0,0.0,0.0,0.0,0.0,0.0,0.0,0.0,0.0,0.0,0.0,0.0,0.0,0.0,0.0,0.0,0.0,0.0,0.0,0.0,0.0,0.0,0.0,0.0,0.0,0.0,0.0,0.0,0.0,0.0,0.0,0.0,0.0,0.0,0.0,0.0,0.0,0.0,0.0,0.0,0.0,0.0,0.0,0.0,0.0,0.0,0.0,0.0,0.0,0.0,0.0,0.0,0.0,0.0,0.0,0.0,0.0,0.0,0.0,0.0,0.0,0.0,0.0,0.0,0.0,0.0,0.0,0.0,0.0,0.0,0.0,0.0,0.0,0.0,-0.4846,-0.3911,-0.337,-0.3281,-0.2802,-0.2601,-0.2688,0.0,0.0,0.0,0.0,0.0,0.0,0.0,0.0,0.0,0.0,0.0,0.0,0.0,0.0,0.0,0.0,0.0,0.0,0.0,0.0,0.0,0.0,0.0,0.0,0.0,0.0,0.0,0.0,0.0,0.0,0.0,0.0,0.0,0.0,0.0,0.0,0.0,0.0,0.0,0.0,0.0,0.0,0.0,0.0,0.0,0.0,0.0,0.0,0.0,0.0,0.0,0.0,0.0,0.0,0.0,0.0,0.0,0.0,0.0,0.0,0.0,0.0,0.0,0.0,0.0,0.0,0.0,0.0,0.0,0.0,0.0,0.0,0.0,0.0,0.0,0.0,0.0,0.0,0.0,0.0,0.0,0.0,0.0,0.0,0.0,0.0,0.0,0.0,0.0,0.0,0.0,0.0,0.0,0.0,0.0,0.0,0.0,0.0,0.0,0.0,0.0,0.0,0.0,0.0,0.0,0.0,0.0,0.0,-0.4156,-0.3899,-0.3376,-0.2634,-0.2396,-0.2099,0.0,0.0,0.0,0.0,0.0,0.0,0.0,0.0,0.0,0.0,0.0,0.0,0.0,0.0,0.0,0.0,0.0,0.0,0.0,0.0,0.0,0.0,0.0,0.0,0.0,0.0,0.0,0.0,0.0,0.0,0.0,0.0,0.0,0.0,0.0,0.0,0.0,0.0,0.0,0.0,0.0,0.0,0.0,0.0,0.0,0.0,0.0,0.0,0.0,0.0,0.0,0.0,0.0,0.0,0.0,0.0,0.0,0.0,0.0,0.0,0.0,0.0,0.0,0.0,0.0,0.0,0.0,0.0,0.0,0.0,0.0,0.0,0.0,0.0,0.0,0.0,0.0,0.0,0.0,0.0,0.0,0.0,0.0,0.0,0.0,0.0,0.0,0.0,0.0,0.0,0.0,0.0,0.0,0.0,0.0,0.0,0.0,0.0,0.0,0.0,0.0,0.0,0.0,0.0,0.0,0.0,0.0,0.0,0.0,-0.3388,-0.326,-0.2806,-0.1937,-0.1862,-0.1825,0.0,0.0,0.0,0.0,0.0,0.0,0.0,0.0,0.0,0.0,0.0,0.0,0.0,0.0,0.0,0.0,0.0,0.0,0.0,0.0,0.0,0.0,0.0,0.0,0.0,0.0,0.0,0.0,0.0,0.0,0.0,0.0,0.0,0.0,0.0,0.0,0.0,0.0,0.0,0.0,0.0,0.0,0.0,0.0,0.0,0.0,0.0,0.0,0.0,0.0,0.0,0.0,0.0,0.0,0.0,0.0,0.0,0.0,0.0,0.0,0.0,0.0,0.0,0.0,0.0,0.0,0.0,0.0,0.0,0.0,0.0,0.0,0.0,0.0,0.0,0.0,0.0,0.0,0.0,0.0,0.0,0.0,0.0,0.0,0.0,0.0,0.0,0.0,0.0,0.0,0.0,0.0,0.0,0.0,0.0,0.0,0.0,0.0,0.0,0.0,0.0,0.0,0.0,0.0,0.0,0.0,0.0,0.0,-0.3435,-0.2986,-0.2394,-0.1586,-0.0487,-0.0825,-0.1103,0.0,0.0,0.0,0.0,0.0,0.0,0.0,0.0,0.0,0.0,0.0,0.0,0.0,0.0,0.0,0.0,0.0,0.0,0.0,0.0,0.0,0.0,0.0,0.0,0.0,0.0,0.0,0.0,0.0,0.0,0.0,0.0,0.0,0.0,0.0,0.0,0.0,0.0,0.0,0.0,0.0,0.0,0.0,0.0,0.0,0.0,0.0,0.0,0.0,0.0,0.0,0.0,0.0,0.0,0.0,0.0,0.0,0.0,0.0,0.0,0.0,0.0,0.0,0.0,0.0,0.0,0.0,0.0,0.0,0.0,0.0,0.0,0.0,0.0,0.0,0.0,0.0,0.0,0.0,0.0,0.0,0.0,0.0,0.0,0.0,0.0,0.0,0.0,0.0,0.0,0.0,0.0,0.0,0.0,0.0,0.0,0.0,0.0,0.0,0.0,0.0,0.0,0.0,0.0,0.0,0.0,0.0,0.0,-0.3071,-0.2786,-0.1493,-0.0158,0.1135,0.0432,-0.0113,0.0,0.0,0.0,0.0,0.0,0.0,0.0,0.0,0.0,0.0,0.0,0.0,0.0,0.0,0.0,0.0,0.0,0.0,0.0,0.0,0.0,0.0,0.0,0.0,0.0,0.0,0.0,0.0,0.0,0.0,0.0,0.0,0.0,0.0,0.0,0.0,0.0,0.0,0.0,0.0,0.0,0.0,0.0,0.0,0.0,0.0,0.0,0.0,0.0,0.0,0.0,0.0,0.0,0.0,0.0,0.0,0.0,0.0,0.0,0.0,0.0,0.0,0.0,0.0,0.0,0.0,0.0,0.0,0.0,0.0,0.0,0.0,0.0,0.0,0.0,0.0,0.0,0.0,0.0,0.0,0.0,0.0,0.0,0.0,0.0,0.0,0.0,0.0,0.0,0.0,0.0,0.0,0.0,0.0,0.0,0.0,0.0,0.0,0.0,0.0,0.0,0.0,0.0,0.0,0.0,0.0,0.0,0.0,-0.319,-0.2705,-0.1053,0.0463,0.1847,0.1055,0.0633,0.0,0.0,0.0,0.0,0.0,0.0,0.0,0.0,0.0,0.0,0.0,0.0,0.0,0.0,0.0,0.0,0.0,0.0,0.0,0.0,0.0,0.0,0.0,0.0,0.0,0.0,0.0,0.0,0.0,0.0,0.0,0.0,0.0,0.0,0.0,0.0,0.0,0.0,0.0,0.0,0.0,0.0,0.0,0.0,0.0,0.0,0.0,0.0,-0.0397,0.0,0.0,0.0,0.0,0.0,0.0,0.0,0.0,0.0,0.0,0.0,0.0,0.0,0.0,0.0,0.0,0.0,0.0,0.0,0.0,0.0,0.0,0.0,0.0,0.0,0.0,0.0,0.0,0.0,0.0,0.0,0.0,0.0,0.0,0.0,0.0,0.0,0.0,0.0,0.0,0.0,0.0,0.0,0.0,0.0,0.0,0.0,0.0,0.0,0.0,0.0,0.0,0.0,0.0,0.0,0.0,0.0,0.0,0.0,-0.2006,-0.2684,0.0131,0.2016,0.2605,0.229,0.2002,0.0,0.0,0.0,0.0,0.0,0.0,0.0,0.0,0.0,0.0,0.0,0.0,0.0,0.0,0.0,0.0,0.0,0.0,0.0,0.0,0.0,0.0,0.0,0.0,0.0,0.0,0.0,0.0,0.0,0.0,0.0,0.0,0.0,0.0,0.0,0.0,0.0,0.0,0.0,0.0,0.0,0.0,0.0,0.0,0.0,0.0,0.0,0.0,0.0,0.0,0.0,0.0,0.0,0.0,0.0,0.0,0.0,0.0,0.0,0.0,0.0,0.0,0.0,0.0,0.0,0.0,0.0,0.0,0.0,0.0,0.0,0.0,0.0,0.0,0.0,0.0,0.0,0.0,0.0,0.0,0.0,0.0,0.0,0.0,0.0,0.0,0.0,0.0,0.0,0.0,0.0,0.0,0.0,0.0,0.0,0.0,0.0,0.0,0.0,0.0,0.0,0.0,0.0,0.0,0.0,0.0,0.0,-0.0735,-0.0426,-0.1769,0.1642,0.3567,0.351,0.3675,0.3516,0.2984,0.0,0.0,0.0,0.0,0.0,0.0,0.0,0.0,0.0,0.0,0.0,0.0,0.0,0.0,0.0,0.0,0.0,0.0,0.0,0.0,0.0,0.0,0.0,0.0,0.0,0.0,0.0,0.0,0.0,0.0,0.0,0.0,0.0,0.0,0.0,0.0,0.0,0.0,-0.0307,-0.0388,0.0,0.0,0.0,0.0,0.0,0.0,0.0,0.0,-0.0485,0.0,0.0,0.0,0.0,0.0,0.0,0.0,0.0,0.0,0.0,0.0,0.0,0.0,0.0,0.0,0.0,0.0,0.0,0.0,0.0,0.0,0.0,0.0,0.0,0.0,0.0,0.0,0.0,0.0,0.0,0.0,0.0,0.0,0.0,0.0,0.0,0.0,0.0,0.0,0.0,0.0,0.0,0.0,0.0,0.0,0.0,0.0,0.0,0.0,0.0,0.0,0.0,0.0,0.0,0.0,0.0,-0.0856,-0.0245,0.0671,0.1938,0.3024,0.3868,0.4382,0.452,0.4417,0.4049,0.0,0.0,0.0,0.0,0.0,0.0,0.0,0.0,0.0,0.0,0.0,0.0,0.0,0.0,0.0,0.0,0.0,0.0,0.0,0.0,0.0,0.0,0.0,0.0,0.0,0.0,0.0,0.0,0.0,0.0,0.0,0.0,0.0,0.0,0.0,0.0,0.0,0.0,0.0,-0.0485,-0.0536,0.0,0.0,0.0,0.0,0.0,0.0,0.0,0.0,-0.0912,0.0,0.0,0.0,0.0,0.0,0.0,0.0,0.0,0.0,0.0,0.0,0.0,0.0,0.0,0.0,0.0,0.0,0.0,0.0,0.0,0.0,0.0,0.0,0.0,0.0,0.0,0.0,0.0,0.0,0.0,0.0,0.0,0.0,0.0,0.0,0.0,0.0,0.0,0.0,0.0,0.0,0.0,0.0,0.0,0.0,0.0,0.0,0.0,0.0,0.0,0.0,0.0,0.0,0.0,0.0,0.0078,0.1145,0.2116,0.2895,0.387,0.4572,0.4995,0.5159,0.5011,0.0,0.0,0.0,0.0,0.0,0.0,0.0,0.0,0.0,0.0,0.0,0.0,0.0,0.0,0.0,0.0,0.0,0.0,0.0,0.0,0.0,0.0,0.0,0.0,0.0,0.0,0.0,0.0,0.0,0.0,0.0,0.0,0.0,0.0,0.0,0.0,0.0,0.0,0.0,0.0,-0.0531,-0.0558,-0.0496,0.0,0.0,0.0,0.0,0.0,0.0,-0.0733,-0.0709,0.0,0.0,0.0,0.0,0.0,0.0,0.0,0.0,0.0,0.0,0.0,0.0,0.0,0.0,0.0,0.0,0.0,0.0,0.0,0.0,0.0,0.0,0.0,0.0,0.0,0.0,0.0,0.0,0.0,0.0,0.0,0.0,0.0,0.0,0.0,0.0,0.0,0.0,0.0,0.0,0.0,0.0,0.0,0.0,0.0,0.0,0.0,0.0,0.0,0.0,0.0,0.0,0.0,0.0,0.0,0.1103,0.2646,0.3348,0.3188,0.4425,0.5307,0.5646,0.5747,0.5578,0.0,0.0,0.0,0.0,0.0,0.0,0.0,0.0,0.0,0.0,0.0,0.0,0.0,0.0,0.0,0.0,0.0,0.0,0.0,0.0,0.0,0.0,0.0,0.0,0.0,0.0,0.0,0.0,0.0,0.0,0.0,0.0,0.0,0.0,0.0,0.0,0.0,0.0,0.0,0.0,0.0,-0.0553,-0.059,-0.0562,0.0,0.0,0.0,0.0,-0.0935,-0.0891,0.0,0.0,0.0,0.0,0.0,0.0,0.0,0.0,0.0,0.0,0.0,0.0,0.0,0.0,0.0,0.0,0.0,0.0,0.0,0.0,0.0,0.0,0.0,0.0,0.0,0.0,0.0,0.0,0.0,0.0,0.0,0.0,0.0,0.0,0.0,0.0,0.0,0.0,0.0,0.0,0.0,0.0,0.0,0.0,0.0,0.0,0.0,0.0,0.0,0.0,0.0,0.0,0.0,0.0,0.0,0.0,0.3207,0.3709,0.394,0.3833,0.4742,0.5658,0.6521,0.6426,0.6199,0.0,0.0,0.0,0.0,0.0,0.0,0.0,0.0,0.0,0.0,0.0,0.0,0.0,0.0,0.0,0.0,0.0,0.0,0.0,0.0,0.0,0.0,0.0,0.0,0.0,0.0,0.0,0.0,0.0,0.0,0.0,0.0,0.0,0.0,0.0,0.0,0.0,0.0,0.0,0.0,0.0,-0.0729,-0.092,-0.0741,-0.0834,0.0,0.0,-0.1791,-0.2137,-0.2264,0.0,0.0,0.0,0.0,0.0,0.0,0.0,0.0,0.0,0.0,0.0,0.0,0.0,0.0,0.0,0.0,0.0,0.0,0.0,0.0,0.0,0.0,0.0,0.0,0.0,0.0,0.0,0.0,0.0,0.0,0.0,0.0,0.0,0.0,0.0,0.0,0.0,0.0,0.0,0.0,0.0,0.0,0.0,0.0,0.0,0.0,0.0,0.0,0.0,0.0,0.0,0.0,0.0,0.0,0.0,0.2596,0.3748,0.4165,0.4051,0.341,0.5063,0.6049,0.6176,0.6467,0.6346,0.0,0.0,0.0,0.0,0.0,0.0,0.0,0.0,0.0,0.0,0.0,0.0,0.0,0.0,0.0,0.0,0.0,0.0,0.0,0.0,0.0,0.0,0.0,0.0,0.0,0.0,0.0,0.0,0.0,0.0,0.0,0.0,0.0,0.0,0.0,0.0,0.0,0.0,0.0,0.0,0.0,0.0,-0.1219,-0.1107,0.0,0.0,0.0,-0.1834,-0.2291,0.0,0.0,0.0,0.0,0.0,0.0,0.0,0.0,0.0,0.0,0.0,0.0,0.0,0.0,0.0,0.0,0.0,0.0,0.0,0.0,0.0,0.0,0.0,0.0,0.0,0.0,0.0,0.0,0.0,0.0,0.0,0.0,0.0,0.0,0.0,0.0,0.0,0.0,0.0,0.0,0.0,0.0,0.0,0.0,0.0,0.0,0.0,0.0,0.0,0.0,0.0,0.0,0.0,0.0,0.0,0.0,0.0,0.3963,0.4645,0.4475,0.3515,0.5479,0.6308,0.5845,0.6246,0.0,0.0,0.0,0.0,0.0,0.0,0.0,0.0,0.0,0.0,0.0,0.0,0.0,0.0,0.0,0.0,0.0,0.0,0.0,0.0,0.0,0.0,0.0,0.0,0.0,0.0,0.0,0.0473,0.0,0.0,0.0,0.0,0.0,0.0,0.0,0.0,0.0,0.0,0.0,0.0,0.0,0.0,-0.1831,-0.1766,-0.1654,-0.1808,0.0,0.0,-0.2138,-0.2583,-0.2537,-0.2312,0.0,0.0,0.0,0.0,0.0,0.0,0.0,0.0,0.0,0.0,0.0,0.0,0.0,0.0,0.0,0.0,0.0,0.0,0.0,0.0,0.0,0.0,0.0,0.0,0.0,0.0,0.0,0.0,0.0,0.0,0.0,0.0,0.0,0.0,0.0,0.0,0.0,0.0,0.0,0.0,0.0,0.0,0.0,0.0,0.0,0.0,0.0,0.0,0.0,0.0,0.0,0.0,0.0,0.0,0.0,0.4272,0.5468,0.5672,0.4924,0.604,0.6399,0.5828,0.5822,0.6087,0.0,0.0,0.0,0.0,0.0,0.0,0.0,0.0,0.0,0.0,0.0,0.0,0.0,0.0,0.0,0.0,0.0,0.0,0.0,0.0,0.0,0.0,0.0,0.0,0.0,0.0,0.0,0.0,0.0,0.0,0.0,0.0,0.0,0.0,0.0,0.0,0.0,0.0,0.0,0.0,0.0,-0.2106,-0.2624,-0.2465,-0.2599,0.0,0.0,-0.3119,-0.3463,-0.3519,-0.3187,-0.2217,0.0,0.0,0.0,0.0,0.0,0.0,0.0,0.0,0.0,0.0,0.0,0.0,0.0,0.0,0.0,0.0,0.0,0.0,0.0,0.0,0.0,0.0,0.0,0.0,0.0,0.0,0.0,0.0,0.0,0.0,0.0,0.0,0.0,0.0,0.0,0.0,0.0,0.0,0.0,0.0,0.0,0.0,0.0,0.0,0.0,0.0,0.0,0.0,0.0,0.0,0.0,0.0,0.0,0.3914,0.4969,0.5783,0.6333,0.6649,0.6886,0.6782,0.6366,0.6566,0.6651,0.0,0.0,0.0,0.0,0.0,0.0,0.0,0.0,0.0,0.0,0.0,0.0,0.0,0.0,0.0,0.0,0.0,0.0,0.0,0.0,0.0,0.0,0.0,0.0,0.0,0.0,0.0,0.0,0.0137,-0.0063,-0.0229,0.0,0.0,0.0,0.0,0.0,0.0,0.0,0.0,0.0,0.0,-0.2958,-0.2968,-0.289,0.0,0.0,-0.3391,-0.3285,-0.3751,-0.3664,-0.3339,-0.29,-0.2803,0.0,0.0,0.0,0.0,0.0,0.0,0.0,0.0,0.0,0.0,0.0,0.0,0.0,0.0,0.0,0.0,0.0,0.0,0.0,0.0,0.0,0.0,0.0,0.0,0.0,0.0,0.0,0.0,0.0,0.0,0.0,0.0,0.0,0.0,0.0,0.0,0.0,0.0,0.0,0.0,0.0,0.0,0.0,0.0,0.0,0.0,0.0,0.0,0.0,0.0,0.0,0.0,0.4303,0.5624,0.6232,0.6924,0.7671,0.7655,0.7404,0.7028,0.7074,0.6959,0.0,0.0,0.0,0.0,0.0,0.0,0.0,0.0,0.0,0.0,0.0,0.0,0.0,0.0,0.0,0.0,0.0,0.0,0.0,0.0,0.0,0.0,0.0,0.0,0.0,0.0,0.0,0.0,0.0022,-0.0318,-0.0471,0.0,0.0,0.0,0.0,0.0,0.0,0.0,0.0,0.0,0.0,-0.3463,-0.3383,-0.3357,-0.3548,-0.397,-0.3705,-0.3556,-0.3961,-0.3754,-0.3492,-0.3269,0.0,0.0,0.0,0.0,0.0,0.0,0.0,0.0,0.0,0.0,0.0,0.0,0.0,0.0,0.0,0.0,0.0,0.0,0.0,0.0,0.0,0.0,0.0,0.0,0.0,0.0,0.0,0.0,0.0,0.0,0.1389,0.0,0.0,0.0,0.0,0.0,0.0,0.0,0.0,0.0,0.0,0.0,0.0,0.0,0.0,0.0,0.0,0.0,0.0,0.0,0.0,0.0,0.0,0.0,0.6157,0.6955,0.7484,0.7755,0.8206,0.82,0.772,0.7181,0.6832,0.662,0.0,0.0,0.0,0.0,0.0,0.0,0.0,0.0,0.0,0.0,0.0,0.0,0.0,0.0,0.0,0.0,0.0,0.0,0.0,0.0,0.0,0.0,0.0,0.0,0.0,0.0,0.0755,0.007,-0.0478,0.0,0.0,0.0,0.0,0.0,0.0,0.0,0.0,0.0,0.0,-0.3407,-0.3487,-0.3917,-0.3956,-0.4046,-0.4208,-0.4191,-0.4133,-0.4044,-0.4004,-0.3807,0.0,0.0,0.0,0.0,0.0,0.0,0.0,0.0,0.0,0.0,0.0,0.0,0.0,0.0,0.0,0.0,0.0,0.0,0.0,0.0,0.0,0.0,0.0,0.0,0.0,0.0,0.0,0.1798,0.1783,0.0,0.0,0.0,0.0,0.0,0.0,0.0,0.0,0.0,0.0,0.0,0.3959,0.4261,0.0,0.0,0.0,0.0,0.0,0.0,0.0,0.0,0.0,0.0,0.0,0.0,0.5362,0.6019,0.7134,0.8305,0.9387,0.9022,0.8753,0.8584,0.8112,0.7575,0.6952,0.0,0.0,0.0,0.0,0.0,0.0,0.0,0.0,0.0,0.0,0.0,0.0,0.0,0.0,0.0,0.0,0.0,0.0,0.0,0.0,0.0,0.0,0.0,0.0,0.0,0.0388,0.0,0.0,0.0,0.0,0.0,0.0,0.0,0.0,0.0,0.0,0.0,-0.3339,-0.3549,-0.3793,-0.3985,-0.4277,-0.4355,-0.4355,0.0,0.0,0.0,0.0,0.0,0.0,0.0,0.0,0.0,0.0,0.0,0.0,0.0,0.0,-0.6173,-0.5157,-0.505,-0.5045,-0.4825,0.0,0.0,0.0,0.0,0.0,0.0,0.0,0.0,0.0,0.0,0.0,0.0,0.0,0.0,0.2243,0.0,0.2216,0.0,0.0,0.0,0.0,0.0,0.0,0.0,0.0,0.4208,0.4559,0.4969,0.5222,0.5507,0.0,0.5682,0.5503,0.0,0.0,0.0,0.0,0.0,0.0,0.0,0.0,0.6025,0.6608,0.7769,0.8828,0.9794,0.9598,0.9449,0.9445,0.8594,0.7788,0.7051,0.6776,0.6514,0.0,0.0,0.0,0.0,0.0,0.0,0.0,0.0,0.0,0.0,0.0,0.0,0.0,0.0,0.0,0.0,0.0,0.0,0.0,0.0,0.0,0.0,0.0,0.0029,0.0,0.0,0.0,0.0,0.0,0.0,0.0,0.0,0.0,-0.2684,-0.3142,-0.355,-0.3707,-0.3983,-0.4217,-0.4501,0.0,0.0,0.0,0.0,0.0,0.0,0.0,-0.5392,-0.6115,-0.561,-0.5241,-0.5746,-0.6156,-0.6657,-0.7362,0.0,0.0,-0.6629,-0.6468,-0.652,-0.6551,-0.7237,-0.7925,-0.8123,-0.8744,-0.9346,0.0,0.0,0.0,0.0,0.0,0.0,0.0,0.0,0.2557,0.2758,0.0,0.2964,0.0,0.0,0.0,0.0,0.0,0.0,0.0,0.0,0.5412,0.5734,0.6043,0.6086,0.6154,0.6293,0.6687,0.6834,0.6684,0.517,0.0,0.0,0.0,0.0,0.0,0.0,0.6787,0.7839,0.8677,0.9104,0.9052,0.9809,1.0248,1.02,0.8585,0.7468,0.6948,0.7004,0.6679,0.5889,0.6056,0.0,0.0,0.0,0.0,0.0,0.0,0.0,0.0,0.0,0.0,0.0,0.0,0.0,0.0,0.0,0.0,0.0,0.0,0.0,0.0,0.0338,0.0,0.0,0.0,0.0,0.0,0.0,0.0,0.0,0.0,0.0,-0.268,-0.3207,-0.3712,-0.4005,0.0,0.0,0.0,0.0,-0.4896,-0.5888,-0.6053,-0.6206,-0.6704,-0.6655,-0.6507,-0.6303,0.0,0.0,-0.6216,-0.7082,-0.7817,-0.7931,-0.8542,-0.8976,-0.9245,-0.877,-0.8582,-0.9055,-0.9225,-0.9551,-1.0067,-1.0828,-1.1562,0.3054,0.0,0.0,0.0,0.0,0.3153,0.3295,0.3506,0.3609,0.3701,0.3853,0.3592,0.0,0.0,0.0,0.0,0.0,0.0,0.6147,0.6655,0.682,0.7121,0.7438,0.7525,0.7712,0.7985,0.7633,0.7574,0.7699,0.6574,0.5772,0.5322,0.0,0.0,0.0,0.0,0.7056,0.7416,0.8202,0.877,0.9016,0.9444,0.9647,0.9648,0.8398,0.7473,0.705,0.6855,0.6618,0.6346,0.5457,0.0,0.0,0.0,0.0,0.0,0.0,0.0,0.0,0.0,0.0,0.0,0.0,0.0,0.0,0.0,0.0,0.0,0.0,0.0,0.0305,0.0062,-0.0375,0.0,0.0,0.0,0.0,0.0,0.0,0.0,0.0,0.0,-0.3146,-0.3629,-0.4167,0.0,0.0,-0.5482,-0.5746,-0.6006,-0.6221,-0.6561,0.0,0.0,0.0,-0.6876,-0.6993,-0.7583,-0.7936,-0.8211,-0.8479,-0.885,-0.9425,-1.0402,-1.0533,-1.0677,-1.143,-1.0404,-0.961,-1.0004,-1.0496,-1.104,-1.1581,-1.2122,-1.2686,0.3648,0.3429,0.3328,0.3363,0.347,0.3762,0.4072,0.4284,0.4392,0.459,0.4845,0.4773,0.4894,0.509,0.524,0.0,0.0,0.0,0.7363,0.7643,0.7906,0.8065,0.8294,0.8296,0.8533,0.8982,0.876,0.8794,0.9047,0.8553,0.7953,0.7205,0.0,0.0,0.6204,0.7045,0.753,0.7702,0.8302,0.8778,0.9013,0.8815,0.8747,0.8697,0.8242,0.7643,0.6972,0.6872,0.6672,0.6286,0.5562,0.5068,0.0,0.0,0.0,0.0,0.0,0.0,0.0,0.0,0.0,0.0,0.0,0.1548,0.0,0.0,0.0,0.0,0.0875,0.0415,-0.0261,-0.0549,0.0,0.0,0.0,0.0,0.0,0.0,0.0,-0.2958,-0.3709,-0.418,-0.4089,-0.4686,-0.5067,-0.4922,-0.5592,-0.6166,-0.6401,0.0,-0.6775,-0.727,-0.7523,-0.7775,-0.8094,-0.8108,-0.8266,-0.8759,-0.9059,-0.9387,-0.9663,-1.0013,-1.0547,-1.1379,-1.1511,-1.1718,-1.2586,-1.1716,-1.1013,-1.1338,-1.1729,-1.2196,-1.2696,-1.3131,-1.3642,0.4443,0.4353,0.4249,0.4206,0.4195,0.4468,0.4743,0.5012,0.5077,0.5404,0.5866,0.625,0.6544,0.6783,0.7114,0.0,0.0,0.806,0.8329,0.8367,0.8719,0.8903,0.89,0.8698,0.8966,0.9632,1.0043,1.0254,1.0334,1.0535,1.0409,0.9774,0.7839,0.7068,0.7482,0.7851,0.8167,0.849,0.8758,0.8921,0.8877,0.8129,0.7694,0.7718,0.8114,0.7804,0.6804,0.6991,0.6721,0.5904,0.6047,0.5542,0.428,0.0,0.0,0.0,0.0,0.0,0.0,0.0,0.0,0.0,0.0,0.0,0.0,0.0,0.0,0.0,0.061,0.0,-0.0717,-0.126,0.0,0.0,0.0,-0.2328,-0.2675,-0.2895,-0.3145,-0.3416,0.0,0.0,0.0,0.0,-0.6219,-0.5521,-0.5962,-0.6431,-0.6727,-0.6714,-0.6916,-0.7952,-0.8155,-0.8528,-0.9294,-0.9594,-0.9704,-0.9687,-0.9799,-0.9954,-1.0184,-1.074,-1.1258,-1.1665,-1.1913,-1.2316,-1.2876,-1.2934,-1.2962,-1.2956,-1.2976,-1.3102,-1.3527,-1.403,-1.4455,0.5299,0.5845,0.6225,0.5823,0.4899,0.5284,0.5616,0.5741,0.5925,0.6116,0.6342,0.6564,0.699,0.7472,0.7829,0.8068,0.8321,0.92,0.9663,0.9883,1.0359,1.0598,1.059,1.0319,1.0372,1.0775,1.1181,1.1138,1.0656,1.0093,0.9865,0.9908,0.9027,0.8951,0.9591,0.9297,0.9165,0.9282,0.8727,0.8264,0.7995,0.7791,0.7694,0.7706,0.7566,0.7364,0.7084,0.6714,0.6416,0.6161,0.5465,0.4966,0.4778,0.387,0.0,0.0,0.0,0.0,0.0,0.0,0.0,0.0,0.0,0.1709,0.1464,0.0,0.0936,0.0,0.032,-0.0203,-0.0547,-0.1052,0.0,0.0,-0.2299,-0.2659,-0.3532,-0.3409,-0.3612,-0.4543,-0.5025,-0.545,-0.5928,-0.6609,-0.7,-0.6737,-0.7051,-0.7382,-0.7454,-0.7725,-0.7915,-0.8225,-0.8412,-0.8551,-0.8925,-0.9519,-0.9971,-0.9956,-1.0498,-1.1106,-1.1406,-1.1878,-1.2486,-1.3185,-1.3166,-1.345,-1.4277,-1.4233,-1.4192,-1.4444,-1.4264,-1.403,-1.4181,-1.4605,-1.5136,0.6365,0.6768,0.7253,0.7115,0.6428,0.6449,0.6522,0.662,0.6831,0.7043,0.7234,0.7756,0.8197,0.8647,0.8898,0.9179,0.953,1.0061,1.0464,1.0834,1.1099,1.1204,1.1204,1.1015,1.1178,1.1651,1.2071,1.2008,1.1424,1.0885,1.0601,1.0512,1.0264,1.0442,1.1019,1.0035,0.9568,0.9556,0.8504,0.7886,0.7692,0.7674,0.7674,0.7708,0.7527,0.7334,0.7224,0.6899,0.656,0.6275,0.5602,0.5167,0.4985,0.4296,0.3843,0.0,0.0,0.0,0.0,0.0,0.0,0.0,0.0,0.0,0.0,0.0,0.085,0.0,-0.0105,0.0,-0.0884,-0.1474,-0.2083,-0.2511,-0.2926,-0.3391,-0.3951,-0.3805,-0.4078,-0.5096,-0.5487,-0.5934,-0.6537,-0.7187,-0.7611,-0.7744,-0.7973,-0.8098,-0.8143,-0.8303,-0.8529,-0.8805,-0.8976,-0.9295,-0.9782,-1.026,-1.0691,-1.1135,-1.1575,-1.2061,-1.2594,-1.3012,-1.3527,-1.4264,-1.4281,-1.4312,-1.4929,-1.5038,-1.5101,-1.5281,-1.5493,-1.5448,-1.509,-1.5487,-1.6188,0.7508,0.7516,0.795,0.8138,0.8167,0.7695,0.7518,0.7535,0.7758,0.8093,0.8473,0.9263,0.9749,0.9974,1.0128,1.035,1.0593,1.0759,1.1032,1.1371,1.1443,1.1451,1.1405,1.1396,1.1706,1.2255,1.2676,1.2622,1.2152,1.2026,1.1691,1.1226,1.1129,1.1309,1.1703,1.0404,0.9694,0.9603,0.8387,0.778,0.7705,0.779,0.7847,0.7836,0.7717,0.7498,0.723,0.709,0.6723,0.6162,0.5937,0.5569,0.505,0.5096,0.4863,0.0,0.3954,0.0,0.0,0.0,0.0,0.0,0.0,0.0,0.0,0.1442,0.0712,-0.0591,-0.0548,-0.0708,-0.1392,-0.2113,-0.2668,-0.2951,-0.3679,-0.415,-0.4097,-0.4247,-0.4639,-0.5318,-0.5937,-0.6534,-0.7241,-0.7732,-0.8165,-0.858,-0.8652,-0.8679,-0.8745,-0.8752,-0.8895,-0.9463,-0.9654,-1.0081,-1.1032,-1.1414,-1.1758,-1.2521,-1.2804,-1.3082,-1.3779,-1.411,-1.4527,-1.5211,-1.544,-1.5445,-1.5461,-1.5822,-1.6077,-1.6139,-1.677,-1.702,-1.6292,-1.6608,-1.7321,0.8401,0.8931,0.9139,0.9072,0.8794,0.867,0.844,0.8133,0.861,0.9328,1.0217,1.0494,1.0777,1.1023,1.1023,1.0915,1.0654,1.1538,1.1696,1.136,1.2388,1.2691,1.2421,1.2522,1.2589,1.2618,1.2554,1.2353,1.1927,1.1377,1.1118,1.1133,1.0719,1.0674,1.0981,0.0,0.0,0.0,0.872,0.8086,0.7718,0.8399,0.8665,0.8494,0.7734,0.0,0.7155,0.6405,0.5935,0.5807,0.5541,0.0,0.0,0.0,0.0,0.0,0.0,0.0,0.0,0.0,0.0,0.0,0.1969,0.1506,0.1235,0.0577,-0.0084,-0.0659,-0.0707,-0.0975,-0.1599,-0.2096,-0.2698,-0.3304,-0.3896,-0.4227,-0.4417,-0.4779,-0.5358,-0.5982,-0.6591,-0.7295,-0.815,-0.8412,-0.8629,-0.9064,-0.911,-0.9201,-0.9577,-0.9319,-0.9131,-0.9292,-0.9982,-1.0601,-1.125,-1.1995,-1.2691,-1.3303,-1.3815,-1.4345,-1.5119,-1.5361,-1.5777,-1.6695,-1.689,-1.7023,-1.7446,-1.7748,-1.7922,-1.7767,-1.837,-1.8541,-1.7451,-1.7625,-1.8264,0.9087,0.0,0.9478,0.9414,0.0,0.9451,0.9504,0.9294,0.9434,1.0118,1.1258,1.137,1.1483,1.1551,1.1608,1.1555,1.1475,1.2085,1.2432,1.2477,1.2964,1.3123,1.2927,1.3034,1.2929,1.2704,1.2144,1.1805,1.1673,1.1226,1.0914,1.0728,1.0306,1.0283,1.055,1.0438,1.0165,0.9618,0.9249,0.8825,0.8216,0.8282,0.831,0.819,0.0,0.0,0.0,0.0,0.0,0.0,0.0,0.0,0.0,0.0,0.0,0.4221,0.3927,0.3528,0.2974,0.2816,0.2674,0.2554,0.1541,0.0917,0.0909,0.0257,-0.0366,-0.0765,-0.1089,-0.1382,-0.1658,-0.2462,-0.3131,-0.3508,-0.4237,-0.4759,-0.4937,-0.5391,-0.5991,-0.6588,-0.7074,-0.7711,-0.8521,-0.8788,-0.9172,-0.9723,-1.0064,-1.0428,-1.0867,-1.0174,-0.9673,-1.0138,-1.0834,-1.1493,-1.199,-1.2667,-1.3389,-1.3936,-1.4847,-1.5717,-1.6432,-1.6992,-1.7581,-1.8303,-1.8614,-1.8826,-1.9062,-1.9559,-1.9848,-1.9626,-1.9968,-2.0203,-1.9468,-1.9322,-1.9503,0.9478,0.9478,0.9478,0.9478,0.9545,0.9986,1.0308,1.0455,0.0,0.0,0.0,1.219,1.2199,1.2097,1.2203,1.2318,1.2458,1.2646,1.3039,1.3569,1.335,1.3218,1.3154,1.3229,1.3072,1.2683,1.1743,1.1375,1.1427,1.1171,1.0824,1.0423,1.0201,1.0205,1.0261,1.0158,0.994,0.9618,0.9736,0.9485,0.886,0.825,0.774,0.7377,0.6956,0.6721,0.6713,0.6369,0.6064,0.578,0.5538,0.5337,0.5176,0.5259,0.5098,0.4681,0.3916,0.341,0.3306,0.2843,0.2423,0.2133,0.0979,0.0471,0.0917,0.0093,-0.068,-0.1166,-0.1606,-0.192,-0.2031,-0.2993,-0.3727,-0.3891,-0.4836,-0.5443,-0.5496,-0.5989,-0.6588,-0.713,-0.7599,-0.8125,-0.8781,-0.9306,-0.985,-1.0574,-1.1259,-1.1875,-1.2314,-1.1473,-1.0849,-1.1409,-1.2045,-1.2556,-1.3027,-1.3794,-1.4336,-1.5174,-1.6288,-1.7279,-1.7958,-1.8766,-1.953,-2.0213,-2.0543,-2.0698,-2.086,-2.1381,-2.1704,-2.1349,-2.153,-2.1728,-2.1638,-2.1213,-2.0966,0.9478,0.9478,0.9478,0.9478,0.9481,0.9609,1.0174,1.117,1.1697,1.2401,1.3086,1.3241,1.3241,1.3091,1.3086,1.3038,1.2928,1.312,1.3338,0.0,1.3555,1.3386,1.305,1.3389,1.3176,1.2441,1.1662,1.1234,1.1137,1.1027,1.082,1.0671,1.0624,1.0518,1.032,1.0368,1.0146,0.9618,0.9618,0.9577,0.9482,0.9036,0.7885,0.6129,0.6642,0.687,0.6702,0.6096,0.5757,0.5711,0.5325,0.4978,0.4714,0.5258,0.4975,0.3587,0.317,0.3011,0.2979,0.2673,0.2047,0.1033,0.0717,0.1031,0.1836,-0.0153,-0.1779,-0.2361,-0.2533,-0.2756,-0.3268,-0.387,-0.4481,-0.5011,-0.5668,-0.6046,-0.6121,-0.667,-0.7163,-0.7631,-0.8137,-0.8798,-0.9579,-1.0446,-1.1117,-1.1699,-1.2591,-1.3199,-1.3417,-1.309,-1.2751,-1.2687,-1.3294,-1.3895,-1.4335,-1.5375,-1.6465,-1.7517,-1.8182,-1.9066,-2.0119,-2.0556,-2.1171,-2.2304,-2.2502,-2.2697,-2.3001,-2.3389,-2.3457,-2.3215,-2.2973,-2.2793,-2.2971,-2.2621,-2.2325,0.9478,0.9478,0.9478,0.9478,0.9548,1.011,1.1048,1.2239,1.2548,1.2932,1.3302,1.3459,1.3454,1.3402,1.3407,1.3374,1.3284,1.3385,1.3438,1.35,1.3553,1.3456,1.3265,1.3462,1.3264,1.2709,1.2158,1.1761,1.1498,1.1325,1.1164,1.0879,1.0863,1.071,1.0415,1.0201,0.988,0.9417,0.9361,0.9427,0.9561,0.8647,0.7572,0.6502,0.6613,0.6622,0.6557,0.608,0.5863,0.5863,0.5363,0.5,0.4875,0.4907,0.4561,0.3712,0.3399,0.2934,0.2102,0.2459,0.1891,0.0,-0.0805,-0.0652,0.0427,-0.0866,-0.2295,-0.3507,-0.3385,-0.3317,-0.3717,-0.4568,-0.5282,-0.5616,-0.6542,-0.7118,-0.7175,-0.7632,-0.8137,-0.8633,-0.9085,-0.9808,-1.0775,-1.1506,-1.2251,-1.294,-1.4126,-1.5119,-1.5755,-1.6133,-1.5786,-1.4506,-1.5128,-1.5926,-1.6121,-1.7107,-1.8099,-1.8793,-1.9826,-2.0826,-2.1865,-2.2359,-2.3147,-2.3967,-2.428,-2.4473,-2.4676,-2.4903,-2.4963,-2.4755,-2.4281,-2.4028,-2.387,-2.3564,-2.3296,0.9478,0.9478,0.9478,0.9548,0.9737,1.0671,1.174,1.2797,1.2989,1.3172,1.3354,1.3454,1.3511,1.3511,1.3511,1.3511,1.3511,1.3511,1.3511,1.3511,1.3511,1.3511,1.3489,1.3504,1.3338,1.3025,1.2733,1.2406,1.1954,1.1809,1.1557,1.1221,1.1115,1.083,1.0308,0.9976,0.9558,0.9054,0.889,0.9022,0.9267,0.807,0.7346,0.7061,0.6707,0.6447,0.639,0.606,0.5865,0.5865,0.5206,0.4828,0.4837,0.4349,0.3993,0.3816,0.3683,0.2875,0.129,0.1644,0.124,-0.0593,-0.1877,-0.2246,-0.1694,-0.1979,-0.2885,-0.4255,-0.4334,-0.4213,-0.4471,-0.5478,-0.624,-0.6451,-0.7421,-0.8108,-0.8246,-0.8613,-0.9146,-0.9721,-1.0179,-1.0895,-1.1816,-1.2603,-1.3469,-1.4627,-1.5935,-1.7236,-1.8072,-1.8773,-1.8339,-1.7355,-1.7391,-1.7943,-1.8134,-1.8976,-1.9843,-2.0325,-2.1542,-2.2588,-2.3434,-2.4249,-2.4784,-2.5193,-2.5488,-2.5704,-2.5873,-2.6137,-2.6278,-2.6193,-2.5825,-2.5253,-2.473,-2.4463,-2.4133,0.9478,0.9478,0.9478,0.9798,1.0304,1.0993,1.1677,1.2428,1.2997,1.3346,1.3454,1.3511,1.3511,1.3511,1.3511,1.3511,1.3511,1.3511,1.3511,1.3511,1.3511,1.3511,1.3511,1.3472,1.3301,1.3089,1.3233,1.2998,1.2355,1.2329,1.2091,1.1718,1.1414,1.0765,0.9959,0.9821,0.935,0.8474,0.8046,0.8043,0.8431,0.7972,0.7471,0.7124,0.6813,0.6603,0.6384,0.5814,0.5552,0.5455,0.4585,0.4045,0.4053,0.3624,0.3281,0.3279,0.346,0.2587,0.0387,-0.0334,-0.0446,-0.0502,-0.1566,-0.2556,-0.3208,-0.345,-0.3919,-0.4766,-0.5449,-0.5686,-0.5843,-0.6856,-0.7591,-0.7711,-0.8309,-0.8795,-0.9233,-0.9373,-0.9782,-1.0705,-1.1279,-1.1867,-1.2591,-1.3816,-1.5215,-1.6525,-1.7781,-1.8661,-1.8972,-1.9794,-2.0472,-2.0178,-2.0035,-1.9766,-2.0119,-2.0899,-2.1895,-2.3011,-2.3769,-2.4422,-2.4981,-2.5329,-2.5632,-2.6038,-2.6106,-2.6334,-2.6778,-2.7052,-2.7283,-2.7489,-2.7248,-2.6781,-2.5894,-2.5562,-2.5273,0.9478,0.9478,0.9478,0.9989,1.0737,1.1428,1.2112,1.2736,1.3119,1.335,1.3511,1.3511,1.3511,1.3511,1.3511,1.3511,1.3511,1.3511,1.3511,1.3511,1.3511,1.3511,1.3511,1.3511,1.3417,1.3301,1.3441,1.3247,1.2819,1.2509,1.2138,1.1552,1.1017,1.041,0.9699,0.9359,0.8793,0.815,0.7619,0.7456,0.7622,0.7456,0.7247,0.7109,0.6989,0.6747,0.6288,0.5949,0.5632,0.5372,0.4643,0.4333,0.4444,0.3159,0.27,0.3249,0.2201,0.105,0.0056,-0.0561,-0.1244,-0.1959,-0.2596,-0.3214,-0.3553,-0.4166,-0.4953,-0.5821,-0.603,-0.603,-0.6261,-0.7379,-0.8279,-0.8648,-0.9254,-0.9817,-1.0309,-1.036,-1.0788,-1.1865,-1.2213,-1.2902,-1.4132,-1.57,-1.7043,-1.812,-1.9147,-1.9908,-2.028,-2.1191,-2.1878,-2.2352,-2.2416,-2.2469,-2.2454,-2.2899,-2.3782,-2.4548,-2.5018,-2.5392,-2.6019,-2.6255,-2.642,-2.692,-2.6985,-2.7217,-2.7766,-2.7877,-2.8049,-2.8342,-2.8149,-2.7567,-2.6855,-2.6781,-2.6588,0.9478,0.9481,0.9676,1.0238,1.1115,1.1802,1.2486,1.305,1.3294,1.3402,1.3511,1.3511,1.3511,1.3511,1.3511,1.3511,1.3511,1.3511,1.3511,1.3511,1.3511,1.3511,1.3511,1.3511,1.3511,1.3511,1.3502,1.331,1.2869,1.2489,1.1943,1.1214,1.0548,0.9938,0.9415,0.8946,0.8416,0.7798,0.7345,0.7155,0.7095,0.7136,0.7136,0.7082,0.6918,0.6642,0.6209,0.5762,0.5384,0.5113,0.457,0.4302,0.4416,0.2791,0.2069,0.2416,0.1009,-0.0112,-0.0224,-0.0961,-0.1837,-0.2819,-0.3376,-0.374,-0.3903,-0.4752,-0.5721,-0.6472,-0.6661,-0.6832,-0.7122,-0.8098,-0.9059,-0.9666,-1.0218,-1.0671,-1.1101,-1.1351,-1.1881,-1.283,-1.3515,-1.4355,-1.5938,-1.7456,-1.8643,-1.9089,-2.0256,-2.1281,-2.1815,-2.2593,-2.3362,-2.3903,-2.4457,-2.4514,-2.4263,-2.4404,-2.508,-2.5652,-2.5958,-2.6258,-2.6856,-2.6987,-2.7149,-2.7637,-2.7833,-2.8058,-2.842,-2.8582,-2.8764,-2.8948,-2.8839,-2.8334,-2.7578,-2.7787,-2.7644,0.9478,0.9618,1.0053,1.0674,1.1369,1.1992,1.2674,1.3245,1.3402,1.3511,1.3511,1.3511,1.3511,1.3511,1.3511,1.3511,1.3511,1.3511,1.3511,1.3511,1.3511,1.3511,1.3511,1.3511,1.3511,1.3385,1.3446,1.3178,1.2586,1.2291,1.1719,1.0738,1.012,0.9495,0.8961,0.882,0.8349,0.757,0.7435,0.7279,0.713,0.7098,0.7098,0.6936,0.6537,0.6261,0.6046,0.5117,0.4572,0.4519,0.3967,0.3698,0.3592,0.2464,0.1287,0.028,-0.0,-0.0337,-0.0958,-0.1906,-0.2593,-0.2665,-0.3514,-0.4037,-0.4398,-0.5389,-0.6227,-0.6435,-0.7639,-0.8414,-0.8937,-0.9512,-1.0246,-1.0783,-1.0919,-1.1237,-1.1736,-1.2282,-1.2895,-1.367,-1.5051,-1.6419,-1.7743,-1.8943,-1.9544,-2.0098,-2.1397,-2.2689,-2.3091,-2.385,-2.4562,-2.5102,-2.5422,-2.5438,-2.512,-2.5338,-2.587,-2.6421,-2.6836,-2.7137,-2.7533,-2.7869,-2.8112,-2.8278,-2.8355,-2.8561,-2.8993,-2.9294,-2.9485,-2.9659,-2.9788,-2.932,-2.8593,-2.8811,-2.8565,1.0083,1.0295,1.0628,1.1111,1.1802,1.2486,1.292,1.3306,1.3459,1.3511,1.3511,1.3515,1.3511,1.3511,1.3511,1.3511,1.3511,1.3511,1.3511,1.3511,1.3511,1.3511,1.3511,1.3511,1.326,1.2952,1.3143,1.2968,1.2332,1.1725,1.112,1.0564,0.9799,0.9174,0.878,0.863,0.8269,0.7701,0.7674,0.7499,0.7151,0.7215,0.6908,0.6019,0.5977,0.5873,0.566,0.4503,0.3901,0.3914,0.3695,0.3588,0.3425,0.1737,-0.028,-0.2083,-0.2578,-0.2547,-0.2204,-0.2799,-0.3548,-0.4237,-0.4146,-0.46,-0.5424,-0.6047,-0.6727,-0.762,-0.8407,-0.9305,-1.0082,-1.0358,-1.0611,-1.1303,-1.1549,-1.1919,-1.265,-1.3139,-1.3726,-1.5114,-1.6604,-1.7835,-1.8925,-1.9934,-2.0775,-2.1622,-2.2922,-2.3754,-2.4115,-2.4729,-2.5347,-2.5644,-2.6129,-2.6505,-2.6413,-2.6438,-2.6763,-2.7225,-2.7634,-2.7849,-2.8183,-2.8372,-2.8558,-2.8828,-2.8887,-2.9075,-2.9476,-2.9788,-3.0018,-3.0145,-3.0292,-2.9888,-2.9742,-2.938,-2.9003,1.0707,1.0919,1.1433,1.1984,1.2498,1.3137,1.3593,1.3722,1.3834,1.3887,1.3883,1.3887,1.3887,1.3892,1.3892,1.3806,1.3686,1.3575,1.3511,1.3511,1.3511,1.3511,1.3511,1.3511,1.313,1.2569,1.2581,1.2347,1.1729,1.1064,1.051,0.9961,0.9406,0.8946,0.8666,0.8526,0.8277,0.8017,0.7911,0.7748,0.7349,0.7221,0.6601,0.5624,0.5537,0.538,0.5016,0.4119,0.3626,0.3583,0.3585,0.3606,0.3361,0.0398,-0.2121,-0.3611,-0.4033,-0.3831,-0.3174,-0.3564,-0.435,-0.526,-0.5113,-0.5434,-0.6584,-0.692,-0.7572,-0.8417,-0.9189,-1.0018,-1.0727,-1.1045,-1.1413,-1.217,-1.2351,-1.2712,-1.3683,-1.42,-1.5289,-1.6818,-1.7981,-1.9049,-2.001,-2.0984,-2.1944,-2.2958,-2.4021,-2.4649,-2.5074,-2.5615,-2.6164,-2.6311,-2.6954,-2.7374,-2.7458,-2.7578,-2.7549,-2.7949,-2.8295,-2.8552,-2.8709,-2.885,-2.9054,-2.9303,-2.9505,-2.9674,-2.992,-3.0219,-3.0391,-3.0501,-3.0082,-2.9619,-2.9567,-2.9547,-2.8931,1.124,1.1426,1.2564,1.3103,1.3427,1.4028,1.4436,1.4598,1.4607,1.4555,1.453,1.4615,1.4551,1.4615,1.4547,1.4427,1.4089,1.378,1.3583,1.3515,1.3511,1.3511,1.3511,1.3446,1.3009,1.2328,1.1823,1.1212,1.0671,1.0531,1.0088,0.9271,0.9078,0.8871,0.8501,0.8471,0.8379,0.8264,0.8151,0.8054,0.7776,0.7146,0.6393,0.5648,0.5162,0.4805,0.4501,0.3935,0.3615,0.3608,0.361,0.3595,0.2932,-0.1117,-0.4197,-0.4163,-0.4072,-0.3764,-0.3711,-0.4436,-0.5018,-0.5486,-0.5973,-0.6569,-0.7307,-0.7969,-0.8425,-0.8751,-0.9588,-1.0491,-1.1045,-1.1973,-1.2834,-1.339,-1.3381,-1.3748,-1.451,-1.5593,-1.7002,-1.8507,-1.9334,-2.0073,-2.1017,-2.2011,-2.2973,-2.3758,-2.4602,-2.5376,-2.5987,-2.6564,-2.7163,-2.7534,-2.783,-2.8067,-2.8381,-2.8636,-2.857,-2.8594,-2.8918,-2.9172,-2.9225,-2.9363,-2.9549,-2.977,-2.9851,-3.0018,-3.0179,-3.0443,-3.0495,-3.0474,-2.9903,-2.945,-2.9341,-2.9172,-2.8472,1.2004,1.2731,1.2995,1.3518,1.4069,1.4333,1.4544,1.4679,1.4684,1.4684,1.4684,1.4684,1.4684,1.4688,1.4684,1.4624,1.4487,1.4354,1.4042,1.3601,1.3524,1.3519,1.3394,1.3009,1.2393,1.1659,1.1101,1.0671,1.0425,1.0351,0.9967,0.9271,0.8955,0.8832,0.8705,0.8576,0.8466,0.8414,0.8398,0.8371,0.818,0.7447,0.629,0.4899,0.4763,0.4606,0.4126,0.3885,0.3827,0.3822,0.3772,0.3676,0.2669,-0.1396,-0.4169,-0.433,-0.4224,-0.4198,-0.4392,-0.5066,-0.5734,-0.6128,-0.6696,-0.7377,-0.8034,-0.8358,-0.8751,-0.9142,-1.0168,-1.0867,-1.1237,-1.2401,-1.3316,-1.3511,-1.3928,-1.4465,-1.5274,-1.6569,-1.7993,-1.927,-2.0181,-2.1066,-2.2058,-2.3121,-2.3941,-2.461,-2.5491,-2.6339,-2.6766,-2.7218,-2.769,-2.8106,-2.8415,-2.8702,-2.8946,-2.9172,-2.9265,-2.9237,-2.9448,-2.9604,-2.9693,-2.9784,-2.9994,-3.0121,-3.0205,-3.0323,-3.0498,-3.0583,-3.0623,-3.0427,-2.9962,-2.9564,-2.9207,-2.8729,-2.8192,1.3024,1.3706,1.3919,1.4319,1.4811,1.4883,1.4955,1.5099,1.5099,1.5103,1.5103,1.5103,1.5099,1.5099,1.5099,1.5013,1.4893,1.4881,1.4542,1.3982,1.3768,1.3725,1.3506,1.2556,1.1714,1.0989,1.0425,1.011,0.9986,0.9907,0.9643,0.9207,0.8894,0.877,0.8705,0.8576,0.8514,0.8514,0.8511,0.8533,0.8262,0.7414,0.6033,0.4598,0.4539,0.4385,0.4071,0.4009,0.3966,0.3899,0.3762,0.3286,0.2065,-0.1817,-0.4297,-0.4284,-0.4338,-0.4385,-0.4645,-0.5356,-0.6133,-0.666,-0.7381,-0.8102,-0.8689,-0.8885,-0.9145,-0.9795,-1.0485,-1.1163,-1.1787,-1.2952,-1.3863,-1.4222,-1.4579,-1.5279,-1.6296,-1.7775,-1.9049,-2.0124,-2.1079,-2.2111,-2.3179,-2.3964,-2.4886,-2.5553,-2.6325,-2.7043,-2.7392,-2.7841,-2.8268,-2.8645,-2.8941,-2.9202,-2.9428,-2.9669,-2.9924,-2.9937,-2.9973,-3.0003,-3.0018,-3.0115,-3.0259,-3.0343,-3.0424,-3.0486,-3.0637,-3.0667,-3.0679,-3.0326,-3.0067,-2.9638,-2.9248,-2.8831,-2.8436,1.4126,1.4277,1.5129,1.545,1.5513,1.5666,1.5715,1.5767,1.5758,1.5728,1.5741,1.5694,1.5733,1.5767,1.5536,1.5297,1.5159,1.4894,1.4739,1.4371,1.4061,1.3772,1.3294,1.2092,1.1157,1.0425,0.9862,0.9542,0.9606,0.9402,0.9207,0.9014,0.8832,0.8705,0.8576,0.8514,0.8514,0.8514,0.8514,0.8533,0.8437,0.7134,0.5783,0.4386,0.4331,0.4335,0.4264,0.4057,0.3917,0.382,0.344,0.2211,0.0064,-0.2711,-0.4319,-0.433,-0.4295,-0.4421,-0.4752,-0.5536,-0.633,-0.7051,-0.7964,-0.8818,-0.9347,-0.9539,-0.9795,-1.0421,-1.0982,-1.164,-1.2651,-1.3841,-1.4746,-1.5449,-1.5623,-1.6312,-1.7892,-1.9032,-2.001,-2.1066,-2.21,-2.3143,-2.414,-2.4792,-2.5603,-2.6377,-2.6967,-2.7495,-2.7975,-2.8452,-2.8905,-2.9218,-2.9439,-2.963,-2.9822,-2.9899,-3.0117,-3.0217,-3.026,-3.0267,-3.0279,-3.0365,-3.0458,-3.0547,-3.0597,-3.0667,-3.0718,-3.0739,-3.0752,-3.0623,-3.0237,-2.9733,-2.9324,-2.8958,-2.8835,1.4493,1.5141,1.5426,1.5576,1.5726,1.5801,1.5805,1.581,1.5805,1.5735,1.5805,1.581,1.573,1.5735,1.5129,1.4838,1.4687,1.4245,1.3957,1.3744,1.3443,1.265,1.1902,1.1358,1.0619,0.9896,0.9637,0.9481,0.9484,0.9215,0.9081,0.8952,0.87,0.8576,0.8514,0.8514,0.8514,0.8514,0.8514,0.8481,0.832,0.7084,0.574,0.4492,0.4298,0.4302,0.4165,0.3221,0.3212,0.3907,0.197,0.0723,-0.033,-0.2782,-0.4332,-0.4292,-0.4302,-0.4364,-0.4824,-0.574,-0.6593,-0.7051,-0.8293,-0.9329,-0.9837,-1.004,-1.0541,-1.134,-1.202,-1.2465,-1.3126,-1.4312,-1.5673,-1.6991,-1.7002,-1.7323,-1.8567,-1.955,-2.069,-2.2046,-2.2965,-2.3838,-2.4721,-2.5599,-2.6319,-2.6948,-2.7569,-2.8147,-2.8577,-2.8879,-2.9275,-2.9572,-2.9807,-2.9989,-3.0136,-3.0184,-3.0279,-3.0399,-3.0457,-3.0477,-3.0474,-3.0503,-3.0599,-3.0701,-3.0689,-3.0746,-3.0762,-3.0776,-3.0788,-3.0787,-3.0274,-2.9721,-2.9537,-2.926,-2.9208,1.4919,1.5505,1.5576,1.5726,1.573,1.5426,1.543,1.5509,1.5066,1.5141,1.5355,1.4987,1.4995,1.507,1.447,1.4106,1.4099,1.3673,1.3524,1.3429,1.2974,1.2141,1.1293,1.1092,1.0552,0.9735,0.9649,0.9583,0.9438,0.9151,0.902,0.8955,0.8638,0.8514,0.8514,0.8514,0.8514,0.8449,0.8252,0.8216,0.8343,0.6826,0.5486,0.4499,0.4302,0.4303,0.4169,0.3496,0.3229,0.2959,0.1208,-0.0537,-0.181,-0.3292,-0.4304,-0.4302,-0.4302,-0.4432,-0.4888,-0.5732,-0.6449,-0.7309,-0.8678,-0.9585,-1.0098,-1.0418,-1.1038,-1.2143,-1.2638,-1.3054,-1.3898,-1.5223,-1.6753,-1.8026,-1.8502,-1.8922,-1.9742,-2.0714,-2.1771,-2.2912,-2.3779,-2.461,-2.5504,-2.6353,-2.6986,-2.7575,-2.8164,-2.8676,-2.9116,-2.9344,-2.9584,-2.9918,-3.0075,-3.0196,-3.0313,-3.0376,-3.0398,-3.051,-3.0554,-3.0599,-3.0596,-3.0603,-3.0681,-3.0752,-3.078,-3.0784,-3.0772,-3.0755,-3.0761,-3.0584,-3.0122,-2.9962,-2.9851,-2.9662,-2.9611,1.5346,1.5568,1.573,1.581,1.566,1.505,1.5125,1.5204,1.441,1.4338,1.4768,1.4042,1.4046,1.4186,1.368,1.339,1.3382,1.3091,1.3091,1.2868,1.2444,1.1772,1.1255,1.1138,1.0694,1.0013,0.9977,0.9805,0.9631,0.9284,0.9094,0.9046,0.8706,0.8536,0.8525,0.8514,0.8514,0.8382,0.8047,0.7809,0.7785,0.6558,0.5357,0.4432,0.4302,0.4304,0.431,0.411,0.3567,0.1945,0.0538,-0.1479,-0.3772,-0.4247,-0.4308,-0.4302,-0.4302,-0.4498,-0.5019,-0.5399,-0.6111,-0.7437,-0.8871,-0.9904,-1.0295,-1.0737,-1.16,-1.294,-1.2919,-1.3691,-1.5023,-1.6543,-1.7989,-1.9241,-2.0136,-2.0795,-2.1439,-2.2251,-2.3061,-2.3769,-2.4609,-2.5587,-2.6362,-2.7026,-2.7555,-2.8286,-2.8823,-2.9231,-2.9558,-2.9756,-3.0014,-3.0286,-3.0365,-3.0355,-3.0466,-3.0558,-3.056,-3.0592,-3.0622,-3.0644,-3.063,-3.065,-3.0719,-3.0761,-3.071,-3.07,-3.0706,-3.0701,-3.0693,-3.062,-3.0314,-3.0358,-3.0404,-3.0143,-3.0004,1.5572,1.5726,1.5801,1.581,1.573,1.5426,1.5355,1.543,1.4987,1.4625,1.4482,1.419,1.3901,1.3608,1.2879,1.2589,1.2512,1.1996,1.1626,1.1552,1.1481,1.1295,1.1098,1.1016,1.0633,1.0303,1.0242,1.0203,1.0012,0.9746,0.9502,0.9264,0.8975,0.8697,0.8549,0.8546,0.8517,0.8447,0.8112,0.7589,0.7086,0.6626,0.5627,0.4502,0.4302,0.4302,0.4306,0.4318,0.303,0.0805,-0.0939,-0.2555,-0.3907,-0.4308,-0.4304,-0.4302,-0.43,-0.4563,-0.5087,-0.5675,-0.633,-0.7323,-0.8686,-0.9716,-1.0398,-1.1108,-1.2216,-1.3438,-1.3763,-1.4549,-1.6492,-1.7894,-1.9368,-2.0715,-2.1756,-2.2687,-2.3686,-2.377,-2.3955,-2.4713,-2.5604,-2.6514,-2.7131,-2.7715,-2.8302,-2.8989,-2.941,-2.9783,-2.9981,-3.0156,-3.0316,-3.0529,-3.0503,-3.0482,-3.0545,-3.0597,-3.0576,-3.0582,-3.0615,-3.0594,-3.0584,-3.0633,-3.0686,-3.0667,-3.061,-3.0613,-3.0623,-3.0589,-3.057,-3.0527,-3.049,-3.0453,-3.0401,-3.0323,-3.0266,1.5655,1.5805,1.581,1.581,1.573,1.528,1.5204,1.5284,1.4697,1.4338,1.4126,1.3688,1.3175,1.2736,1.207,1.1703,1.1632,1.1335,1.1114,1.1114,1.1114,1.1114,1.1099,1.0966,1.077,1.055,1.0511,1.0462,1.023,0.9997,0.9693,0.9588,0.9231,0.8902,0.8711,0.8673,0.8414,0.7932,0.7584,0.7199,0.7107,0.6032,0.5367,0.4502,0.4235,0.4097,0.3291,0.398,0.1882,-0.1006,-0.2688,-0.3429,-0.4102,-0.4302,-0.4302,-0.4302,-0.4302,-0.4696,-0.5355,-0.5956,-0.6616,-0.7526,-0.8818,-0.9646,-1.0584,-1.1469,-1.2931,-1.4146,-1.483,-1.5685,-1.8059,-1.9346,-2.0763,-2.2124,-2.3113,-2.4091,-2.5035,-2.4843,-2.4715,-2.5598,-2.6479,-2.7154,-2.7781,-2.8385,-2.8951,-2.9574,-2.9684,-3.0022,-3.0247,-3.0394,-3.0462,-3.0581,-3.0571,-3.0584,-3.0631,-3.0632,-3.0558,-3.0554,-3.0549,-3.0488,-3.0423,-3.0514,-3.0614,-3.0564,-3.0519,-3.0537,-3.0545,-3.0501,-3.0443,-3.0413,-3.0381,-3.0356,-3.0273,-3.0169,-3.0174,1.5647,1.581,1.581,1.581,1.5655,1.5058,1.5054,1.5284,1.4258,1.397,1.3764,1.2816,1.2442,1.1855,1.1406,1.1111,1.1114,1.1114,1.1114,1.1114,1.1114,1.1114,1.1102,1.1063,1.0982,1.0794,1.0779,1.0665,1.0402,1.0102,0.9936,0.9783,0.9479,0.9139,0.8964,0.8904,0.8609,0.7898,0.727,0.6981,0.7204,0.5776,0.4835,0.4368,0.4303,0.3626,0.2753,0.2624,0.1278,-0.3509,-0.4181,-0.4308,-0.4299,-0.4276,-0.4291,-0.4291,-0.4277,-0.4798,-0.5618,-0.616,-0.6751,-0.7979,-0.9069,-1.0018,-1.0766,-1.2008,-1.3403,-1.4852,-1.5935,-1.7398,-1.9478,-2.0886,-2.212,-2.332,-2.4273,-2.5171,-2.591,-2.5782,-2.6059,-2.6597,-2.7344,-2.8008,-2.8517,-2.9061,-2.9592,-3.0023,-3.0116,-3.0239,-3.0453,-3.0592,-3.0636,-3.063,-3.0622,-3.057,-3.0596,-3.0525,-3.0469,-3.0467,-3.0463,-3.0382,-3.0302,-3.0367,-3.0441,-3.0452,-3.0432,-3.0452,-3.0442,-3.0399,-3.0354,-3.0309,-3.0273,-3.0244,-3.0147,-3.0019,-3.0034,1.5801,1.581,1.581,1.581,1.5735,1.5497,1.5426,1.5434,1.5062,1.4326,1.3382,1.3164,1.2362,1.1481,1.1189,1.1114,1.1114,1.1114,1.1114,1.1114,1.1114,1.1114,1.1114,1.1114,1.1072,1.1066,1.1027,1.0969,1.0804,1.0612,1.0233,1.0055,0.9735,0.9392,0.9214,0.9133,0.883,0.809,0.7439,0.7126,0.6378,0.5888,0.5011,0.4407,0.4349,0.3524,0.2158,0.1146,-0.0336,-0.2351,-0.3634,-0.418,-0.4372,-0.4303,-0.4302,-0.4413,-0.4458,-0.4993,-0.5966,-0.6104,-0.7005,-0.8293,-0.9384,-1.0328,-1.1392,-1.2565,-1.4067,-1.5882,-1.7838,-1.9629,-2.0712,-2.236,-2.3759,-2.4837,-2.5521,-2.6234,-2.7164,-2.7425,-2.7386,-2.7826,-2.838,-2.8824,-2.9259,-2.9606,-2.9992,-3.0298,-3.0411,-3.0481,-3.063,-3.0711,-3.0745,-3.0706,-3.0662,-3.0589,-3.0537,-3.0413,-3.0332,-3.0332,-3.0311,-3.027,-3.0211,-3.023,-3.0257,-3.0199,-3.0251,-3.0304,-3.0279,-3.0264,-3.0215,-3.0155,-3.0147,-3.0128,-2.9984,-2.9839,-2.9805,1.573,1.5805,1.581,1.581,1.5805,1.5726,1.5651,1.5651,1.5505,1.4697,1.368,1.3313,1.2509,1.1409,1.1114,1.1114,1.1114,1.1114,1.1114,1.1114,1.1114,1.1114,1.1114,1.1114,1.1114,1.1111,1.1111,1.1114,1.104,1.0654,1.0444,1.031,0.9977,0.9634,0.9456,0.9397,0.876,0.7973,0.7357,0.6555,0.5513,0.524,0.4896,0.4621,0.4276,0.3509,0.2171,0.0771,-0.0702,-0.2245,-0.3725,-0.449,-0.4859,-0.4859,-0.4797,-0.4921,-0.5193,-0.5785,-0.6743,-0.7002,-0.7702,-0.9014,-0.9952,-1.0763,-1.1939,-1.3278,-1.5323,-1.7837,-1.9636,-2.1612,-2.2855,-2.414,-2.5185,-2.5977,-2.6592,-2.7425,-2.8176,-2.8496,-2.8717,-2.8883,-2.9132,-2.9475,-2.9835,-3.0163,-3.0416,-3.058,-3.0682,-3.0734,-3.0781,-3.0769,-3.0749,-3.0675,-3.0597,-3.0513,-3.0424,-3.0296,-3.0203,-3.0209,-3.0155,-3.0099,-3.0064,-3.0049,-2.9953,-2.9867,-2.9956,-3.0066,-3.0104,-3.008,-3.0045,-2.9984,-2.9902,-2.9827,-2.9742,-2.9662,-2.9551,1.5655,1.581,1.581,1.581,1.581,1.581,1.5805,1.581,1.5805,1.4919,1.3604,1.3382,1.2579,1.1484,1.1114,1.1114,1.1114,1.1114,1.1114,1.1114,1.1263,1.1263,1.1111,1.126,1.1338,1.1114,1.1114,1.1114,1.104,1.0666,1.0516,1.034,1.0056,0.9844,0.9682,0.9645,0.8534,0.769,0.6982,0.6113,0.4867,0.458,0.4729,0.4731,0.4524,0.3785,0.2752,-0.0145,-0.1447,-0.2751,-0.3991,-0.5163,-0.5569,-0.5785,-0.5811,-0.5964,-0.6441,-0.7146,-0.7789,-0.8203,-0.8655,-0.9845,-1.0874,-1.1608,-1.305,-1.5171,-1.7645,-2.038,-2.1969,-2.3199,-2.449,-2.5746,-2.6462,-2.7,-2.7699,-2.843,-2.8968,-2.9369,-2.9632,-2.9776,-2.9871,-2.9998,-3.0269,-3.0435,-3.0633,-3.0635,-3.0731,-3.0718,-3.0752,-3.0699,-3.0662,-3.0585,-3.0501,-3.0405,-3.03,-3.0186,-3.0109,-3.008,-2.9996,-2.9911,-2.9862,-2.9829,-2.9724,-2.9616,-2.9653,-2.975,-2.982,-2.9869,-2.9846,-2.9769,-2.9635,-2.9504,-2.9388,-2.9198,-2.903,1.5655,1.581,1.581,1.581,1.581,1.581,1.581,1.581,1.5735,1.4923,1.3531,1.3386,1.2582,1.1409,1.1114,1.1114,1.1114,1.1114,1.1114,1.1189,1.1484,1.1487,1.1263,1.1874,1.1493,1.1189,1.1114,1.1114,1.104,1.0741,1.0516,1.0441,1.0143,0.9895,0.9846,0.9825,0.9232,0.8088,0.7468,0.6302,0.4977,0.4752,0.483,0.4836,0.4624,0.4342,0.3021,-0.0589,-0.3609,-0.2857,-0.4673,-0.5607,-0.5817,-0.6789,-0.7198,-0.7339,-0.7478,-0.7711,-0.8451,-0.9059,-0.9702,-1.0708,-1.1506,-1.2733,-1.4902,-1.7548,-2.0037,-2.1592,-2.3128,-2.4579,-2.6007,-2.7006,-2.7669,-2.8184,-2.875,-2.9298,-2.9773,-2.9819,-3.0132,-3.0283,-3.0261,-3.0356,-3.0531,-3.0661,-3.0784,-3.0768,-3.0752,-3.0733,-3.0681,-3.0612,-3.0442,-3.0337,-3.0266,-3.0187,-3.0109,-2.999,-2.9943,-2.9921,-2.9846,-2.9716,-2.9579,-2.9514,-2.9523,-2.9437,-2.9407,-2.9308,-2.935,-2.9409,-2.9551,-2.9494,-2.9329,-2.9144,-2.8983,-2.8791,-2.8582,1.5584,1.581,1.581,1.581,1.581,1.581,1.581,1.5722,1.5284,1.4545,1.3531,1.2952,1.2144,1.126,1.1114,1.1114,1.1114,1.1114,1.1114,1.1114,1.1406,1.1412,1.1263,1.1419,1.1341,1.1267,1.1114,1.1114,1.0965,1.0815,1.0663,1.0441,1.0215,0.9992,0.9919,0.9922,0.9258,0.8127,0.6893,0.5656,0.5095,0.4933,0.4934,0.494,0.4023,0.395,0.2808,-0.1444,-0.4503,-0.4108,-0.5169,-0.5764,-0.6216,-0.6938,-0.743,-0.8316,-0.9139,-0.9592,-0.9811,-1.0439,-1.1185,-1.2169,-1.3121,-1.4808,-1.7317,-1.9941,-2.2622,-2.4852,-2.5376,-2.6468,-2.7823,-2.8763,-2.887,-2.9218,-2.9779,-2.9889,-3.0195,-3.0271,-3.0408,-3.0544,-3.0635,-3.0615,-3.0594,-3.0627,-3.0677,-3.0671,-3.064,-3.0609,-3.0536,-3.0444,-3.0235,-2.9999,-2.9954,-2.9921,-2.9851,-2.9751,-2.9724,-2.9707,-2.9689,-2.9523,-2.9258,-2.9153,-2.9123,-2.8906,-2.8673,-2.8673,-2.8805,-2.9001,-2.9169,-2.9107,-2.9001,-2.8786,-2.8535,-2.8426,-2.8245,1.5655,1.581,1.581,1.581,1.581,1.581,1.581,1.573,1.4974,1.4175,1.3382,1.2512,1.1629,1.1186,1.1114,1.1114,1.1108,1.1257,1.1338,1.1416,1.1487,1.1561,1.1564,1.1493,1.1502,1.1114,1.1114,1.1114,1.104,1.0965,1.0815,1.0591,1.029,1.0145,0.9995,0.9844,0.9291,0.7988,0.6141,0.5143,0.4995,0.5002,0.5003,0.4536,0.3601,0.2506,0.1645,-0.1172,-0.4074,-0.4931,-0.5148,-0.5824,-0.6676,-0.7353,-0.8127,-0.9088,-1.0251,-1.1072,-1.1297,-1.1919,-1.2687,-1.3765,-1.5533,-1.7633,-1.9916,-2.231,-2.4656,-2.7306,-2.7763,-2.8778,-3.0017,-3.0586,-3.0433,-3.0475,-3.0739,-3.0656,-3.0536,-3.0491,-3.0478,-3.0562,-3.0619,-3.0594,-3.0578,-3.0565,-3.0558,-3.0559,-3.0529,-3.0477,-3.0346,-3.0194,-3.0018,-2.9759,-2.9742,-2.9724,-2.9671,-2.9598,-2.9542,-2.9418,-2.9398,-2.9207,-2.8847,-2.8658,-2.86,-2.8341,-2.8047,-2.8201,-2.8451,-2.863,-2.8749,-2.8621,-2.8485,-2.8281,-2.8111,-2.7992,-2.7917,1.5647,1.581,1.581,1.581,1.581,1.581,1.581,1.573,1.4899,1.4102,1.3168,1.1996,1.1257,1.1108,1.1111,1.1108,1.1105,1.1706,1.1942,1.217,1.2539,1.2228,1.2009,1.1955,1.1974,1.127,1.1114,1.1114,1.1114,1.104,1.0965,1.0743,1.0443,1.0296,1.007,0.9768,0.8998,0.7698,0.6009,0.5089,0.5016,0.5019,0.5021,0.4631,0.3131,0.0547,-0.3692,-0.353,-0.3763,-0.4941,-0.5325,-0.6167,-0.7011,-0.7679,-0.8438,-0.9873,-1.093,-1.1961,-1.2769,-1.315,-1.3804,-1.5282,-1.7626,-2.0461,-2.2461,-2.5629,-2.7859,-2.9058,-2.9656,-3.0485,-3.1497,-3.2031,-3.1834,-3.1583,-3.1495,-3.1225,-3.0963,-3.0523,-3.0525,-3.0589,-3.0516,-3.0365,-3.0247,-3.0165,-3.0327,-3.0346,-3.024,-3.0184,-2.9971,-2.9819,-2.9737,-2.9608,-2.9589,-2.957,-2.9533,-2.9407,-2.9193,-2.897,-2.8847,-2.8609,-2.8298,-2.8175,-2.8166,-2.7929,-2.7747,-2.7927,-2.8047,-2.8038,-2.8029,-2.8066,-2.7992,-2.7897,-2.778,-2.7672,-2.7569,1.5726,1.581,1.581,1.581,1.581,1.581,1.581,1.5655,1.4768,1.3676,1.2512,1.1555,1.1114,1.1114,1.1111,1.109,1.1218,1.1765,1.2086,1.2399,1.2616,1.2301,1.1932,1.1697,1.1465,1.1186,1.1114,1.1114,1.1114,1.1114,1.1037,1.0887,1.0669,1.0441,1.014,0.946,0.8463,0.7542,0.6398,0.5558,0.5018,0.5018,0.5022,0.4871,0.3368,0.1174,-0.149,-0.3373,-0.4237,-0.4865,-0.525,-0.6168,-0.7149,-0.7575,-0.8637,-1.0412,-1.1589,-1.2927,-1.4458,-1.4747,-1.5198,-1.7648,-2.0123,-2.2614,-2.4791,-2.7581,-2.9663,-3.0827,-3.1616,-3.2298,-3.2852,-3.3205,-3.3106,-3.2638,-3.2246,-3.1942,-3.1334,-3.0809,-3.0297,-3.025,-3.0045,-2.986,-2.9754,-2.968,-2.9918,-3.0113,-2.999,-2.9839,-2.9579,-2.9397,-2.9307,-2.9214,-2.9181,-2.9117,-2.9055,-2.8906,-2.8752,-2.8572,-2.8342,-2.8138,-2.7906,-2.7878,-2.7803,-2.7581,-2.7361,-2.737,-2.7339,-2.7308,-2.7409,-2.7687,-2.7733,-2.7663,-2.7509,-2.7367,-2.7313,1.5467,1.548,1.5583,1.5698,1.5797,1.581,1.581,1.5655,1.4844,1.3535,1.208,1.1558,1.126,1.1183,1.1332,1.1227,1.1498,1.2111,1.2676,1.2987,1.2987,1.2452,1.1842,1.1313,1.1239,1.1108,1.1114,1.1114,1.1114,1.1114,1.1114,1.1037,1.0962,1.066,1.0212,0.9155,0.8165,0.7393,0.6626,0.5781,0.5086,0.5249,0.5176,0.4867,0.3368,0.1643,-0.047,-0.2508,-0.4156,-0.4707,-0.5251,-0.6167,-0.6981,-0.7787,-0.8672,-1.0701,-1.2673,-1.4144,-1.5846,-1.7258,-1.7943,-2.049,-2.2378,-2.4837,-2.7201,-2.9512,-3.1411,-3.2813,-3.3393,-3.3798,-3.419,-3.4374,-3.4067,-3.3548,-3.3258,-3.2863,-3.167,-3.091,-3.0293,-2.9859,-2.9618,-2.9364,-2.9373,-2.9298,-2.926,-2.9438,-2.9316,-2.9145,-2.8959,-2.8842,-2.8804,-2.8742,-2.8679,-2.859,-2.8507,-2.8455,-2.8411,-2.8192,-2.7982,-2.7791,-2.7642,-2.7573,-2.7382,-2.7115,-2.6898,-2.675,-2.6741,-2.6824,-2.7123,-2.7461,-2.747,-2.7417,-2.7443,-2.7322,-2.7201,1.4739,1.4756,1.5103,1.5459,1.5754,1.5797,1.581,1.5726,1.4907,1.3745,1.2519,1.2147,1.1703,1.1481,1.1777,1.1819,1.1937,1.3146,1.3939,1.3962,1.3488,1.3109,1.2522,1.1925,1.1406,1.118,1.127,1.1428,1.1114,1.1263,1.1189,1.1114,1.104,1.0959,1.0666,0.9382,0.8239,0.7314,0.6692,0.5997,0.5541,0.5786,0.5561,0.4784,0.3368,0.1721,-0.0078,-0.1488,-0.3289,-0.51,-0.5256,-0.6319,-0.8051,-0.7996,-0.9551,-1.2795,-1.4467,-1.6129,-1.7961,-2.0205,-2.2202,-2.3428,-2.4993,-2.7124,-2.9805,-3.173,-3.2893,-3.3973,-3.4601,-3.5017,-3.5343,-3.5346,-3.4734,-3.4289,-3.3945,-3.327,-3.2048,-3.113,-3.0545,-2.9723,-2.9198,-2.8889,-2.8944,-2.8916,-2.8746,-2.868,-2.8587,-2.8489,-2.8385,-2.8385,-2.842,-2.8429,-2.8377,-2.8183,-2.8138,-2.8129,-2.8047,-2.7829,-2.7612,-2.74,-2.7221,-2.7085,-2.6858,-2.6598,-2.6496,-2.6418,-2.6426,-2.6461,-2.6783,-2.7085,-2.7192,-2.7201,-2.7259,-2.7218,-2.7023,1.4684,1.4718,1.5069,1.5287,1.5446,1.5694,1.581,1.566,1.4982,1.4178,1.3466,1.3025,1.2662,1.2445,1.2515,1.2645,1.3132,1.3364,1.4225,1.4293,1.3905,1.3539,1.3036,1.2546,1.2039,1.1877,1.1961,1.1738,1.1114,1.1409,1.1335,1.1189,1.1114,1.0965,1.0585,0.9679,0.8768,0.8309,0.7691,0.7,0.6323,0.6249,0.5788,0.5019,0.3444,0.18,0.0,0.0,-0.266,-0.5492,-0.5964,-0.7092,-0.8808,-0.9048,-1.0501,-1.4223,-1.6766,-2.0112,-2.2383,-2.4672,-2.6301,-2.671,-2.7147,-2.9049,-3.1584,-3.2351,-3.3557,-3.4584,-3.51,-3.5325,-3.5237,-3.5029,-3.4568,-3.4282,-3.3864,-3.3195,-3.2253,-3.1585,-3.0881,-2.984,-2.9088,-2.8263,-2.7984,-2.8005,-2.7869,-2.7941,-2.7883,-2.8084,-2.8039,-2.8139,-2.821,-2.821,-2.8129,-2.7899,-2.7756,-2.7669,-2.7443,-2.7138,-2.7077,-2.7029,-2.6842,-2.6674,-2.6469,-2.6287,-2.6216,-2.6118,-2.6154,-2.6233,-2.6426,-2.664,-2.6683,-2.6792,-2.6825,-2.675,-2.6632,1.4273,1.432,1.4671,1.4825,1.4936,1.5523,1.581,1.5726,1.5196,1.4689,1.4258,1.3749,1.3393,1.3258,1.3331,1.3459,1.3943,1.4402,1.4565,1.4557,1.427,1.3905,1.3557,1.3075,1.2627,1.2476,1.256,1.2412,1.1861,1.1932,1.1781,1.1484,1.1263,1.126,1.0884,1.0357,0.9455,0.892,0.8228,0.7938,0.7415,0.68,0.5705,0.4935,0.3839,0.2427,0.0,0.0,-0.2034,-0.5326,-0.7362,-0.825,-0.972,-1.0285,-1.1677,-1.5609,-2.0435,-2.3728,-2.6074,-2.7967,-2.9098,-2.9311,-2.9295,-3.033,-3.2181,-3.2788,-3.3759,-3.4664,-3.5197,-3.5125,-3.4916,-3.4675,-3.4403,-3.4114,-3.3743,-3.3074,-3.236,-3.1664,-3.0731,-2.9692,-2.8406,-2.7624,-2.6902,-2.6973,-2.6925,-2.7037,-2.718,-2.7387,-2.7587,-2.7672,-2.7681,-2.7643,-2.7593,-2.7299,-2.7161,-2.7178,-2.6889,-2.6479,-2.653,-2.6716,-2.6512,-2.6374,-2.6162,-2.5982,-2.5909,-2.5881,-2.5889,-2.5998,-2.6082,-2.611,-2.6118,-2.6216,-2.6349,-2.6375,-2.634,1.3519,1.3566,1.3935,1.4131,1.4303,1.5253,1.5733,1.5788,1.5546,1.5167,1.4609,1.4406,1.4118,1.3825,1.4122,1.425,1.4227,1.5054,1.5217,1.515,1.4633,1.4338,1.3905,1.3331,1.3043,1.2977,1.3137,1.3298,1.2826,1.2275,1.198,1.1932,1.1719,1.1716,1.149,1.1034,1.0132,0.9523,0.8841,0.8553,0.8111,0.6953,0.5862,0.5168,0.447,0.2976,0.0,0.0,-0.2184,-0.5224,-0.8214,-0.9868,-1.0593,-1.0081,-1.347,-1.8578,-2.4651,-2.6802,-2.8788,-3.0579,-3.1216,-3.1218,-3.0485,-3.1473,-3.2339,-3.2986,-3.3591,-3.446,-3.5055,-3.4793,-3.4566,-3.4329,-3.4088,-3.3849,-3.3638,-3.2976,-3.2225,-3.1395,-3.0429,-2.9199,-2.7688,-2.6667,-2.5848,-2.5693,-2.609,-2.6081,-2.6205,-2.6283,-2.6506,-2.6888,-2.6855,-2.6781,-2.6699,-2.6598,-2.6581,-2.6733,-2.6573,-2.6235,-2.6426,-2.6547,-2.6304,-2.6099,-2.599,-2.5844,-2.5667,-2.5592,-2.5584,-2.5546,-2.5554,-2.5584,-2.5513,-2.5848,-2.6013,-2.6235,-2.627,1.3511,1.3549,1.3935,1.4097,1.4187,1.4748,1.53,1.5733,1.5458,1.5228,1.5196,1.5213,1.4875,1.4764,1.4836,1.4974,1.5121,1.5351,1.5505,1.5359,1.5054,1.4911,1.4466,1.3803,1.3517,1.3844,1.4168,1.4095,1.3317,1.2687,1.2481,1.2515,1.2627,1.2553,1.2164,1.1703,1.1031,1.0276,0.9518,0.8844,0.8246,0.7092,0.6088,0.5477,0.5175,0.3679,0.2112,0.047,0.0,0.0,0.0,-1.3561,-1.2533,-1.1981,-1.4455,-2.6557,-2.9369,-2.9762,-3.1173,-3.1953,-3.227,-3.2021,-3.1045,-3.1719,-3.2552,-3.2863,-3.3006,-3.3607,-3.411,-3.3816,-3.338,-3.3123,-3.2894,-3.2649,-3.2441,-3.2088,-3.1478,-3.1166,-3.0133,-2.8449,-2.6928,-2.5828,-2.4997,-2.5005,-2.5343,-2.5245,-2.5206,-2.5321,-2.5511,-2.5916,-2.6106,-2.5991,-2.6052,-2.6024,-2.628,-2.6445,-2.6254,-2.6093,-2.6129,-2.6101,-2.5864,-2.5688,-2.5733,-2.5621,-2.5394,-2.527,-2.5254,-2.5224,-2.5154,-2.4974,-2.495,-2.5338,-2.5721,-2.5905,-2.6093,1.3511,1.3536,1.3948,1.4201,1.434,1.4251,1.4654,1.5219,1.5099,1.5087,1.521,1.5549,1.5479,1.5291,1.5536,1.5833,1.5908,1.5982,1.6061,1.5982,1.5538,1.5413,1.4962,1.4557,1.4486,1.4903,1.5158,1.5078,1.4318,1.3814,1.3535,1.347,1.3755,1.3371,1.2973,1.2586,1.2224,1.1171,1.0112,0.8893,0.8058,0.7304,0.6474,0.6175,0.5872,0.4528,0.2656,0.1017,0.0,0.0,0.0,-1.5991,-1.5855,-1.6218,-2.0426,-3.0714,-3.1733,-3.1785,-3.2462,-3.2434,-3.2167,-3.1455,-3.064,-3.0516,-3.0964,-3.1265,-3.1599,-3.2056,-3.2402,-3.2527,-3.2081,-3.1671,-3.1394,-3.1088,-3.0992,-3.0925,-3.0828,-3.0827,-2.9447,-2.7697,-2.6355,-2.5244,-2.4688,-2.4669,-2.4695,-2.4719,-2.4791,-2.4863,-2.4989,-2.5176,-2.5333,-2.5322,-2.5438,-2.5582,-2.5811,-2.5928,-2.5652,-2.5406,-2.5351,-2.5291,-2.5216,-2.5224,-2.5224,-2.5146,-2.5037,-2.4942,-2.4895,-2.4847,-2.4767,-2.4599,-2.4517,-2.4918,-2.5277,-2.5513,-2.5709,1.3627,1.3692,1.407,1.4466,1.4639,1.407,1.4143,1.4685,1.4755,1.4767,1.4963,1.5642,1.5802,1.5736,1.6145,1.6535,1.6585,1.6612,1.6608,1.6677,1.6524,1.632,1.5948,1.5466,1.5602,1.593,1.6118,1.614,1.5929,1.5417,1.4911,1.4485,1.4601,1.4445,1.4254,1.3738,1.3302,1.2861,1.0911,0.9178,0.8564,0.7827,0.7411,0.7821,0.7011,0.5581,0.3263,0.1477,0.0233,-0.3262,-0.6966,-1.3036,-1.8779,-1.9718,-2.5777,-3.112,-3.2536,-3.2707,-3.2637,-3.2375,-3.1396,-3.045,-2.9355,-2.8935,-2.9172,-2.9689,-3.0061,-3.0245,-3.0531,-3.06,-3.0272,-3.004,-2.9806,-2.9649,-2.9571,-2.9578,-2.9625,-2.9312,-2.8323,-2.6788,-2.564,-2.456,-2.417,-2.4105,-2.423,-2.4279,-2.432,-2.4387,-2.4428,-2.4517,-2.4615,-2.4681,-2.5027,-2.5182,-2.5144,-2.5152,-2.4902,-2.4711,-2.4744,-2.4752,-2.4863,-2.4783,-2.4622,-2.4703,-2.4783,-2.4614,-2.4533,-2.4492,-2.4451,-2.4328,-2.4328,-2.4541,-2.4823,-2.5052,-2.5285,1.4597,1.4597,1.4711,1.4785,1.4841,1.4629,1.4634,1.4828,1.4828,1.5014,1.5317,1.5799,1.6188,1.6287,1.655,1.6889,1.7161,1.7269,1.7217,1.73,1.729,1.7335,1.706,1.6702,1.6917,1.7212,1.7337,1.7323,1.701,1.6742,1.6547,1.6302,1.6189,1.5956,1.5649,1.5072,1.4518,1.447,1.2795,1.0592,0.935,0.9828,0.9986,1.043,1.0022,0.8296,0.567,0.2227,0.4277,0.5267,0.556,-0.3809,-1.8181,-1.7215,-2.2788,-3.071,-3.232,-3.217,-3.204,-3.1431,-3.0278,-2.946,-2.8473,-2.7749,-2.7575,-2.8037,-2.834,-2.8439,-2.8511,-2.8518,-2.8505,-2.8355,-2.8235,-2.8163,-2.8101,-2.8168,-2.823,-2.7616,-2.6943,-2.592,-2.4817,-2.4234,-2.3737,-2.3645,-2.3724,-2.3767,-2.3759,-2.3794,-2.3752,-2.3809,-2.4035,-2.4219,-2.4704,-2.4879,-2.4711,-2.4583,-2.4395,-2.4484,-2.4591,-2.4566,-2.4508,-2.4459,-2.4369,-2.4484,-2.4558,-2.4362,-2.4204,-2.417,-2.4086,-2.4002,-2.4044,-2.4204,-2.4336,-2.4533,-2.4759,1.4893,1.4893,1.4893,1.5064,1.5298,1.5123,1.5059,1.5123,1.5298,1.5595,1.5972,1.6138,1.6258,1.6467,1.6646,1.7164,1.757,1.7866,1.7932,1.804,1.8355,1.8402,1.8233,1.8001,1.8542,1.8818,1.8977,1.889,1.832,1.8185,1.8118,1.7983,1.7857,1.7512,1.7142,1.6457,1.6,1.6149,1.4795,1.3244,1.125,1.1481,1.2203,1.2774,1.2566,1.1417,0.9586,0.599,0.5773,0.8322,0.8521,1.0184,-0.1334,-0.827,-1.8753,-2.6583,-2.9915,-3.0246,-3.0057,-2.9329,-2.8115,-2.7089,-2.6817,-2.575,-2.5406,-2.581,-2.6264,-2.6416,-2.6623,-2.6688,-2.6605,-2.6485,-2.6361,-2.6278,-2.61,-2.6014,-2.5978,-2.567,-2.5139,-2.4474,-2.3768,-2.3527,-2.325,-2.3304,-2.329,-2.295,-2.2995,-2.3128,-2.3091,-2.3201,-2.3393,-2.3613,-2.4067,-2.4287,-2.4154,-2.4063,-2.4071,-2.4196,-2.4313,-2.4196,-2.4036,-2.4071,-2.4113,-2.4188,-2.4139,-2.3979,-2.3859,-2.3867,-2.3824,-2.3774,-2.3782,-2.3875,-2.3959,-2.4044,-2.4139,1.5132,1.5074,1.5123,1.5473,1.5926,1.5637,1.5522,1.57,1.6036,1.6472,1.6952,1.6772,1.6312,1.6411,1.6772,1.7342,1.8068,1.8829,1.8949,1.9144,1.9754,1.9836,1.9651,1.9388,1.9906,2.0278,2.0482,2.0219,1.9868,1.9754,1.964,1.9569,1.9373,1.9043,1.8813,1.8106,1.7441,1.7713,1.7087,1.634,1.4959,1.3664,1.4541,1.5092,1.5611,1.6333,1.4688,1.2614,0.946,1.0009,1.2438,1.5035,1.24,0.231,-0.9618,-1.7978,-2.0954,-2.2755,-2.505,-2.4596,-2.3986,-2.3618,-2.3671,-2.2731,-2.1628,-2.0789,-2.1197,-2.1859,-2.2079,-2.4343,-2.4255,-2.42,-2.4039,-2.2517,-2.2329,-2.3296,-2.3348,-2.3392,-2.3056,-2.2601,-2.2432,-2.2255,-2.225,-2.2376,-2.2243,-2.1953,-2.191,-2.225,-2.2445,-2.2663,-2.2857,-2.2984,-2.3238,-2.34,-2.348,-2.3566,-2.3595,-2.361,-2.3638,-2.3602,-2.361,-2.3774,-2.3809,-2.3724,-2.3681,-2.3638,-2.3638,-2.3688,-2.3595,-2.3508,-2.3645,-2.3696,-2.3739,-2.3731,-2.3508,1.6077,1.6139,1.6239,1.6343,1.6446,1.6554,1.6668,1.6781,1.7224,1.7611,1.7738,1.8064,1.8175,1.8504,1.8635,1.8881,1.9038,1.9806,2.019,2.0408,2.0899,2.1197,2.1336,2.1181,2.1347,2.1461,2.1569,2.1393,2.1471,2.125,2.1095,2.1147,2.0841,2.0702,2.0685,2.0013,1.9689,1.9755,1.972,1.9178,1.7501,1.6887,1.7701,1.8598,1.9536,2.0985,2.1363,2.1173,1.8468,1.7904,1.9176,2.1724,1.8489,1.1886,0.186,-0.5217,-0.8326,-1.3699,-1.5834,-1.7206,-1.6904,-1.5514,-1.449,-1.2345,-1.0537,-0.7916,-0.8727,-1.0181,-1.2514,-1.9556,-2.0756,-2.0727,-2.0329,-1.6113,-1.425,-1.7821,-1.9791,-2.0151,-2.0312,-2.0006,-1.9794,-1.9569,-1.9403,-1.944,-1.9418,-1.9087,-1.8819,-1.8969,-1.7942,-1.974,-2.1004,-2.122,-2.1008,-2.2716,-2.2957,-2.3016,-2.3061,-2.3031,-2.3038,-2.3061,-2.3231,-2.3551,-2.3551,-2.3319,-2.3406,-2.345,-2.3501,-2.3275,-2.337,-2.3319,-2.3508,-2.3595,-2.3551,-2.337,-2.3098]}]]